[[{"header":{"parameterUnit":"m.s-1","parameterCategory":1,"la1":30.6,"la2":28.766,"lo1":-90.7593,"lo2":-88.6598,"dy":0.0162,"dx":0.0183,"nx":116,"ny":114,"refTime":"2023-08-16T06:00:00:Z","depth":0,"parameterNumber":2,"parameterNumberName":"U-component_of_WINDS"},"data":[0.0,0.0,0.0,0.0,0.0,0.0,0.0,0.0,0.0,0.0,0.0,0.0,0.0,0.0,0.0,0.0,0.0,0.0,0.0,0.0,0.0,0.0,0.0,0.0,0.0,0.0,0.0,0.0,0.0,0.0,0.0,0.0,0.0,0.0,0.0,0.0,0.0,0.0,0.0,0.0,0.0,0.0,0.0,0.0,0.0,0.0,0.0,0.0,0.0,0.0,0.0,0.0,0.0,0.0,0.0,0.0,0.0,0.0,0.0,0.0,0.0,0.0,0.0,0.0,0.0,0.0,0.0,0.0,0.0,0.0,0.0,0.0,0.0,0.0,0.0,0.0,0.0,0.0,0.0,0.0,0.0,0.0,0.0,0.0,0.0,0.0,0.0,0.0,0.0,0.0,0.0,0.0,0.0,0.0,0.0,0.0,0.0,0.0,0.0,0.0,0.0,0.0,0.0,0.0,0.0,0.0,0.0,0.0,0.0,0.0,0.0,0.0,0.0,0.0,0.0,0.0,0.0,0.0,0.0,0.0,0.0,0.0,0.0,0.0,0.0,0.0,0.0,0.0,0.0,0.0,0.0,0.0,0.0,0.0,0.0,0.0,0.0,0.0,0.0,0.0,0.0,0.0,0.0,0.0,0.0,0.0,0.0,0.0,0.0,0.0,0.0,0.0,0.0,0.0,0.0,0.0,0.0,0.0,0.0,0.0,0.0,0.0,0.0,0.0,0.0,0.0,0.0,0.0,0.0,0.0,0.0,0.0,0.0,0.0,0.0,0.0,0.0,0.0,0.0,0.0,0.0,0.0,0.0,0.0,0.0,0.0,0.0,0.0,0.0,0.0,0.0,0.0,0.0,0.0,0.0,0.0,0.0,0.0,0.0,0.0,0.0,0.0,0.0,0.0,0.0,0.0,0.0,0.0,0.0,0.0,0.0,0.0,0.0,0.0,0.0,0.0,0.0,0.0,0.0,0.0,0.0,0.0,0.0,0.0,0.0,0.0,0.0,0.0,0.0,0.0,0.0,0.0,0.0,0.0,0.0,0.0,0.0,0.0,0.0,0.0,0.0,0.0,0.0,0.0,0.0,0.0,0.0,0.0,0.0,0.0,0.0,0.0,0.0,0.0,0.0,0.0,0.0,0.0,0.0,0.0,0.0,0.0,0.0,0.0,0.0,0.0,0.0,0.0,0.0,0.0,0.0,0.0,0.0,0.0,0.0,0.0,0.0,0.0,0.0,0.0,0.0,0.0,0.0,0.0,0.0,0.0,0.0,0.0,0.0,0.0,0.0,0.0,0.0,0.0,0.0,0.0,0.0,0.0,0.0,0.0,0.0,0.0,0.0,0.0,0.0,0.0,0.0,0.0,0.0,0.0,0.0,0.0,0.0,0.0,0.0,0.0,0.0,0.0,0.0,0.0,0.0,0.0,0.0,0.0,0.0,0.0,0.0,0.0,0.0,0.0,0.0,0.0,0.0,0.0,0.0,0.0,0.0,0.0,0.0,0.0,0.0,0.0,0.0,0.0,0.0,0.0,0.0,0.0,0.0,0.0,0.0,0.0,0.0,0.0,0.0,0.0,0.0,0.0,0.0,0.0,0.0,0.0,0.0,0.0,0.0,0.0,0.0,0.0,0.0,0.0,0.0,0.0,0.0,0.0,0.0,0.0,0.0,0.0,0.0,0.0,0.0,0.0,0.0,0.0,0.0,0.0,0.0,0.0,0.0,0.0,0.0,0.0,0.0,0.0,0.0,0.0,0.0,0.0,0.0,0.0,0.0,0.0,0.0,0.0,0.0,0.0,0.0,0.0,0.0,0.0,0.0,0.0,0.0,0.0,0.0,0.0,0.0,0.0,0.0,0.0,0.0,0.0,0.0,0.0,0.0,0.0,0.0,0.0,0.0,0.0,0.0,0.0,0.0,0.0,0.0,0.0,0.0,0.0,0.0,0.0,0.0,0.0,0.0,0.0,0.0,0.0,0.0,0.0,0.0,0.0,0.0,0.0,0.0,0.0,0.0,0.0,0.0,0.0,0.0,0.0,0.0,0.0,0.0,0.0,0.0,0.0,0.0,0.0,0.0,0.0,0.0,0.0,0.0,0.0,0.0,0.0,0.0,0.0,0.0,0.0,0.0,0.0,0.0,0.0,0.0,0.0,0.0,0.0,0.0,0.0,0.0,0.0,0.0,0.0,0.0,0.0,0.0,0.0,0.0,0.0,0.0,0.0,0.0,0.0,0.0,0.0,0.0,0.0,0.0,0.0,0.0,0.0,0.0,0.0,0.0,0.0,0.0,0.0,0.0,0.0,0.0,0.0,0.0,0.0,0.0,0.0,0.0,0.0,0.0,0.0,0.0,0.0,0.0,0.0,0.0,0.0,0.0,0.0,0.0,0.0,0.0,0.0,0.0,0.0,0.0,0.0,0.0,0.0,0.0,0.0,0.0,0.0,0.0,0.0,0.0,0.0,0.0,0.0,0.0,0.0,0.0,0.0,0.0,0.0,0.0,0.0,0.0,0.0,0.0,0.0,0.0,0.0,0.0,0.0,0.0,0.0,0.0,0.0,0.0,0.0,0.0,0.0,0.0,0.0,0.0,0.0,0.0,0.0,0.0,0.0,0.0,0.0,0.0,0.0,0.0,0.0,0.0,0.0,0.0,0.0,0.0,0.0,0.0,0.0,0.0,0.0,0.0,0.0,0.0,0.0,0.0,0.0,0.0,0.0,0.0,0.0,0.0,0.0,0.0,0.0,0.0,0.0,0.0,0.0,0.0,0.0,0.0,0.0,0.0,0.0,0.0,0.0,0.0,0.0,0.0,0.0,0.0,0.0,0.0,0.0,0.0,0.0,0.0,0.0,0.0,0.0,0.0,0.0,0.0,0.0,0.0,0.0,0.0,0.0,0.0,0.0,0.0,0.0,0.0,0.0,0.0,0.0,0.0,0.0,0.0,0.0,0.0,0.0,0.0,0.0,0.0,0.0,0.0,0.0,0.0,0.0,0.0,0.0,0.0,0.0,0.0,0.0,0.0,0.0,0.0,0.0,0.0,0.0,0.0,0.0,0.0,0.0,0.0,0.0,0.0,0.0,0.0,0.0,0.0,0.0,0.0,0.0,0.0,0.0,0.0,0.0,0.0,0.0,0.0,0.0,0.0,0.0,0.0,0.0,0.0,0.0,0.0,0.0,0.0,0.0,0.0,0.0,0.0,0.0,0.0,0.0,0.0,0.0,0.0,0.0,0.0,0.0,0.0,0.0,0.0,0.0,0.0,0.0,0.0,0.0,0.0,0.0,0.0,0.0,0.0,0.0,0.0,0.0,0.0,0.0,0.0,0.0,0.0,0.0,0.0,0.0,0.0,0.0,0.0,0.0,0.0,0.0,0.0,0.0,0.0,0.0,0.0,0.0,0.0,0.0,0.0,0.0,0.0,0.0,0.0,0.0,0.0,0.0,0.0,0.0,0.0,0.0,0.0,0.0,0.0,0.0,0.0,0.0,0.0,0.0,0.0,0.0,0.0,0.0,0.0,0.0,0.0,0.0,0.0,0.0,0.0,0.0,0.0,0.0,0.0,0.0,0.0,0.0,0.0,0.0,0.0,0.0,0.0,0.0,0.0,0.0,0.0,0.0,0.0,0.0,0.0,0.0,0.0,0.0,0.0,0.0,0.0,0.0,0.0,0.0,0.0,0.0,0.0,0.0,0.0,0.0,0.0,0.0,0.0,0.0,0.0,0.0,0.0,0.0,0.0,0.0,0.0,0.0,0.0,0.0,0.0,0.0,0.0,0.0,0.0,0.0,0.0,0.0,0.0,0.0,0.0,0.0,0.0,0.0,0.0,0.0,0.0,0.0,0.0,0.0,0.0,0.0,0.0,0.0,0.0,0.0,0.0,0.0,0.0,0.0,0.0,0.0,0.0,0.0,0.0,0.0,0.0,0.0,0.0,0.0,0.0,0.0,0.0,0.0,0.0,0.0,0.0,0.0,0.0,0.0,0.0,0.0,0.0,0.0,0.0,0.0,0.0,0.0,0.0,0.0,0.0,0.0,0.0,0.0,0.0,0.0,0.0,0.0,0.0,0.0,0.0,0.0,0.0,0.0,0.0,0.0,0.0,0.0,0.0,0.0,0.0,0.0,0.0,0.0,0.0,0.0,0.0,0.0,0.0,0.0,0.0,0.0,0.0,0.0,0.0,0.0,0.0,0.0,0.0,0.0,0.0,0.0,0.0,0.0,0.0,0.0,0.0,0.0,0.0,0.0,0.0,0.0,0.0,0.0,0.0,0.0,0.0,0.0,0.0,0.0,0.0,0.0,0.0,0.0,0.0,0.0,0.0,0.0,0.0,0.0,0.0,0.0,0.0,0.0,0.0,0.0,0.0,0.0,0.0,0.0,0.0,0.0,0.0,0.0,0.0,0.0,0.0,0.0,0.0,0.0,0.0,0.0,0.0,0.0,0.0,0.0,0.0,0.0,0.0,0.0,0.0,0.0,0.0,0.0,0.0,0.0,0.0,0.0,0.0,0.0,0.0,0.0,0.0,0.0,0.0,0.0,0.0,0.0,0.0,0.0,0.0,0.0,0.0,0.0,0.0,0.0,0.0,0.0,0.0,0.0,0.0,0.0,0.0,0.0,0.0,0.0,0.0,0.0,0.0,0.0,0.0,0.0,0.0,0.0,0.0,0.0,0.0,0.0,0.0,0.0,0.0,0.0,0.0,0.0,0.0,0.0,0.0,0.0,0.0,0.0,0.0,0.0,0.0,0.0,0.0,0.0,0.0,0.0,0.0,0.0,0.0,0.0,0.0,0.0,0.0,0.0,0.0,0.0,0.0,0.0,0.0,0.0,0.0,0.0,0.0,0.0,0.0,0.0,0.0,0.0,0.0,0.0,0.0,0.0,0.0,0.0,0.0,0.0,0.0,0.0,0.0,0.0,0.0,0.0,0.0,0.0,0.0,0.0,0.0,0.0,0.0,0.0,0.0,0.0,0.0,0.0,0.0,0.0,0.0,0.0,0.0,0.0,0.0,0.0,0.0,0.0,0.0,0.0,0.0,0.0,0.0,0.0,0.0,0.0,0.0,0.0,0.0,0.0,0.0,0.0,0.0,0.0,0.0,0.0,0.0,0.0,0.0,0.0,0.0,0.0,0.0,0.0,0.0,0.0,0.0,0.0,0.0,0.0,0.0,0.0,0.0,0.0,0.0,0.0,0.0,0.0,0.0,0.0,0.0,0.0,0.0,0.0,0.0,0.0,0.0,0.0,0.0,0.0,0.0,0.0,0.0,0.0,0.0,0.0,0.0,0.0,0.0,0.0,0.0,0.0,0.0,0.0,0.0,0.0,0.0,0.0,0.0,0.0,0.0,0.0,0.0,0.0,0.0,0.0,0.0,0.0,0.0,0.0,0.0,0.0,0.0,0.0,0.0,0.0,0.0,0.0,0.0,0.0,0.0,0.0,0.0,0.0,0.0,0.0,0.0,0.0,0.0,0.0,0.0,0.0,0.0,0.0,0.0,0.0,0.0,0.0,0.0,0.0,0.0,0.0,0.0,0.0,0.0,0.0,0.0,0.0,0.0,0.0,0.0,0.0,0.0,0.0,0.0,0.0,0.0,0.0,0.0,0.0,0.0,0.0,0.0,0.0,0.0,0.0,0.0,0.0,0.0,0.0,0.0,0.0,0.0,0.0,0.0,0.0,0.0,0.0,0.0,0.0,0.0,0.0,0.0,0.0,0.0,0.0,0.0,0.0,0.0,0.0,0.0,0.0,0.0,0.0,0.0,0.0,0.0,0.0,0.0,0.0,0.0,0.0,0.0,0.0,0.0,0.0,0.0,0.0,0.0,0.0,0.0,0.0,0.0,0.0,0.0,0.0,0.0,0.0,0.0,0.0,0.0,0.0,0.0,0.0,0.0,0.0,0.0,0.0,0.0,0.0,0.0,0.0,0.0,0.0,0.0,0.0,0.0,0.0,0.0,0.0,0.0,0.0,0.0,0.0,0.0,0.0,0.0,0.0,0.0,0.0,0.0,0.0,0.0,0.0,0.0,0.0,0.0,0.0,0.0,0.0,0.0,0.0,0.0,0.0,0.0,0.0,0.0,0.0,0.0,0.0,0.0,0.0,-2.3864,0.0,0.0,0.0,0.0,0.0,0.0,0.0,0.0,0.0,0.0,0.0,0.0,0.0,0.0,0.0,0.0,0.0,0.0,0.0,0.0,0.0,0.0,0.0,0.0,0.0,0.0,0.0,0.0,0.0,0.0,0.0,0.0,0.0,0.0,0.0,0.0,0.0,0.0,0.0,0.0,0.0,0.0,0.0,0.0,0.0,0.0,0.0,0.0,0.0,0.0,0.0,0.0,0.0,0.0,0.0,0.0,0.0,0.0,0.0,0.0,0.0,0.0,0.0,0.0,0.0,0.0,0.0,0.0,0.0,0.0,0.0,0.0,0.0,0.0,0.0,0.0,0.0,0.0,0.0,0.0,0.0,0.0,0.0,0.0,0.0,0.0,0.0,0.0,0.0,0.0,0.0,0.0,0.0,0.0,0.0,0.0,0.0,0.0,0.0,0.0,0.0,0.0,0.0,0.0,0.0,0.0,0.0,0.0,0.0,0.0,0.0,0.0,0.0,0.0,0.0,0.0,-2.3578,0.0,0.0,0.0,0.0,0.0,0.0,0.0,0.0,0.0,0.0,0.0,0.0,0.0,0.0,0.0,0.0,0.0,0.0,0.0,0.0,0.0,0.0,0.0,0.0,0.0,0.0,0.0,0.0,0.0,0.0,0.0,0.0,0.0,0.0,0.0,0.0,0.0,0.0,0.0,0.0,0.0,0.0,0.0,0.0,0.0,0.0,0.0,0.0,0.0,0.0,0.0,0.0,0.0,0.0,0.0,0.0,0.0,0.0,0.0,0.0,0.0,0.0,0.0,0.0,0.0,0.0,0.0,0.0,0.0,0.0,0.0,0.0,0.0,0.0,0.0,0.0,0.0,0.0,0.0,0.0,0.0,0.0,0.0,0.0,0.0,0.0,0.0,0.0,0.0,0.0,0.0,0.0,0.0,0.0,0.0,0.0,0.0,0.0,0.0,0.0,0.0,0.0,0.0,0.0,0.0,0.0,0.0,0.0,-2.5848,-2.6287,-2.5851,-2.6335,-2.655,-2.6442,-2.4587,-2.3639,-2.3422,-2.3463,0.0,0.0,0.0,0.0,0.0,0.0,0.0,0.0,0.0,0.0,0.0,0.0,0.0,0.0,0.0,0.0,0.0,0.0,0.0,0.0,0.0,0.0,0.0,0.0,0.0,0.0,0.0,0.0,0.0,0.0,0.0,0.0,0.0,0.0,0.0,0.0,0.0,0.0,-2.4301,-2.477,-2.5175,-2.548,-2.4661,0.0,0.0,0.0,0.0,0.0,0.0,0.0,0.0,0.0,0.0,0.0,0.0,0.0,0.0,0.0,0.0,0.0,0.0,0.0,0.0,0.0,0.0,0.0,0.0,0.0,0.0,0.0,0.0,0.0,0.0,0.0,0.0,0.0,0.0,0.0,0.0,0.0,0.0,0.0,0.0,0.0,0.0,0.0,-2.4117,-2.3315,0.0,0.0,0.0,0.0,0.0,0.0,0.0,0.0,0.0,0.0,0.0,0.0,0.0,-2.5291,-2.6631,-2.6858,-2.6889,-2.6791,-2.738,-2.7261,-2.6493,-2.6962,-2.7171,-2.7139,-2.6464,0.0,-2.4321,-2.4523,0.0,0.0,0.0,0.0,0.0,0.0,0.0,0.0,0.0,0.0,0.0,0.0,0.0,0.0,0.0,0.0,0.0,0.0,0.0,0.0,0.0,0.0,0.0,0.0,0.0,0.0,0.0,0.0,0.0,0.0,0.0,0.0,0.0,0.0,0.0,0.0,-2.3908,-2.4399,-2.4931,-2.5906,-2.6485,-2.6704,-2.6824,-2.6145,-2.476,-2.4334,0.0,0.0,0.0,0.0,0.0,0.0,0.0,0.0,0.0,0.0,0.0,0.0,0.0,0.0,0.0,0.0,0.0,0.0,0.0,0.0,0.0,0.0,0.0,0.0,0.0,0.0,0.0,0.0,0.0,0.0,0.0,0.0,0.0,0.0,0.0,0.0,0.0,0.0,0.0,-2.3597,-2.3604,-2.3084,-2.3287,-2.3275,0.0,0.0,0.0,0.0,0.0,0.0,0.0,0.0,0.0,-2.5709,-2.6194,-2.6547,-2.6757,-2.7086,-2.737,-2.7577,-2.7788,-2.7841,-2.7728,-2.7935,-2.8017,-2.8007,-2.78,-2.7096,-2.6009,-2.5332,-2.49,-2.464,0.0,0.0,0.0,0.0,-2.5124,-2.546,0.0,0.0,0.0,0.0,0.0,0.0,0.0,0.0,0.0,0.0,0.0,0.0,0.0,0.0,0.0,-2.4079,0.0,0.0,0.0,0.0,0.0,0.0,0.0,0.0,0.0,0.0,0.0,0.0,-2.4672,-2.5338,-2.5928,-2.725,-2.7938,-2.8091,-2.8811,-2.7852,-2.5557,-2.5185,-2.4541,0.0,0.0,0.0,0.0,0.0,0.0,0.0,0.0,0.0,0.0,0.0,0.0,0.0,0.0,0.0,0.0,0.0,0.0,0.0,0.0,0.0,0.0,0.0,0.0,0.0,0.0,0.0,0.0,0.0,0.0,0.0,0.0,0.0,0.0,0.0,0.0,0.0,0.0,-2.2893,-2.3251,-2.2918,-2.2994,-2.2941,0.0,0.0,0.0,0.0,0.0,0.0,-2.4797,-2.5604,-2.603,-2.6076,-2.7246,-2.76,-2.6967,-2.7423,-2.7769,-2.81,-2.8214,-2.8452,-2.8794,-2.8918,-2.897,-2.8959,-2.8835,-2.8411,-2.7676,-2.631,-2.5695,-2.5612,-2.506,-2.5185,-2.5658,-2.5704,-2.605,-2.6454,0.0,0.0,0.0,0.0,0.0,0.0,0.0,0.0,0.0,0.0,0.0,0.0,0.0,0.0,-2.4053,-2.3771,-2.3334,-2.322,0.0,0.0,0.0,0.0,0.0,0.0,0.0,0.0,0.0,-2.4454,-2.5841,-2.6944,-2.7871,-2.891,-2.962,-3.0067,-3.0122,-2.9543,-2.8497,-2.7097,-2.6223,-2.5633,0.0,0.0,0.0,0.0,0.0,0.0,0.0,0.0,0.0,0.0,0.0,0.0,0.0,0.0,0.0,0.0,0.0,0.0,0.0,0.0,0.0,0.0,0.0,0.0,0.0,0.0,0.0,0.0,0.0,0.0,0.0,0.0,0.0,0.0,0.0,0.0,0.0,0.0,0.0,-2.2606,-2.2932,0.0,0.0,0.0,0.0,-2.4363,-2.4425,-2.4828,-2.5761,-2.6273,-2.6578,-2.6573,-2.7434,-2.79,-2.7852,-2.8317,-2.8556,-2.8587,-2.9021,-2.9249,-2.929,-2.9725,-2.9922,-2.9901,-2.9466,-2.9239,-2.9094,-2.7776,-2.6687,-2.5889,-2.5858,-2.5858,-2.5858,-2.5879,-2.6024,-2.6204,0.0,0.0,0.0,0.0,0.0,0.0,0.0,0.0,0.0,0.0,0.0,0.0,0.0,-2.382,-2.3927,-2.4055,-2.4018,-2.3897,-2.3694,0.0,0.0,0.0,0.0,0.0,0.0,0.0,-2.4607,-2.5393,-2.6791,-2.7872,-2.8538,-3.0122,-3.0952,-3.1149,-3.1771,-3.1695,-3.1002,-2.8877,-2.737,-2.6267,-2.512,-2.4377,0.0,0.0,0.0,0.0,0.0,0.0,0.0,0.0,0.0,0.0,0.0,0.0,0.0,0.0,0.0,0.0,0.0,0.0,0.0,0.0,0.0,0.0,0.0,0.0,0.0,0.0,0.0,0.0,0.0,0.0,0.0,0.0,0.0,0.0,0.0,0.0,0.0,-2.3743,-2.3918,0.0,-2.4861,-2.4664,-2.4881,-2.5782,-2.5844,-2.6237,-2.7148,-2.7355,-2.7572,-2.7872,-2.8773,-2.9259,-2.9259,-2.9715,-2.9942,-2.9953,-3.0118,-3.0191,-3.0212,-3.0677,-3.0884,-3.0853,-3.0398,-3.0025,-2.9684,-2.8897,-2.7959,-2.6967,-2.6721,-2.6609,-2.6591,-2.6592,-2.6925,-2.7321,0.0,0.0,0.0,0.0,0.0,0.0,0.0,0.0,0.0,0.0,0.0,-2.3179,-2.3747,-2.3853,-2.3963,-2.4077,-2.4194,-2.4093,-2.3716,0.0,0.0,0.0,0.0,0.0,0.0,-2.4628,-2.5513,-2.6627,-2.8023,-2.9095,-2.9762,-3.1203,-3.1957,-3.2143,-3.2776,-3.2949,-3.2503,-3.0947,-2.9194,-2.749,-2.6354,-2.571,-2.5284,0.0,0.0,0.0,0.0,0.0,0.0,0.0,0.0,0.0,0.0,0.0,0.0,0.0,0.0,0.0,0.0,0.0,0.0,0.0,0.0,0.0,0.0,0.0,0.0,0.0,0.0,0.0,0.0,0.0,0.0,0.0,0.0,0.0,0.0,0.0,-2.4157,-2.4859,-2.5264,-2.5689,-2.6335,-2.6082,-2.6227,-2.6972,-2.7024,-2.7355,-2.8121,-2.8307,-2.8597,-2.9063,-2.9829,-3.0232,-3.0232,-3.0688,-3.0843,-3.0688,-3.0843,-3.0915,-3.0936,-3.1236,-3.1381,-3.135,-3.0992,-3.0661,-3.0338,-2.9932,-2.931,-2.8513,-2.7652,-2.7315,-2.7282,-2.7127,-2.7366,-2.7732,0.0,0.0,0.0,0.0,0.0,0.0,0.0,0.0,0.0,0.0,-2.3225,-2.3476,-2.304,-2.3778,-2.4115,-2.3733,-2.3694,-2.3694,-2.3694,-2.3274,0.0,0.0,0.0,0.0,-2.4486,-2.5469,-2.666,-2.8023,-2.9521,-3.0712,-3.1589,-3.2164,-3.2645,-3.3146,-3.3157,-3.3168,-3.3168,-3.3168,-3.1812,-2.9489,-2.8003,-2.7381,-2.7097,0.0,0.0,0.0,0.0,0.0,0.0,0.0,0.0,0.0,0.0,0.0,0.0,0.0,0.0,0.0,0.0,0.0,0.0,0.0,0.0,0.0,0.0,0.0,0.0,0.0,0.0,0.0,0.0,0.0,0.0,0.0,0.0,0.0,-2.3919,-2.4705,-2.544,-2.5906,-2.6801,-2.7361,-2.7372,-2.7361,-2.7537,-2.7935,-2.7976,-2.8183,-2.8649,-2.9114,-2.957,-3.0025,-3.0491,-3.0729,-3.0729,-3.1174,-3.1174,-3.0739,-3.1184,-3.1391,-3.1402,-3.1412,-3.1422,-3.1446,-3.1238,-3.1126,-3.1137,-3.0884,-3.0675,-3.0332,-2.8663,-2.7945,-2.7921,-2.7486,-2.7367,-2.7357,0.0,0.0,0.0,0.0,0.0,0.0,0.0,0.0,0.0,0.0,-2.2775,-2.2658,-2.2966,-2.3514,-2.381,-2.3733,-2.3694,-2.3694,-2.3694,0.0,0.0,0.0,0.0,0.0,-2.4967,-2.6605,-2.7818,-2.856,-3.0002,-3.1018,-3.164,-3.2481,-3.3136,-3.3606,-3.3967,-3.413,-3.413,-3.413,-3.3541,-3.2416,-3.0275,-2.9008,-2.8167,0.0,0.0,0.0,0.0,0.0,0.0,0.0,0.0,0.0,0.0,0.0,0.0,0.0,0.0,0.0,0.0,0.0,0.0,0.0,0.0,0.0,0.0,0.0,0.0,0.0,0.0,0.0,0.0,0.0,0.0,0.0,0.0,-2.4861,-2.4861,-2.5627,-2.662,-2.7728,-2.809,-2.838,-2.8711,-2.8442,-2.8431,-2.8887,-2.9239,-2.9622,-3.0087,-3.0553,-3.0864,-3.0998,-3.1433,-3.1616,-3.1616,-3.1795,-3.1795,-3.1616,-3.1795,-3.1857,-3.1868,-3.2209,-3.2364,-3.2333,-3.1923,-3.1694,-3.1566,-3.12,-3.0894,-3.0675,-3.0005,-2.9503,-2.9026,-2.8716,-2.8412,-2.8113,0.0,0.0,0.0,0.0,0.0,0.0,0.0,0.0,0.0,0.0,-2.3189,-2.296,-2.3531,-2.3654,-2.3607,-2.34,-2.3575,-2.3607,-2.3438,0.0,0.0,0.0,0.0,0.0,-2.6048,-2.7555,-2.868,-2.9416,-3.0592,-3.1553,-3.2241,-3.3016,-3.3628,-3.413,-3.4818,-3.5004,-3.4829,-3.5037,-3.496,-3.4567,-3.2951,-3.1607,-3.033,-2.7981,-2.7053,-2.6846,-2.5764,-2.5426,-2.536,-2.4596,0.0,0.0,0.0,0.0,0.0,0.0,0.0,0.0,0.0,0.0,0.0,0.0,0.0,0.0,0.0,0.0,0.0,0.0,0.0,0.0,0.0,0.0,0.0,0.0,-2.5892,-2.6558,-2.7148,-2.751,-2.8152,-2.9342,-2.9477,-2.9591,-2.986,-2.9642,-2.9591,-2.986,-3.0315,-3.0698,-3.0967,-3.1236,-3.1464,-3.165,-3.1909,-3.1988,-3.1988,-3.2184,-3.2173,-3.1988,-3.2184,-3.2277,-3.2277,-3.2727,-3.2898,0.0,-3.2623,-3.2372,-3.2124,-3.1764,-3.1452,0.0,0.0,0.0,0.0,0.0,-2.9139,-2.9003,0.0,0.0,0.0,0.0,0.0,0.0,0.0,0.0,0.0,0.0,0.0,-2.3827,-2.434,-2.4,-2.3547,-2.3034,-2.3394,-2.3422,0.0,0.0,0.0,0.0,0.0,0.0,-2.7272,-2.841,-2.9394,-3.0209,-3.116,-3.2121,-3.3124,-3.3508,-3.4032,-3.4644,-3.5496,-3.5659,-3.5321,-3.578,-3.6023,-3.598,-3.5474,-3.4436,-3.2906,-3.0225,-2.9372,-2.9336,-2.7523,-2.6594,-2.6136,-2.5535,0.0,0.0,0.0,0.0,0.0,0.0,0.0,0.0,0.0,0.0,0.0,0.0,0.0,0.0,0.0,0.0,0.0,0.0,0.0,0.0,0.0,0.0,0.0,0.0,-2.7531,-2.8628,-2.9963,-2.9839,-2.9901,-3.0677,-3.0719,-3.0688,-3.0688,-3.0636,-3.0626,-3.0677,-3.1112,-3.1402,-3.1454,0.0,0.0,0.0,0.0,-3.206,-3.206,-3.2463,-3.2463,-3.206,-3.2483,-3.2737,-3.2794,-3.3079,-3.3193,-3.3229,-3.329,-3.3094,-3.2674,-3.2486,-3.208,-3.1524,-3.0549,-3.0165,-3.0162,-2.9703,-2.967,-2.978,0.0,0.0,0.0,0.0,0.0,0.0,0.0,0.0,0.0,-2.5069,-2.4332,-2.3849,-2.434,-2.4175,-2.3734,-2.3038,-2.3088,-2.3099,0.0,0.0,0.0,0.0,0.0,0.0,0.0,-2.903,-3.0024,-3.0209,-3.116,-3.2121,-3.3124,-3.3169,-3.3879,-3.5081,-3.5266,-3.5528,-3.5823,-3.598,-3.6023,-3.6012,-3.5914,-3.4949,-3.3508,-3.2186,-3.1007,-2.9925,-2.879,-2.8298,-2.8059,-2.6769,-2.6594,-2.6736,-2.5786,0.0,0.0,0.0,0.0,0.0,0.0,0.0,0.0,0.0,0.0,0.0,0.0,0.0,0.0,0.0,0.0,0.0,0.0,0.0,0.0,-2.75,-2.8752,-2.9953,-3.0967,-3.134,-3.1443,-3.1267,-3.0915,-3.0688,-3.0688,-3.0346,-3.0284,-3.0657,-3.1112,-3.1536,-3.1899,-3.2261,-3.2509,-3.2535,-3.2545,-3.2545,-3.2545,-3.2628,-3.2628,-3.2545,0.0,0.0,-3.3136,-3.3193,-3.3306,-3.3512,-3.3529,-3.3377,-3.3115,-3.2739,-3.2195,-3.1524,-3.0983,-3.0758,-3.0693,-3.0237,-3.0112,-3.0101,0.0,0.0,0.0,0.0,0.0,0.0,0.0,0.0,0.0,0.0,-2.4142,-2.3691,-2.4488,-2.3514,-2.2771,-2.2568,-2.2619,0.0,0.0,0.0,0.0,0.0,0.0,0.0,0.0,0.0,-3.0209,-3.0209,-3.1411,-3.2372,-3.3135,-3.3573,-3.4294,-3.5223,-3.5725,-3.6096,-3.6347,-3.6577,-3.6675,-3.6653,-3.6424,-3.5747,-3.4753,-3.3551,-3.235,-3.1138,-2.9936,-2.9336,-2.8978,-2.7741,-2.7643,-2.7872,-2.6911,-2.6289,-2.5764,0.0,0.0,0.0,0.0,0.0,0.0,0.0,0.0,0.0,0.0,0.0,0.0,0.0,0.0,-2.5563,0.0,0.0,-2.8162,-2.8845,-2.9932,-3.0926,-3.1609,-3.2106,-3.2163,-3.1764,-3.1505,-3.1278,-3.106,-3.1019,-3.1112,-3.134,-3.1795,-3.2147,-3.2318,-3.2545,-3.2784,-3.2955,-3.2965,-3.2965,-3.2965,-3.2965,-3.2965,-3.2965,-3.2965,-3.3126,-3.3409,-3.359,-3.3692,-3.3861,-3.3963,-3.3851,-3.3519,-3.2802,-3.228,-3.1957,-3.1455,-3.1258,-3.1236,-3.1007,-3.0919,-3.0887,0.0,0.0,0.0,0.0,0.0,0.0,0.0,0.0,0.0,0.0,0.0,-2.3814,-2.4541,-2.3122,-2.2114,0.0,0.0,0.0,0.0,0.0,0.0,0.0,0.0,0.0,0.0,0.0,-3.0209,-3.0209,-3.1673,-3.2612,-3.3135,-3.3967,-3.4731,-3.5386,-3.6195,-3.6653,-3.685,-3.7221,-3.733,-3.721,-3.6839,-3.6293,-3.5539,-3.4174,-3.318,-3.2317,-3.0766,-2.9838,-2.9183,-2.8078,-2.808,-2.8388,-2.7555,-2.7315,-2.7064,-2.5819,-2.5303,0.0,0.0,0.0,0.0,0.0,0.0,0.0,0.0,0.0,-2.4997,-2.5787,-2.656,-2.7275,-2.7903,-2.8887,-2.9725,-3.018,-3.104,-3.1764,-3.207,-3.2442,-3.2504,-3.2039,-3.1988,-3.1843,-3.1536,-3.1754,-3.1895,-3.1977,-3.2328,-3.2576,-3.2727,-3.2784,-3.2908,-3.3193,-3.3193,-3.3193,-3.3193,-3.3193,-3.3193,-3.3193,-3.325,-3.342,-3.3692,-3.3974,-3.4099,-3.4058,-3.4172,-3.3967,-3.3464,-3.27,-3.2328,-3.2197,-3.1782,-3.1618,-3.1618,-3.1618,-3.1618,-3.1575,0.0,0.0,0.0,0.0,0.0,0.0,0.0,0.0,0.0,0.0,0.0,0.0,0.0,0.0,0.0,0.0,0.0,0.0,0.0,0.0,0.0,0.0,0.0,0.0,0.0,0.0,0.0,-3.0209,-3.1673,-3.2612,-3.3135,-3.3617,-3.46,-3.5947,-3.6056,-3.6511,-3.7309,-3.7352,-3.7145,-3.6773,-3.6719,-3.5889,-3.4578,-3.3541,-3.3082,-3.2743,-3.0876,-2.962,-2.8672,-2.725,-2.7097,-2.7457,-2.7348,-2.7315,-2.7206,-2.6595,0.0,-2.4432,-2.382,-2.3497,-2.3395,-2.3374,-2.4413,-2.5573,0.0,0.0,-2.7091,-2.7533,-2.7696,-2.7935,-2.8442,-2.9632,-3.0677,-3.1068,-3.1915,-3.2592,-3.2597,-3.2638,-3.2504,-3.2039,-3.1988,-3.1967,-3.1915,-3.165,-3.1619,-3.1957,-3.2039,-3.2246,-3.2659,-3.2965,-3.3136,-3.3193,-3.3193,-3.3193,-3.3193,-3.3193,-3.3193,-3.3193,-3.3466,-3.3749,-3.403,-3.4086,-3.4016,-3.3803,-3.342,-3.2962,-3.2536,-3.2427,-3.2121,-3.1695,-3.164,-3.1618,-3.1618,-3.1618,-3.1618,-3.1567,0.0,0.0,0.0,0.0,0.0,0.0,0.0,0.0,0.0,0.0,0.0,0.0,0.0,0.0,0.0,0.0,0.0,0.0,0.0,0.0,0.0,0.0,0.0,0.0,0.0,0.0,0.0,-3.0209,-3.1367,-3.2186,-3.2678,-3.3147,-3.3999,-3.5124,-3.5124,-3.5659,-3.6614,-3.6614,-3.6446,-3.6227,-3.5659,-3.4895,-3.3967,-3.27,-3.1706,-3.0799,-2.9434,-2.8506,0.0,0.0,-2.6704,-2.7315,-2.7315,-2.7315,-2.7162,-2.642,-2.5775,0.0,-2.4237,-2.4119,0.0,0.0,-2.5465,-2.6862,-2.7175,-2.8101,-2.9003,-2.9445,-2.9953,-3.0324,-3.052,-3.1298,-3.1764,0.0,-3.2137,-3.2576,-3.2308,-3.2277,-3.2101,-3.1712,-3.1412,-3.1464,-3.1936,-3.2116,-3.224,-3.237,-3.2617,-3.2757,-3.2955,-3.3296,-3.3409,-3.3409,-3.3636,-3.3646,-3.3409,-3.3646,-3.3692,-3.3759,-3.3861,-3.403,-3.43,-3.4073,-3.3726,-3.3355,-3.3212,-3.3015,-3.2818,-3.2492,-3.2263,-3.2033,-3.1738,-3.1618,-3.1618,-3.1618,-3.1618,-3.1618,0.0,0.0,0.0,0.0,0.0,0.0,0.0,0.0,0.0,0.0,0.0,0.0,0.0,0.0,0.0,0.0,0.0,0.0,0.0,0.0,0.0,0.0,0.0,0.0,0.0,0.0,0.0,0.0,-3.0963,-3.1607,-3.199,-3.2601,-3.3322,-3.413,-3.4261,-3.4786,-3.5572,-3.5572,-3.5419,-3.5159,-3.4403,-3.3595,-3.2667,-3.1345,-2.9947,-2.8615,-2.8002,-2.7359,0.0,0.0,-2.5852,-2.6529,-2.6529,-2.6715,-2.6791,-2.6103,-2.5808,-2.5472,-2.4472,0.0,0.0,-2.5392,-2.6964,-2.8551,-2.8802,-2.9922,-3.0909,-3.1019,-3.1588,-3.1961,-3.1768,-3.2099,-3.2178,-3.175,-3.2162,-3.237,-3.2039,-3.1874,-3.1692,-3.1236,-3.0781,-3.0812,-3.1588,-3.1971,-3.2271,-3.2633,-3.2891,-3.3113,-3.3296,-3.3579,-3.3749,-3.3749,-3.3974,-3.3974,-3.3749,-3.3974,-3.4086,-3.4086,-3.4199,-3.4311,-3.4502,-3.3879,-3.3333,-3.2927,-3.2732,-3.2667,-3.2645,-3.2317,-3.2175,-3.2132,-3.1771,-3.1618,-3.1618,-3.1618,-3.1618,-3.1618,0.0,0.0,0.0,0.0,0.0,0.0,0.0,0.0,0.0,0.0,0.0,0.0,0.0,0.0,0.0,0.0,0.0,0.0,0.0,0.0,0.0,0.0,0.0,0.0,0.0,0.0,0.0,0.0,-3.045,-3.0919,-3.0963,-3.1946,-3.2656,-3.319,-3.3606,-3.4098,-3.4567,-3.4567,-3.4021,-3.3212,-3.3168,-3.199,-3.022,-2.9248,-2.7981,-2.6726,-2.7184,0.0,0.0,0.0,-2.4137,-2.4574,-2.4574,-2.5207,0.0,-2.5906,-2.5568,0.0,0.0,0.0,-2.6485,-2.7294,-2.9141,-3.0895,-3.1709,-3.244,-3.2792,-3.2085,-3.1967,-3.1819,-3.125,-3.1319,-3.1657,-3.2274,-3.2145,-3.2008,-3.1988,-3.1671,-3.1226,-3.076,-3.0294,-3.0201,0.0,-3.0739,-3.1221,-3.2448,-3.2521,-3.2822,-3.3547,-3.3918,-3.4086,-3.4086,-3.4086,-3.4086,-3.4086,-3.4086,-3.4086,-3.4086,-3.4356,-3.4468,-3.4491,-3.353,-3.2895,-3.2372,-3.188,-3.1662,-3.1662,-3.1651,-3.164,-3.164,-3.1629,-3.1618,-3.1618,-3.1618,-3.1618,-3.1618,0.0,0.0,0.0,0.0,0.0,0.0,0.0,0.0,0.0,0.0,0.0,0.0,0.0,0.0,0.0,0.0,0.0,0.0,0.0,0.0,0.0,0.0,0.0,0.0,0.0,0.0,0.0,0.0,0.0,-2.8222,-2.8528,-2.9194,-2.9751,-3.028,-3.0762,-3.1378,-3.2099,-3.1793,-3.164,-3.1542,-3.0614,-2.9652,-2.8623,-2.7719,-2.6463,-2.5229,0.0,0.0,0.0,0.0,0.0,0.0,-2.3984,-2.4203,0.0,-2.4869,-2.5065,-2.5284,0.0,0.0,-2.8603,-2.9283,-3.0827,-3.2453,-3.3321,-3.3807,-3.388,-3.3372,-3.2602,-3.1839,-3.1166,-3.0569,-3.036,-3.0925,-3.1358,-3.1654,-3.1863,-3.1728,-3.128,-3.0151,-3.0208,0.0,0.0,0.0,0.0,-3.1976,-3.2632,-3.3462,-3.447,-3.4438,-3.4624,-3.519,-3.468,-3.4624,-3.5245,-3.5422,-3.5488,-3.5488,-3.4847,-3.4185,-3.3541,-3.3213,-3.2634,-3.187,-3.1695,-3.1618,-3.1618,-3.1618,-3.1618,-3.1618,-3.1618,-3.1618,-3.1618,-3.1618,-3.1618,-3.1618,0.0,0.0,0.0,0.0,0.0,0.0,0.0,0.0,0.0,0.0,0.0,0.0,0.0,0.0,0.0,0.0,0.0,0.0,0.0,0.0,0.0,0.0,0.0,0.0,0.0,0.0,0.0,0.0,0.0,-2.6518,-2.6824,-2.726,-2.7697,-2.8014,-2.8495,-2.9041,-2.9598,-2.9303,-2.9347,-2.9521,-2.8451,-2.7719,-2.7129,-2.6223,-2.5185,0.0,0.0,0.0,0.0,0.0,0.0,0.0,0.0,-2.3711,-2.4028,-2.4181,-2.5033,-2.6147,0.0,-2.8623,-3.0155,-3.1268,-3.2467,-3.3568,-3.4228,-3.4561,-3.4386,-3.3268,-3.2384,-3.1519,-3.0282,-2.956,-2.931,-2.9756,-3.0463,-3.1022,-3.119,-3.136,-3.101,-2.9854,-3.0255,0.0,0.0,0.0,0.0,-3.2382,-3.2814,-3.3693,-3.5077,-3.5098,-3.5157,-3.5356,-3.5212,-3.5157,-3.5344,-3.5904,-3.6177,-3.6177,-3.5058,-3.401,-3.3124,-3.3124,-3.2536,-3.1618,-3.1618,-3.1618,-3.1618,-3.1618,-3.1618,-3.1618,-3.1618,-3.1618,-3.1618,-3.1618,-3.1618,-3.1618,0.0,0.0,0.0,0.0,0.0,0.0,0.0,0.0,0.0,0.0,0.0,0.0,0.0,0.0,0.0,0.0,0.0,0.0,0.0,0.0,0.0,0.0,0.0,0.0,-2.364,-2.4598,-2.5248,-2.5677,-2.5677,-2.5677,-2.5688,-2.6159,-2.6399,-2.642,-2.6955,-2.7173,-2.7195,-2.7173,-2.7173,-2.7162,-2.6639,-2.6159,-2.5688,-2.476,0.0,0.0,0.0,0.0,0.0,0.0,0.0,0.0,0.0,0.0,-2.4421,-2.4011,-2.5559,-2.7643,-2.8705,-2.9797,-3.1148,-3.3181,-3.3961,-3.4339,-3.448,-3.4725,-3.4246,-3.2009,-3.1444,-3.0758,0.0,0.0,-2.8433,-2.8898,-2.9629,-3.0198,-3.0144,-3.064,-3.068,0.0,0.0,0.0,0.0,0.0,0.0,-3.3618,0.0,-3.3536,-3.5451,-3.5956,-3.5751,-3.4791,-3.5697,-3.5697,-3.468,-3.5697,-3.622,-3.6306,-3.5068,-3.3977,-3.3134,-3.3081,-3.2514,-3.1618,-3.1618,-3.1618,-3.1618,-3.1618,-3.1618,-3.1618,-3.1618,-3.1618,-3.1618,-3.1618,-3.1618,-3.1618,0.0,0.0,0.0,0.0,0.0,0.0,0.0,0.0,0.0,0.0,0.0,0.0,0.0,0.0,0.0,0.0,0.0,0.0,0.0,0.0,0.0,0.0,0.0,0.0,0.0,-2.3194,-2.3086,-2.2684,0.0,-2.2684,-2.2706,-2.3536,-2.3929,0.0,-2.4825,-2.5404,-2.5688,-2.5349,-2.5404,-2.5644,0.0,-2.4349,-2.4224,0.0,0.0,0.0,0.0,0.0,0.0,0.0,0.0,0.0,0.0,0.0,-2.4814,-2.642,-2.7883,-2.9303,-3.0996,-3.2303,-3.3427,-3.4385,-3.4497,-3.4397,-3.4774,-3.4188,-3.3312,-3.2443,-3.1459,-3.0262,0.0,0.0,0.0,-2.8495,-3.0071,0.0,-3.0931,-3.2651,0.0,0.0,0.0,-3.2851,-3.1379,-3.3181,0.0,0.0,-3.3956,-3.4449,-3.7817,-3.6844,-3.6869,-3.8283,-3.6911,-3.6491,-3.7049,-3.6491,-3.6831,-3.8113,-3.5282,-3.3896,-3.365,-3.2903,-3.2219,-3.1618,-3.1618,-3.1618,-3.1618,-3.1618,-3.1618,-3.1618,-3.1618,-3.1618,-3.1618,-3.1618,-3.1618,-3.1618,0.0,0.0,0.0,0.0,0.0,0.0,0.0,0.0,0.0,0.0,0.0,0.0,0.0,0.0,0.0,0.0,0.0,0.0,0.0,0.0,0.0,0.0,0.0,0.0,0.0,0.0,0.0,0.0,0.0,0.0,0.0,-2.2405,-2.2499,-2.2728,-2.3285,-2.3798,-2.4203,0.0,0.0,0.0,0.0,0.0,0.0,0.0,0.0,0.0,0.0,0.0,0.0,0.0,0.0,-2.4093,-2.4869,-2.5546,-2.6354,-2.7916,0.0,-3.0799,-3.2536,-3.354,-3.4415,-3.5681,-3.5397,-3.4909,-3.4958,-3.4313,-3.33,-3.1966,-3.0937,0.0,0.0,0.0,0.0,0.0,0.0,0.0,-3.14,-3.3627,-3.434,0.0,-3.4215,0.0,-3.329,-3.521,-3.6915,0.0,-3.5991,-3.6043,-3.8705,-3.8108,-3.8072,-3.8859,-3.8125,-3.7755,-3.789,-3.6274,-3.619,-3.7638,-3.5741,-3.4394,-3.3537,-3.3496,-3.2794,-3.1618,0.0,-3.1618,-3.1618,-3.1618,-3.1618,-3.164,-3.187,-3.1815,-3.1673,-3.2099,-3.2132,-3.1979,0.0,0.0,0.0,0.0,0.0,0.0,0.0,0.0,0.0,0.0,0.0,0.0,0.0,0.0,0.0,0.0,0.0,0.0,0.0,0.0,0.0,0.0,0.0,0.0,0.0,0.0,0.0,0.0,0.0,0.0,0.0,0.0,0.0,0.0,0.0,0.0,0.0,0.0,0.0,0.0,0.0,0.0,0.0,0.0,0.0,0.0,0.0,0.0,0.0,0.0,-2.4956,-2.5295,-2.5972,-2.7162,-2.8448,-2.9151,-3.0613,-3.2369,-3.3929,-3.4449,-3.4997,-3.6861,-3.6473,-3.5474,-3.493,-3.4422,-3.3418,-3.104,0.0,-2.9617,-2.8645,0.0,-2.8647,-2.9352,0.0,-3.1807,-3.1901,-3.4221,-3.5185,-3.3354,-3.6136,-3.7479,-3.5607,-3.7396,-3.8903,-3.9572,-3.844,-3.813,-3.9095,-3.9448,-3.9131,-3.8166,-3.9067,-3.9119,-3.8166,-3.6002,-3.5498,-3.6549,-3.6399,-3.5366,-3.3571,-3.4334,-3.3679,-3.1911,-3.1702,0.0,-3.1618,-3.1618,-3.1618,-3.1662,-3.211,-3.2012,-3.1728,-3.2569,-3.2667,-3.2437,0.0,0.0,0.0,0.0,0.0,0.0,0.0,0.0,0.0,0.0,-2.2361,-2.2509,0.0,0.0,0.0,0.0,0.0,0.0,0.0,0.0,0.0,0.0,0.0,0.0,0.0,0.0,0.0,0.0,0.0,0.0,0.0,0.0,0.0,0.0,0.0,0.0,0.0,0.0,0.0,0.0,0.0,0.0,0.0,0.0,0.0,0.0,0.0,0.0,0.0,0.0,-2.5761,-2.5511,-2.714,-2.8667,-3.0251,-3.1925,-3.3219,-3.4514,-3.6561,-3.6913,-3.694,-3.767,-3.6849,-3.5577,-3.4384,-3.2904,0.0,0.0,0.0,-2.9806,-2.8912,-2.9443,0.0,-3.0417,0.0,0.0,0.0,0.0,-3.6972,0.0,0.0,0.0,0.0,0.0,0.0,0.0,0.0,-4.069,-4.0854,-4.0033,-3.9494,-3.9339,-3.9494,-3.9494,-3.9339,-3.7954,-3.7685,-3.8359,-3.7432,-3.6578,-3.5691,-3.469,-3.4016,-3.3578,-3.2203,0.0,-3.1618,-3.1618,-3.1618,-3.1629,-3.1717,-3.1695,-3.164,-3.1815,-3.2088,-3.2394,0.0,0.0,0.0,0.0,0.0,0.0,0.0,0.0,-2.2023,-2.2644,-2.2721,-2.2729,-2.2753,-2.2984,0.0,0.0,0.0,0.0,0.0,0.0,0.0,0.0,0.0,0.0,0.0,0.0,0.0,0.0,0.0,0.0,0.0,0.0,0.0,0.0,0.0,0.0,0.0,0.0,0.0,0.0,0.0,0.0,0.0,0.0,0.0,0.0,0.0,0.0,0.0,0.0,-2.6511,-2.6777,-2.9134,-3.0376,-3.139,-3.334,-3.4422,-3.5392,-3.7278,-3.7684,-3.7844,-3.8899,-3.7599,-3.5868,-3.5236,0.0,0.0,0.0,0.0,-3.0069,-2.9943,0.0,0.0,0.0,0.0,0.0,0.0,0.0,0.0,0.0,0.0,0.0,0.0,0.0,0.0,0.0,0.0,-4.1311,-4.1311,-4.0782,-4.0453,-4.0453,-3.9917,-3.9609,-3.9609,-3.8481,-3.8032,-3.831,-3.7576,-3.6598,-3.5498,-3.4507,-3.364,-3.2768,-3.1922,0.0,-3.1618,-3.1618,-3.1618,-3.1651,-3.1913,-3.1859,-3.1684,-3.2186,-3.2383,-3.2416,0.0,0.0,0.0,0.0,0.0,0.0,0.0,-2.2478,-2.2423,-2.3046,-2.2997,-2.2919,-2.2996,-2.2686,-2.3024,0.0,0.0,0.0,0.0,0.0,0.0,0.0,0.0,0.0,0.0,0.0,0.0,0.0,0.0,0.0,0.0,0.0,0.0,0.0,0.0,0.0,0.0,0.0,0.0,0.0,0.0,0.0,0.0,0.0,0.0,0.0,0.0,0.0,0.0,0.0,-2.7102,-2.7729,-3.056,-3.166,-3.2172,-3.379,-3.4909,-3.5947,-3.7441,-3.7983,-3.8428,-3.952,-3.8035,-3.6184,-3.5544,-3.3443,0.0,0.0,-3.0268,-3.0192,-3.0555,0.0,0.0,0.0,0.0,0.0,0.0,0.0,0.0,0.0,0.0,0.0,0.0,0.0,0.0,0.0,0.0,0.0,-4.1311,-4.1311,-4.1311,-4.1311,-4.0453,-3.9968,-3.9968,-3.9067,-3.8481,-3.8259,-3.8008,-3.6967,-3.5311,-3.4706,-3.3599,-3.213,-3.1775,0.0,0.0,-3.1618,-3.1618,-3.1662,-3.2066,-3.1979,-3.1717,-3.2481,-3.2601,-3.2416,0.0,0.0,0.0,0.0,0.0,0.0,0.0,-2.2379,-2.2385,-2.2849,-2.2557,-2.2303,-2.2383,-2.2822,-2.2957,0.0,0.0,0.0,0.0,0.0,0.0,0.0,0.0,0.0,0.0,0.0,0.0,0.0,0.0,0.0,0.0,0.0,0.0,0.0,0.0,0.0,0.0,0.0,0.0,0.0,0.0,0.0,0.0,0.0,0.0,0.0,0.0,0.0,0.0,0.0,0.0,-2.7253,-3.0139,-3.1841,-3.2823,-3.2997,0.0,0.0,-3.7659,-3.8608,-3.9145,-3.8303,-3.7541,-3.6225,-3.3626,0.0,0.0,0.0,-2.9431,-2.9957,-2.9523,-3.0281,0.0,0.0,0.0,0.0,0.0,0.0,0.0,0.0,0.0,0.0,0.0,0.0,0.0,0.0,0.0,0.0,-4.1311,-4.1311,-4.1311,-4.1311,-4.1211,-4.1147,-4.1147,-4.1047,-4.0465,-3.9442,-3.9863,-3.9007,-3.6932,-3.5951,-3.4872,-3.3799,-3.2265,0.0,0.0,-3.1618,-3.1618,-3.1578,-3.1673,-3.1662,-3.1589,-3.1728,-3.2022,-3.2328,0.0,0.0,0.0,0.0,0.0,0.0,-2.267,-2.2854,-2.3155,-2.3458,-2.3294,-2.3065,-2.2874,-2.2725,-2.27,0.0,0.0,0.0,0.0,0.0,0.0,0.0,0.0,0.0,0.0,0.0,0.0,0.0,0.0,0.0,0.0,0.0,0.0,0.0,0.0,0.0,0.0,0.0,0.0,0.0,0.0,0.0,0.0,0.0,0.0,0.0,0.0,0.0,0.0,0.0,0.0,0.0,-2.8542,-2.9738,0.0,0.0,-3.4012,-3.5691,-3.6994,-3.8186,-3.8917,-3.8465,-3.7168,-3.5587,-3.4071,0.0,0.0,-2.9954,-2.9771,-2.9758,-3.0228,-3.0673,-3.1065,0.0,0.0,0.0,0.0,0.0,0.0,0.0,0.0,0.0,0.0,0.0,0.0,0.0,0.0,0.0,-4.1311,-4.1311,-4.1311,-4.1311,-4.1311,-4.1311,-4.1311,-4.1311,-4.1047,-4.0605,-3.948,-3.849,-3.7641,-3.5903,-3.4892,-3.4447,-3.3142,0.0,0.0,-3.1874,-3.1618,-3.1618,-3.1618,-3.1618,-3.1618,-3.1618,-3.176,-3.1859,0.0,0.0,0.0,0.0,0.0,-2.3577,-2.2913,-2.326,-2.365,-2.3797,-2.3649,-2.3371,-2.295,-2.2648,-2.2534,-2.2658,0.0,0.0,0.0,0.0,0.0,0.0,0.0,0.0,0.0,0.0,0.0,0.0,0.0,0.0,0.0,0.0,0.0,0.0,0.0,0.0,0.0,0.0,0.0,0.0,0.0,0.0,0.0,0.0,0.0,0.0,0.0,0.0,0.0,0.0,0.0,0.0,0.0,0.0,0.0,0.0,-3.2738,-3.4201,-3.5613,-3.6828,-3.7652,-3.7482,-3.6109,-3.4502,0.0,0.0,0.0,-3.015,-2.998,-2.998,-3.062,-3.0869,-3.0986,0.0,0.0,0.0,0.0,0.0,0.0,0.0,0.0,0.0,0.0,0.0,0.0,0.0,0.0,0.0,0.0,-4.1141,-4.105,-4.105,-4.105,-4.0971,-4.0814,-4.0814,-4.0814,-4.0801,-3.9028,-3.8056,-3.7737,-3.6013,-3.4921,-3.4288,-3.3549,0.0,0.0,-3.1924,-3.1618,-3.1618,-3.1618,-3.1618,-3.1607,-3.1465,-3.14,-3.1323,0.0,0.0,0.0,0.0,0.0,0.0,0.0,-2.3485,-2.3595,-2.361,-2.3194,-2.2723,-2.2254,-2.2609,-2.2495,-2.1509,0.0,0.0,0.0,0.0,0.0,0.0,0.0,0.0,0.0,0.0,-2.4677,-2.4778,-2.4478,0.0,0.0,0.0,0.0,0.0,0.0,0.0,0.0,0.0,0.0,0.0,0.0,0.0,0.0,0.0,0.0,0.0,0.0,0.0,0.0,0.0,0.0,0.0,0.0,0.0,0.0,0.0,-3.0921,-3.2842,-3.3456,-3.4463,-3.5195,-3.4593,-3.4018,-3.3012,0.0,0.0,0.0,-2.88,-2.9771,-3.079,-3.0218,-3.0607,-3.0986,-3.0986,0.0,0.0,0.0,0.0,0.0,0.0,0.0,0.0,0.0,0.0,0.0,0.0,0.0,0.0,0.0,-4.0749,-4.0422,-4.0422,-4.0422,-4.0161,-3.9638,-3.9625,-3.9625,-3.9625,-3.9011,-3.8179,-3.7172,-3.6571,-3.515,0.0,0.0,0.0,0.0,-3.1618,-3.1618,-3.1618,-3.1618,-3.1618,-3.1564,-3.1083,-3.0898,-3.0766,0.0,0.0,0.0,0.0,0.0,0.0,0.0,-2.3733,-2.3973,-2.3638,-2.3465,-2.3068,-2.2301,-2.2333,-2.2147,-2.1471,0.0,0.0,0.0,0.0,0.0,0.0,0.0,0.0,0.0,0.0,-2.3993,-2.4316,-2.4216,-2.4249,-2.4446,-2.4123,0.0,0.0,0.0,0.0,0.0,0.0,0.0,0.0,0.0,0.0,0.0,0.0,0.0,0.0,0.0,0.0,0.0,0.0,0.0,0.0,0.0,0.0,0.0,0.0,0.0,0.0,-3.1653,-3.2646,-3.3378,-3.275,-3.2489,-3.1954,-3.044,0.0,0.0,-2.9614,-2.9706,-3.0006,-3.0607,-3.0869,-3.0986,-3.0986,-3.0986,0.0,0.0,0.0,0.0,0.0,0.0,0.0,0.0,0.0,0.0,0.0,0.0,0.0,0.0,-3.9965,-4.003,-4.0409,-4.0056,-3.9782,-3.9612,-3.9612,-3.9612,-3.9599,-3.8998,-3.8509,-3.82,-3.7658,-3.7015,0.0,0.0,0.0,0.0,-3.3001,-3.2258,-3.1586,-3.1258,-3.1127,-3.1061,-3.0603,-3.0428,-3.0341,0.0,0.0,0.0,0.0,0.0,0.0,0.0,-2.404,-2.4198,-2.3909,-2.3702,-2.3377,-2.2799,-2.2563,-2.2263,-2.1746,0.0,0.0,0.0,0.0,0.0,0.0,0.0,0.0,0.0,-2.3327,-2.3533,-2.3872,-2.4037,-2.423,-2.4426,-2.4217,-2.423,-2.4426,0.0,0.0,0.0,0.0,0.0,0.0,0.0,0.0,-2.749,0.0,0.0,0.0,0.0,0.0,0.0,0.0,0.0,0.0,0.0,0.0,0.0,0.0,-2.8273,0.0,0.0,-3.1026,-3.164,-3.1249,-3.1158,0.0,0.0,0.0,0.0,0.0,-2.9719,-3.0072,-3.0568,-3.0843,-3.0986,-3.0986,-3.0986,0.0,0.0,0.0,0.0,0.0,0.0,0.0,0.0,0.0,0.0,0.0,0.0,0.0,0.0,-3.939,-3.9416,-3.9756,-3.9442,-3.9168,-3.8972,-3.8972,-3.8972,-3.8958,-3.8593,-3.8292,-3.807,-3.7952,-3.7527,0.0,0.0,0.0,0.0,-3.3648,-3.2698,-3.1856,-3.1157,-3.0788,-3.0581,-3.0111,-2.9936,-2.9871,0.0,0.0,0.0,0.0,0.0,0.0,0.0,0.0,-2.4287,-2.4241,-2.39,-2.3653,-2.3595,-2.3179,-2.2709,-2.224,0.0,0.0,0.0,0.0,0.0,0.0,0.0,0.0,0.0,-2.2969,-2.3229,-2.3474,-2.3843,-2.4347,-2.4926,-2.436,-2.44,-2.4913,-2.4347,-2.4083,-2.4161,-2.5219,-2.5715,-2.5884,-2.6942,-2.7425,0.0,0.0,0.0,0.0,0.0,0.0,0.0,0.0,0.0,0.0,0.0,0.0,0.0,0.0,0.0,0.0,0.0,0.0,0.0,0.0,0.0,0.0,0.0,0.0,0.0,0.0,0.0,0.0,0.0,-3.062,-3.0986,-3.0986,0.0,0.0,0.0,0.0,0.0,0.0,0.0,0.0,0.0,0.0,0.0,0.0,0.0,0.0,0.0,-3.8958,-3.8658,-3.8658,-3.8658,-3.841,-3.7913,-3.79,-3.79,-3.79,-3.79,-3.7586,-3.7024,-3.7625,-3.7005,0.0,0.0,0.0,0.0,-3.363,-3.286,-3.2239,-3.1197,-3.0537,-3.01,-2.9609,-2.9434,-2.9416,0.0,0.0,0.0,0.0,0.0,0.0,0.0,0.0,0.0,0.0,-2.3876,-2.3994,-2.3653,-2.3179,-2.2709,0.0,0.0,0.0,0.0,0.0,0.0,0.0,0.0,0.0,0.0,-2.2023,-2.2443,-2.328,-2.3367,-2.3733,-2.4321,-2.4178,-2.4191,-2.4321,-2.4178,-2.4083,-2.4109,-2.437,-2.4997,-2.5819,-2.608,-2.672,0.0,0.0,0.0,0.0,-2.749,-2.749,0.0,0.0,0.0,0.0,0.0,0.0,0.0,0.0,-2.749,-2.7555,-2.7842,0.0,-2.8103,-2.8103,0.0,0.0,0.0,0.0,0.0,0.0,0.0,0.0,0.0,0.0,0.0,0.0,0.0,0.0,0.0,0.0,0.0,0.0,0.0,0.0,0.0,0.0,0.0,0.0,0.0,0.0,0.0,-3.8174,-3.8096,-3.8096,-3.8096,-3.8031,-3.79,-3.79,-3.79,-3.79,-3.79,-3.7586,-3.7024,-3.7625,-3.7176,0.0,0.0,0.0,-3.3573,-3.3279,-3.2223,-3.0672,-3.0055,-2.9751,-2.9598,-2.9153,-2.8967,-2.8957,0.0,0.0,0.0,0.0,0.0,0.0,0.0,0.0,0.0,0.0,0.0,0.0,0.0,0.0,0.0,0.0,0.0,0.0,0.0,0.0,0.0,0.0,0.0,0.0,-2.1336,-2.151,-2.2022,-2.2818,-2.3093,-2.3655,-2.4504,-2.4243,-2.4256,-2.4491,-2.423,-2.4083,-2.4109,-2.44,-2.487,-2.5471,-2.6007,0.0,0.0,0.0,0.0,0.0,-2.7131,-2.7301,0.0,-2.749,-2.749,-2.749,0.0,0.0,0.0,0.0,-2.749,-2.749,-2.749,-2.749,-2.7555,-2.785,-2.7954,-2.8046,0.0,0.0,0.0,0.0,0.0,0.0,0.0,0.0,0.0,0.0,0.0,0.0,0.0,0.0,0.0,0.0,0.0,0.0,0.0,0.0,0.0,0.0,0.0,0.0,-3.79,-3.79,-3.79,-3.79,-3.7639,-3.7495,-3.7495,-3.7495,-3.7351,-3.7077,-3.7077,-3.6776,-3.624,-3.6815,-3.6593,0.0,0.0,0.0,-3.447,-3.4028,-3.3056,-3.1786,-3.0586,-3.0021,-2.974,-2.9031,-2.8803,-2.8803,0.0,0.0,0.0,0.0,0.0,0.0,0.0,0.0,0.0,0.0,0.0,0.0,0.0,0.0,0.0,0.0,0.0,0.0,0.0,0.0,0.0,0.0,0.0,-2.0985,-2.0901,-2.1222,-2.1734,-2.2388,-2.2858,-2.3694,-2.4861,-2.4347,-2.4374,-2.4848,-2.4334,-2.4083,-2.4122,-2.4635,-2.4926,-2.5083,-2.6052,0.0,0.0,0.0,0.0,0.0,0.0,0.0,0.0,-2.7438,-2.7438,-2.7385,-2.7464,0.0,0.0,0.0,0.0,0.0,-2.749,-2.749,-2.7633,-2.8242,-2.802,-2.7941,0.0,0.0,0.0,0.0,0.0,0.0,0.0,0.0,0.0,0.0,0.0,0.0,0.0,0.0,0.0,0.0,0.0,0.0,0.0,0.0,0.0,0.0,0.0,-3.7769,-3.7769,-3.7678,-3.7625,-3.7625,-3.7129,-3.6828,-3.6737,-3.6828,-3.6606,-3.6109,-3.6109,-3.5822,-3.5312,-3.5861,-3.5757,-3.5195,0.0,0.0,-3.5574,-3.4724,-3.3958,-3.318,-3.1445,-3.0457,-2.9909,-2.9106,-2.8803,-2.8803,0.0,0.0,0.0,0.0,0.0,0.0,0.0,0.0,0.0,0.0,0.0,0.0,0.0,0.0,0.0,0.0,0.0,0.0,0.0,0.0,0.0,0.0,-2.0985,-2.0985,-2.0901,-2.0955,-2.1457,-2.2388,-2.2479,-2.3119,-2.4243,-2.4122,-2.4164,-2.4243,-2.4122,-2.4083,-2.4096,-2.4217,-2.4517,-2.5018,-2.5188,0.0,0.0,0.0,0.0,0.0,0.0,0.0,0.0,-2.7163,-2.721,-2.6883,-2.7346,0.0,0.0,0.0,0.0,0.0,-2.749,-2.749,-2.7633,-2.8242,-2.8307,-2.8425,0.0,0.0,0.0,0.0,0.0,0.0,0.0,0.0,0.0,0.0,0.0,0.0,0.0,0.0,0.0,0.0,0.0,0.0,0.0,0.0,0.0,0.0,0.0,0.0,-3.7142,-3.6658,-3.6384,-3.6384,-3.6292,-3.6018,-3.5574,-3.6018,-3.6188,-3.6109,-3.6109,-3.5822,-3.5312,-3.5861,-3.5534,-3.4567,0.0,-3.4676,-3.346,-3.3287,-3.2267,-3.0738,-3.0421,-2.9794,-2.9024,-2.885,-2.8803,-2.8803,0.0,0.0,0.0,0.0,0.0,0.0,0.0,0.0,0.0,0.0,0.0,0.0,0.0,0.0,0.0,0.0,0.0,0.0,0.0,0.0,0.0,-2.08,-2.0823,-2.0823,-2.08,-2.1077,-2.1616,-2.2388,-2.2688,-2.3289,-2.4083,-2.4083,-2.4083,-2.4083,-2.4083,-2.4083,-2.4083,-2.4083,-2.4269,-2.453,0.0,0.0,0.0,0.0,0.0,0.0,0.0,0.0,0.0,0.0,-2.6634,-2.6745,-2.6987,0.0,0.0,0.0,0.0,0.0,-2.749,-2.749,-2.7712,-2.8634,-2.8656,-2.8734,-2.9928,0.0,0.0,0.0,0.0,0.0,0.0,0.0,0.0,0.0,0.0,0.0,0.0,0.0,0.0,0.0,0.0,0.0,0.0,0.0,0.0,0.0,0.0,0.0,-3.6515,-3.6253,-3.6109,-3.6109,-3.5822,-3.5547,-3.5299,-3.5221,-3.5182,-3.5182,-3.5182,-3.5051,-3.4816,-3.5064,-3.4894,-3.441,0.0,-3.4435,-3.3742,-3.3742,-3.325,-3.2376,-3.1356,-3.0699,-3.017,-2.9152,-2.8803,-2.8803,0.0,0.0,0.0,0.0,0.0,0.0,0.0,0.0,0.0,0.0,0.0,0.0,0.0,0.0,0.0,0.0,0.0,0.0,0.0,0.0,-2.0699,-2.0699,-2.0699,-2.0699,-2.0699,-2.1224,-2.1799,-2.2388,-2.2936,-2.3496,-2.4083,-2.4083,-2.4083,-2.4083,-2.4083,-2.4083,-2.4083,-2.4083,-2.4083,-2.4122,0.0,0.0,0.0,0.0,0.0,0.0,0.0,0.0,0.0,0.0,0.0,0.0,0.0,0.0,0.0,-2.749,-2.749,-2.749,-2.749,-2.749,-2.7751,-2.8817,0.0,-2.9048,-3.062,0.0,0.0,0.0,0.0,0.0,0.0,0.0,0.0,0.0,0.0,0.0,0.0,0.0,0.0,0.0,0.0,0.0,0.0,0.0,0.0,0.0,0.0,0.0,-3.5913,-3.5783,-3.5704,-3.5704,-3.5299,-3.509,-3.509,-3.4633,-3.4397,-3.4397,-3.4397,-3.4397,-3.4397,-3.4397,-3.4397,-3.4397,-3.4397,-3.4397,-3.4397,-3.4397,-3.4134,-3.3602,-3.2147,-3.1311,-3.0789,-2.9325,-2.8803,-2.8803,0.0,0.0,0.0,0.0,0.0,0.0,0.0,0.0,0.0,0.0,0.0,0.0,0.0,0.0,0.0,0.0,0.0,0.0,0.0,0.0,-2.0699,-2.0699,-2.0699,-2.0699,-2.0699,-2.1224,-2.1799,-2.2388,-2.2936,-2.3496,-2.4083,-2.4083,-2.4083,-2.4083,-2.4083,-2.4083,-2.4083,-2.4083,-2.4083,-2.4083,-2.4164,0.0,0.0,0.0,0.0,0.0,0.0,0.0,0.0,0.0,0.0,0.0,0.0,0.0,-2.749,-2.749,-2.749,-2.749,-2.749,-2.749,-2.7646,-2.8294,0.0,0.0,-3.0712,0.0,0.0,0.0,0.0,0.0,0.0,0.0,0.0,0.0,0.0,0.0,0.0,0.0,0.0,0.0,0.0,0.0,0.0,0.0,0.0,0.0,0.0,0.0,-3.5351,-3.4829,-3.4515,-3.4515,-3.4476,-3.4463,-3.4463,-3.441,-3.4397,-3.4397,-3.4397,-3.4397,-3.4397,-3.4397,-3.4397,-3.4397,-3.4397,-3.4397,-3.4397,-3.4397,-3.3377,-3.1797,-3.1665,-3.0519,-2.8978,-2.885,-2.8803,-2.8803,0.0,0.0,0.0,0.0,0.0,0.0,0.0,0.0,0.0,0.0,0.0,0.0,0.0,0.0,0.0,0.0,0.0,0.0,0.0,0.0,-2.0699,-2.0699,-2.0699,-2.0699,-2.0699,-2.1224,-2.1799,-2.2387,-2.3315,-2.389,-2.4083,-2.4083,-2.4083,-2.4083,-2.4083,-2.4083,-2.4083,-2.4083,-2.4083,-2.4083,-2.4083,-2.4083,0.0,0.0,0.0,0.0,0.0,0.0,0.0,0.0,-2.5406,-2.5871,0.0,-2.6929,-2.749,-2.749,-2.749,-2.749,-2.749,-2.7785,-2.819,-2.8826,0.0,0.0,0.0,0.0,0.0,0.0,0.0,0.0,0.0,0.0,0.0,0.0,0.0,0.0,0.0,0.0,0.0,0.0,0.0,0.0,0.0,0.0,0.0,0.0,0.0,0.0,0.0,-3.4515,-3.4397,-3.4397,-3.4397,-3.4397,-3.4397,-3.4397,-3.4397,-3.4397,-3.4397,-3.4397,-3.4397,-3.4397,-3.4397,-3.4397,-3.4397,-3.4397,-3.4397,-3.4397,-3.3995,-3.325,-3.2059,-3.0833,-2.96,-2.9024,-2.8803,-2.8803,0.0,0.0,0.0,0.0,0.0,0.0,0.0,0.0,0.0,0.0,0.0,0.0,0.0,0.0,0.0,0.0,0.0,0.0,-2.0712,-2.0699,-2.0699,-2.0699,-2.0699,-2.0699,-2.0699,-2.1066,-2.1629,-2.2413,-2.3535,-2.3992,-2.3809,-2.3992,-2.4083,-2.4083,-2.4083,-2.4083,-2.4083,-2.4083,-2.4083,-2.4083,-2.4083,-2.4083,0.0,0.0,0.0,0.0,0.0,0.0,0.0,0.0,-2.4896,0.0,0.0,0.0,0.0,0.0,-2.749,-2.749,-2.749,-2.7811,-2.8255,0.0,0.0,0.0,0.0,0.0,0.0,0.0,0.0,0.0,0.0,0.0,0.0,0.0,0.0,0.0,0.0,0.0,0.0,0.0,0.0,0.0,0.0,0.0,0.0,0.0,0.0,0.0,0.0,-3.4241,-3.4228,-3.4384,-3.4045,-3.3953,-3.4136,-3.4149,-3.4045,-3.3862,-3.4058,-3.4241,-3.4384,-3.4214,-3.4241,-3.4384,-3.4214,-3.4241,-3.4397,-3.4397,-3.4037,-3.3335,-3.1797,-3.0564,-2.9681,-2.9024,-2.8803,-2.8781,0.0,0.0,0.0,0.0,0.0,0.0,0.0,0.0,0.0,0.0,0.0,0.0,0.0,0.0,0.0,0.0,0.0,0.0,-2.0699,-2.0699,-2.0699,-2.0699,-2.0699,-2.0699,-2.0699,-2.0712,-2.1263,-2.24,-2.3537,-2.377,-2.3195,-2.3796,-2.4083,-2.4083,-2.4083,-2.4083,-2.4083,-2.4083,-2.4083,-2.4083,-2.4083,-2.4083,-2.4083,0.0,0.0,0.0,0.0,0.0,0.0,0.0,-2.4992,0.0,0.0,0.0,0.0,-2.732,-2.749,-2.749,-2.749,-2.7503,0.0,0.0,0.0,0.0,0.0,0.0,0.0,0.0,0.0,0.0,0.0,0.0,0.0,0.0,0.0,0.0,0.0,0.0,0.0,0.0,0.0,0.0,0.0,0.0,0.0,0.0,0.0,0.0,0.0,-3.3875,-3.3822,-3.4358,-3.3287,-3.2986,-3.3574,-3.3587,-3.3287,-3.2698,-3.33,-3.3862,-3.4358,-3.3835,-3.3888,-3.4358,-3.3835,-3.3901,-3.4397,-3.4397,-3.3292,-3.1533,-3.0609,-2.9635,-2.885,-2.8792,-2.8792,-2.8727,0.0,0.0,0.0,0.0,0.0,0.0,0.0,0.0,0.0,0.0,0.0,0.0,0.0,0.0,0.0,0.0,0.0,0.0,-2.0838,-2.0838,-2.0838,-2.0838,-2.0838,-2.08,-2.0699,-2.108,-2.1433,-2.1786,-2.2518,-2.3001,-2.3182,-2.3365,-2.3678,-2.4083,-2.4083,-2.4083,-2.4083,-2.4083,-2.4083,-2.4083,-2.4083,-2.4083,-2.4083,0.0,0.0,0.0,0.0,0.0,0.0,0.0,0.0,0.0,0.0,0.0,0.0,-2.732,-2.749,-2.749,-2.749,-2.8124,0.0,0.0,0.0,0.0,0.0,0.0,0.0,0.0,0.0,0.0,0.0,0.0,0.0,0.0,0.0,0.0,0.0,0.0,0.0,0.0,0.0,0.0,0.0,0.0,0.0,0.0,0.0,0.0,0.0,-3.3273,-3.3038,-3.3195,-3.2868,-3.2777,-3.296,-3.296,-3.2868,-3.2685,-3.2868,-3.3038,-3.3208,-3.347,-3.3679,-3.3849,-3.4071,-3.4241,-3.4397,-3.4397,-3.4092,-3.3475,-3.255,-3.1621,-3.0652,-2.9657,-2.8823,-2.8178,0.0,0.0,0.0,0.0,0.0,0.0,0.0,0.0,0.0,0.0,0.0,0.0,0.0,0.0,0.0,0.0,0.0,0.0,0.0,0.0,-2.0901,-2.0901,-2.0838,-2.0775,-2.0699,-2.1027,-2.1172,-2.1172,-2.1995,-2.2571,-2.2882,-2.3091,-2.3509,-2.4083,-2.4083,-2.4083,-2.4083,-2.4083,-2.4243,-2.4452,-2.4452,-2.4452,-2.4452,0.0,0.0,0.0,0.0,0.0,0.0,0.0,0.0,0.0,0.0,0.0,0.0,-2.7255,-2.749,-2.7542,-2.7798,0.0,0.0,0.0,0.0,0.0,0.0,0.0,0.0,0.0,0.0,0.0,0.0,0.0,0.0,0.0,0.0,0.0,0.0,0.0,0.0,0.0,0.0,0.0,0.0,0.0,0.0,0.0,0.0,0.0,0.0,-3.2672,-3.245,-3.2685,-3.2254,-3.2123,-3.2346,-3.2346,-3.2241,-3.2019,-3.2241,-3.2228,-3.2032,-3.262,-3.3025,-3.3247,-3.3574,-3.3718,-3.3718,-3.3718,-3.35,-3.3075,-3.2159,-3.1253,-3.0264,-2.9075,-2.8233,-2.7642,0.0,0.0,0.0,0.0,0.0,0.0,0.0,0.0,0.0,0.0,0.0,0.0,0.0,0.0,0.0,0.0,0.0,0.0,0.0,0.0,-2.0913,-2.0913,-2.0762,-2.0699,-2.0699,-2.0699,-2.0699,-2.0699,-2.1747,-2.231,-2.2413,-2.291,-2.3485,-2.4083,-2.4083,-2.4083,-2.4083,-2.4083,-2.4426,-2.4926,-2.4926,-2.4953,-2.4992,-2.494,0.0,0.0,0.0,0.0,0.0,0.0,0.0,0.0,0.0,0.0,-2.608,-2.7177,-2.749,-2.762,0.0,0.0,0.0,0.0,0.0,0.0,0.0,0.0,0.0,0.0,0.0,0.0,0.0,0.0,0.0,0.0,0.0,0.0,0.0,0.0,0.0,0.0,0.0,0.0,0.0,0.0,0.0,0.0,0.0,0.0,0.0,-3.2032,-3.1967,-3.2515,-3.1522,-3.1235,-3.1719,-3.1732,-3.1496,-3.0999,-3.1471,-3.1445,-3.0999,-3.1536,-3.2111,-3.2685,-3.2685,-3.2685,-3.2685,-3.2685,-3.2195,-3.1348,-3.0555,-2.9665,-2.874,-2.7809,-2.7415,-2.7272,0.0,0.0,0.0,0.0,0.0,0.0,0.0,0.0,0.0,0.0,0.0,0.0,0.0,0.0,0.0,0.0,0.0,0.0,0.0,0.0,-2.0972,-2.0972,-2.0812,-2.0699,-2.0699,-2.0699,-2.0699,-2.0699,-2.0948,-2.1511,-2.2401,-2.2519,-2.3106,-2.4083,-2.4083,-2.4083,-2.4083,-2.4083,-2.4178,-2.4295,-2.4295,-2.457,-2.4953,-2.4465,-2.4504,0.0,0.0,0.0,0.0,0.0,0.0,0.0,-2.6308,-2.6523,-2.6621,-2.7294,-2.749,-2.762,0.0,0.0,0.0,0.0,0.0,0.0,0.0,0.0,0.0,0.0,0.0,0.0,0.0,0.0,0.0,0.0,0.0,0.0,0.0,0.0,0.0,0.0,0.0,0.0,0.0,0.0,0.0,0.0,0.0,0.0,-3.1967,-3.1483,-3.1222,-3.1339,-3.1117,-3.1052,-3.1169,-3.1169,-3.1104,0.0,-3.1117,-3.1104,-3.0999,-3.1536,-3.2111,-3.2685,-3.2685,-3.2685,-3.2685,-3.2685,-3.2566,-3.2394,-3.2182,-3.1552,-3.0589,-2.9308,-2.8386,-2.7612,0.0,0.0,0.0,0.0,0.0,0.0,0.0,0.0,0.0,0.0,0.0,0.0,0.0,0.0,0.0,0.0,0.0,0.0,0.0,0.0,0.0,-2.0848,-2.0749,-2.0699,-2.0699,-2.0699,-2.0699,-2.0699,-2.0962,-2.1538,0.0,0.0,-2.3016,-2.4083,-2.4083,-2.4083,-2.4083,-2.4083,-2.4282,-2.4543,-2.4818,-2.5105,-2.538,-2.5354,-2.5354,-2.538,-2.538,0.0,0.0,0.0,0.0,0.0,0.0,0.0,-2.6824,-2.732,-2.749,-2.762,0.0,0.0,0.0,0.0,0.0,0.0,0.0,0.0,0.0,0.0,0.0,0.0,0.0,0.0,0.0,0.0,0.0,0.0,0.0,0.0,0.0,0.0,0.0,0.0,0.0,0.0,0.0,0.0,0.0,-3.1117,-3.1418,-3.1143,-3.0986,-3.0986,-3.0986,-3.0986,-3.0986,-3.0986,-3.0986,-3.0986,-3.0986,-3.0986,-3.0999,-3.13,-3.1588,-3.1875,-3.1875,-3.1875,-3.1875,-3.1875,-3.1875,-3.1836,-3.1422,-3.0716,-2.9788,-2.8683,-2.7699,-2.6856,0.0,0.0,0.0,0.0,0.0,0.0,0.0,0.0,0.0,0.0,0.0,0.0,0.0,0.0,0.0,0.0,0.0,0.0,0.0,0.0,0.0,-2.0699,-2.0699,-2.0699,-2.0699,-2.0699,-2.0699,-2.0699,-2.1224,0.0,0.0,0.0,0.0,-2.4083,-2.4083,-2.4083,-2.4083,-2.4083,-2.4387,-2.4887,-2.5341,-2.561,-2.5832,-2.6242,-2.6216,-2.5968,-2.5968,-2.6282,-2.6654,-2.6242,0.0,0.0,0.0,0.0,-2.6922,-2.7359,-2.749,-2.762,0.0,0.0,0.0,0.0,0.0,0.0,0.0,0.0,0.0,0.0,0.0,0.0,0.0,0.0,0.0,0.0,0.0,0.0,0.0,0.0,0.0,0.0,0.0,0.0,0.0,0.0,0.0,0.0,0.0,-3.0986,-3.0986,-3.0986,-3.0986,-3.0986,-3.0986,-3.0986,-3.0986,-3.0986,-3.0986,-3.0986,-3.0986,-3.0986,-3.0986,-3.0986,-3.0986,-3.0986,-3.0986,-3.0986,-3.0986,-3.0986,-3.0986,-3.0949,-3.0228,-2.9459,-2.8743,-2.7931,-2.7092,-2.629,0.0,0.0,0.0,0.0,0.0,0.0,0.0,0.0,0.0,0.0,0.0,0.0,0.0,0.0,0.0,0.0,0.0,0.0,-2.2618,0.0,0.0,-2.0712,-2.0699,-2.0699,-2.0699,-2.0699,-2.0699,-2.0699,0.0,0.0,0.0,0.0,0.0,-2.4083,0.0,0.0,-2.4083,-2.4083,-2.4164,-2.4243,-2.4292,-2.4905,-2.5754,-2.5384,-2.579,-2.6588,-2.6588,-2.6641,-2.6771,-2.7124,-2.732,0.0,0.0,0.0,-2.7398,-2.7477,-2.749,0.0,0.0,0.0,0.0,0.0,0.0,0.0,0.0,0.0,0.0,0.0,0.0,0.0,0.0,0.0,0.0,0.0,0.0,0.0,0.0,0.0,0.0,0.0,0.0,0.0,0.0,0.0,0.0,0.0,-3.0986,-3.0986,-3.0986,-3.0986,-3.0986,-3.0986,-3.0986,-3.0986,-3.0986,-3.0986,-3.0986,-3.0986,-3.0986,-3.0986,-3.0986,-3.0986,-3.0986,-3.0986,-3.0986,-3.0986,-3.0986,-3.0986,-3.0986,-3.0986,-3.0861,-3.0748,-3.0545,-2.9665,-2.8821,-2.7959,0.0,0.0,0.0,0.0,0.0,0.0,0.0,0.0,0.0,0.0,0.0,0.0,0.0,0.0,0.0,-2.3231,-2.2709,-2.218,-2.1712,-2.1182,-2.0838,-2.0712,-2.0699,-2.0699,-2.0699,-2.0699,-2.0699,-2.0699,0.0,0.0,0.0,-2.3629,-2.4164,0.0,0.0,0.0,0.0,-2.4083,-2.4128,-2.4255,-2.4835,-2.5411,-2.5957,-2.6287,-2.6713,-2.7157,-2.7157,-2.7157,-2.7196,-2.7411,-2.749,-2.7523,-2.7623,0.0,0.0,0.0,-2.759,0.0,0.0,0.0,0.0,0.0,0.0,0.0,0.0,0.0,0.0,0.0,0.0,0.0,0.0,0.0,0.0,0.0,0.0,0.0,0.0,0.0,0.0,0.0,0.0,0.0,0.0,0.0,0.0,0.0,-3.0986,-3.0986,-3.0986,-3.0986,-3.0986,-3.0986,-3.0986,-3.0986,-3.0986,-3.0986,-3.0986,-3.0986,-3.0986,-3.0986,-3.0986,-3.0986,-3.0986,-3.0986,-3.0986,-3.0986,-3.0986,-3.0986,-3.0986,-3.0986,-3.0986,-3.0697,-3.0177,-2.9303,-2.8426,-2.7609,0.0,0.0,0.0,0.0,0.0,0.0,0.0,0.0,0.0,0.0,0.0,0.0,0.0,0.0,0.0,0.0,-2.2762,-2.2016,-2.0962,-2.1012,-2.0985,-2.0787,-2.0724,-2.0712,-2.0737,-2.0712,-2.0699,0.0,0.0,0.0,-2.2454,-2.4181,-2.4769,0.0,-2.4461,0.0,0.0,0.0,0.0,0.0,0.0,0.0,0.0,-2.702,-2.7372,-2.749,-2.749,-2.749,-2.749,-2.7556,-2.759,-2.759,-2.7756,-2.7689,0.0,0.0,0.0,0.0,0.0,0.0,0.0,0.0,0.0,0.0,0.0,0.0,0.0,0.0,0.0,0.0,0.0,0.0,0.0,0.0,0.0,0.0,0.0,0.0,0.0,0.0,0.0,0.0,0.0,0.0,0.0,0.0,-3.0986,-3.0986,-3.0986,-3.0986,-3.0986,-3.0986,-3.0986,-3.0986,-3.0986,-3.0986,-3.0986,-3.0986,-3.0986,-3.0986,-3.0986,-3.0986,-3.0986,-3.0986,-3.0986,-3.0986,-3.0986,-3.0986,-3.0986,-3.0986,-3.0986,-3.0583,-2.9947,-2.9303,-2.8557,-2.773,0.0,0.0,0.0,0.0,0.0,0.0,0.0,0.0,0.0,0.0,0.0,0.0,-2.3471,-2.3551,-2.3399,-2.2785,-2.218,-2.1582,-2.0938,-2.1315,-2.1399,-2.0997,-2.0799,0.0,-2.0901,-2.0775,0.0,0.0,0.0,0.0,-2.2454,-2.4181,-2.4979,-2.4979,-2.5484,-2.5702,-2.5662,0.0,0.0,0.0,0.0,0.0,0.0,0.0,0.0,0.0,0.0,-2.749,-2.7523,-2.7723,-2.7776,-2.7776,-2.7809,-2.7776,-2.7756,0.0,0.0,0.0,0.0,0.0,0.0,0.0,0.0,0.0,0.0,0.0,0.0,0.0,0.0,0.0,0.0,0.0,0.0,0.0,0.0,0.0,0.0,0.0,0.0,0.0,0.0,0.0,0.0,0.0,0.0,0.0,-3.0986,-3.0986,-3.0986,-3.0986,-3.0986,-3.0986,-3.0986,-3.0986,-3.0986,-3.0986,-3.0986,-3.0986,-3.0986,-3.0986,-3.0986,-3.0986,-3.0986,-3.0986,-3.0986,-3.0986,-3.0986,-3.0986,-3.0986,-3.0986,-3.0986,-3.0986,-3.0949,-3.0861,-3.0305,-2.9549,0.0,0.0,0.0,0.0,0.0,0.0,0.0,0.0,0.0,0.0,0.0,0.0,0.0,-2.4015,-2.3931,-2.3689,-2.2799,-2.1874,-2.1035,-2.1084,-2.1097,-2.0949,-2.0787,-2.0882,-2.1288,-2.0895,0.0,0.0,0.0,-2.2584,-2.2936,-2.4351,-2.5188,-2.5524,-2.5702,-2.5793,-2.5811,-2.5726,0.0,0.0,0.0,0.0,0.0,0.0,0.0,0.0,0.0,0.0,0.0,-2.759,-2.7623,-2.7623,-2.7756,-2.7723,-2.759,-2.7523,-2.749,0.0,0.0,0.0,0.0,0.0,0.0,0.0,0.0,0.0,0.0,0.0,0.0,0.0,0.0,0.0,0.0,0.0,0.0,0.0,0.0,0.0,0.0,0.0,0.0,0.0,0.0,0.0,0.0,0.0,0.0,-3.0986,-3.0986,-3.0986,-3.0986,-3.0986,-3.0986,-3.0986,-3.0986,-3.0986,-3.0986,-3.0986,-3.0986,-3.0986,-3.0986,-3.0986,-3.0986,-3.0986,-3.0986,-3.0986,-3.0986,-3.0986,-3.0986,-3.0986,-3.0986,-3.0986,-3.0936,-3.0381,-2.9626,-2.8861,0.0,0.0,0.0,0.0,0.0,0.0,0.0,0.0,0.0,0.0,0.0,0.0,0.0,0.0,-2.3674,-2.3224,-2.2709,-2.2016,-2.1131,-2.1207,-2.1301,-2.1377,-2.1202,-2.1377,-2.1983,-2.1352,0.0,0.0,0.0,0.0,0.0,-2.4442,-2.5201,-2.5537,-2.5764,-2.6096,0.0,0.0,0.0,-2.6622,0.0,0.0,-2.7131,0.0,0.0,0.0,0.0,0.0,0.0,0.0,-2.7669,-2.7623,-2.7756,-2.7656,-2.7536,-2.7669,-2.7603,0.0,0.0,0.0,0.0,0.0,0.0,0.0,0.0,0.0,0.0,0.0,0.0,0.0,0.0,0.0,0.0,0.0,0.0,0.0,0.0,0.0,0.0,0.0,0.0,0.0,0.0,0.0,0.0,0.0,0.0,0.0,-3.0986,-3.0986,-3.0986,-3.0986,-3.0986,-3.0986,-3.0986,-3.0986,-3.0986,-3.0986,-3.0986,-3.0986,-3.0986,-3.0986,-3.0986,-3.0986,-3.0986,-3.0986,-3.0986,-3.0986,-3.0986,-3.0986,-3.0986,-3.0986,-3.0936,-3.0343,-2.9781,-2.9264,0.0,0.0,0.0,0.0,0.0,0.0,0.0,0.0,0.0,0.0,0.0,0.0,0.0,0.0,0.0,-2.1367,-2.1872,-2.1967,-2.1307,-2.1729,-2.2111,-2.2305,-2.2053,-2.2257,-2.299,-2.2153,0.0,0.0,0.0,0.0,0.0,0.0,-2.4979,-2.5048,-2.5704,-2.6636,-2.7729,0.0,-2.7118,-2.771,0.0,-2.7059,-2.7536,0.0,0.0,0.0,-2.7987,-2.7875,0.0,-2.7974,0.0,0.0,0.0,0.0,-2.759,-2.798,0.0,0.0,0.0,0.0,0.0,0.0,0.0,0.0,0.0,0.0,0.0,0.0,0.0,0.0,0.0,0.0,0.0,0.0,0.0,0.0,0.0,0.0,0.0,0.0,0.0,0.0,0.0,0.0,0.0,0.0,-3.0986,-3.0986,-3.0986,-3.0986,-3.0986,-3.0986,-3.0986,-3.0986,-3.0986,-3.0986,-3.0986,-3.0986,-3.0986,-3.0986,-3.0986,-3.0986,-3.0986,-3.0986,-3.0986,-3.0986,-3.0986,-3.0986,-3.0986,-3.0986,-3.0986,-3.0986,-3.0986,-3.0986,-3.0986,-3.0986,0.0,0.0,0.0,0.0,0.0,0.0,0.0,0.0,0.0,0.0,0.0,0.0,-2.4379,-2.4288,-2.3922,-2.3206,-2.3331,-2.322,-2.2674,-2.2686,-2.2741,-2.2799,-2.2564,-2.2711,-2.3348,-2.2616,0.0,0.0,0.0,0.0,0.0,0.0,0.0,0.0,-2.5361,-2.5972,-2.685,-2.7117,0.0,0.0,-2.7557,-2.7802,0.0,0.0,0.0,0.0,0.0,-2.8839,-2.8368,0.0,-2.8098,-2.7822,0.0,0.0,0.0,0.0,0.0,0.0,-2.7967,0.0,0.0,0.0,0.0,0.0,0.0,0.0,0.0,0.0,0.0,0.0,0.0,0.0,0.0,0.0,0.0,0.0,0.0,0.0,0.0,0.0,0.0,0.0,0.0,0.0,0.0,0.0,-3.0986,-3.0986,-3.0986,-3.0986,-3.0986,-3.0986,-3.0986,-3.0986,-3.0986,-3.0986,-3.0986,-3.0986,-3.0986,-3.0986,-3.0986,-3.0986,-3.0986,-3.0986,-3.0986,-3.0986,-3.0986,-3.0986,-3.0986,-3.0986,-3.0986,-3.0986,-3.0986,-3.0986,-3.0583,-3.0139,0.0,0.0,0.0,0.0,0.0,0.0,0.0,0.0,0.0,0.0,0.0,0.0,-2.42,-2.4306,-2.4176,-2.3642,-2.3616,-2.3501,-2.3215,-2.3122,-2.319,-2.346,-2.3313,-2.3526,-2.4127,-2.3415,0.0,0.0,0.0,0.0,0.0,0.0,0.0,0.0,0.0,0.0,0.0,0.0,0.0,0.0,-2.7573,0.0,0.0,-2.8597,-2.8822,0.0,0.0,0.0,-2.8783,-2.8471,-2.8166,0.0,0.0,0.0,0.0,0.0,0.0,0.0,0.0,0.0,0.0,0.0,0.0,0.0,-2.7623,-2.7818,0.0,0.0,0.0,0.0,0.0,0.0,0.0,0.0,0.0,0.0,0.0,0.0,0.0,0.0,0.0,0.0,0.0,-3.0986,-3.0986,-3.0986,-3.0986,-3.0986,-3.0986,-3.0986,-3.0986,-3.0986,-3.0986,-3.0986,-3.0986,-3.0986,-3.0986,-3.0986,-3.0986,-3.0986,-3.0986,-3.0986,-3.0986,-3.0986,-3.0986,-3.0986,-3.0986,-3.0986,-3.0986,-3.0986,-3.0986,-3.0986,-3.0986,-3.0986,-3.0672,-3.0305,0.0,0.0,0.0,0.0,0.0,0.0,0.0,0.0,0.0,0.0,0.0,-2.3956,-2.4028,-2.4026,-2.3836,-2.3431,-2.3405,-2.3405,-2.3405,-2.3405,-2.3649,-2.4177,-2.4191,-2.4435,-2.4963,-2.4323,0.0,0.0,0.0,0.0,0.0,0.0,0.0,0.0,0.0,0.0,0.0,0.0,0.0,-2.7332,-2.7335,-2.7575,0.0,0.0,-2.8983,0.0,-2.9301,-2.9234,-2.8953,-2.8469,-2.8216,0.0,0.0,0.0,0.0,0.0,-2.8341,0.0,0.0,0.0,0.0,0.0,0.0,0.0,-2.7822,-2.7656,-2.768,0.0,0.0,0.0,0.0,0.0,0.0,0.0,0.0,0.0,0.0,0.0,0.0,0.0,0.0,0.0,-3.0986,-3.0986,-3.0986,-3.0986,-3.0986,-3.0986,-3.0986,-3.0986,-3.0986,-3.0986,-3.0986,-3.0986,-3.0986,-3.0986,-3.0986,-3.0986,-3.0986,-3.0986,-3.0986,-3.0986,-3.0986,-3.0986,-3.0986,-3.0986,-3.0986,-3.0986,-3.0986,-3.0986,-3.0986,-3.0986,-3.0986,-3.0986,-3.0986,-3.0986,-2.3302,0.0,0.0,0.0,0.0,0.0,0.0,0.0,0.0,0.0,0.0,0.0,0.0,-2.479,-2.4763,-2.4666,-2.4666,-2.4666,-2.4666,-2.4666,-2.4706,-2.4829,-2.473,-2.4727,-2.4835,-2.4585,0.0,0.0,0.0,0.0,0.0,0.0,0.0,0.0,0.0,0.0,0.0,0.0,0.0,-2.6975,-2.7781,0.0,-2.9227,-2.9699,-2.9941,-3.0125,-3.0492,-3.0014,-2.9087,0.0,-2.83,-2.8268,0.0,0.0,0.0,0.0,0.0,0.0,0.0,0.0,0.0,0.0,0.0,0.0,-2.7961,-2.7776,-2.7716,0.0,0.0,0.0,0.0,0.0,0.0,0.0,0.0,0.0,0.0,0.0,0.0,0.0,0.0,0.0,-3.0986,-3.0986,-3.0986,-3.0986,-3.0986,-3.0986,-3.0986,-3.0986,-3.0986,-3.0986,-3.0986,-3.0986,-3.0986,-3.0986,-3.0986,-3.0986,-3.0986,-3.0986,-3.0986,-3.0986,-3.0986,-3.0986,-3.0986,-3.0986,-3.0986,-3.0986,-3.0986,-3.0986,-3.0986,-3.0986,-3.0986,-3.0986,-3.0986,-3.0986,-2.381,0.0,0.0,0.0,0.0,0.0,0.0,0.0,0.0,0.0,0.0,0.0,0.0,0.0,0.0,-2.5005,-2.5005,-2.5005,-2.5005,-2.5005,-2.5005,-2.5005,-2.4948,-2.4892,-2.4892,-2.4835,-2.4806,0.0,0.0,0.0,0.0,0.0,0.0,0.0,0.0,0.0,0.0,0.0,-2.6538,-2.686,-2.7678,0.0,-2.9416,-2.9894,-3.036,-3.0686,-3.0594,-2.9861,-2.8862,-2.8538,-2.8444,0.0,0.0,-2.8444,-2.8444,0.0,-2.8627,-2.8904,0.0,0.0,0.0,-2.9774,0.0,0.0,0.0,-2.8199,-2.7901,0.0,0.0,0.0,0.0,0.0,0.0,0.0,0.0,0.0,0.0,0.0,0.0,0.0,0.0,0.0,-3.02,-3.0137,-3.0137,-3.0137,-3.0137,-3.0255,-3.0542,-3.0555,-3.0699,-3.0973,-3.0986,-3.0986,-3.0986,-3.0986,-3.0986,-3.0986,-3.0986,-3.0986,-3.0986,-3.0986,-3.0986,-3.0986,-3.0986,-3.083,-3.0555,-3.0555,-3.0385,-3.0189,-3.0764,-3.0817,-3.0594,-3.0882,-3.0986,-3.0986,-2.4302,0.0,0.0,0.0,0.0,0.0,0.0,0.0,0.0,0.0,0.0,0.0,0.0,0.0,0.0,0.0,-2.5358,-2.5303,0.0,0.0,-2.5127,-2.5018,-2.5005,-2.5005,-2.5005,-2.5005,-2.5005,0.0,0.0,0.0,0.0,0.0,0.0,0.0,0.0,0.0,0.0,0.0,0.0,-2.7023,0.0,-2.8422,-2.9302,-2.9807,-3.0279,-3.0616,-3.0036,-2.9301,-2.8614,-2.8722,0.0,-2.8777,-2.8866,-2.8893,0.0,0.0,0.0,0.0,0.0,0.0,0.0,0.0,0.0,-2.9531,0.0,0.0,0.0,0.0,0.0,0.0,0.0,0.0,0.0,0.0,0.0,0.0,0.0,0.0,0.0,0.0,0.0,0.0,0.0,-2.931,-2.931,-2.931,-2.931,-2.9483,-2.9905,-2.9931,-3.0228,-3.0803,-3.083,-3.083,-3.083,-3.083,-3.083,-3.083,-3.083,-3.0882,-3.0986,-3.0986,-3.0986,-3.0973,-3.0869,-3.0555,-3.01,-3.01,-2.9732,-2.9222,-3.0372,-3.0542,-3.0153,-3.066,-3.083,-3.0803,-2.4302,-2.4302,0.0,0.0,0.0,0.0,0.0,0.0,0.0,0.0,0.0,0.0,0.0,0.0,0.0,0.0,0.0,0.0,-2.5833,0.0,0.0,-2.5032,-2.5005,-2.5005,-2.5005,-2.5005,-2.5005,-2.5005,0.0,0.0,0.0,0.0,0.0,0.0,-2.6345,0.0,0.0,0.0,-2.761,0.0,-2.8248,-2.8885,0.0,-2.955,-2.9618,-2.9604,-2.8975,-2.8709,-2.8668,0.0,-2.9407,-2.9469,0.0,-2.9921,-2.9921,0.0,0.0,0.0,0.0,0.0,0.0,0.0,-3.1137,0.0,0.0,0.0,0.0,0.0,0.0,0.0,0.0,0.0,0.0,0.0,0.0,0.0,0.0,0.0,0.0,0.0,0.0,0.0,0.0,-2.931,-2.931,-2.931,-2.931,-2.9349,-2.9379,-2.9379,-2.964,-3.0179,-3.0192,-3.0192,-3.0192,-3.0192,-3.0192,-3.0192,-3.0192,-3.049,-3.0986,-3.0986,-3.0986,-3.096,-3.0451,-3.0153,-3.01,-3.01,-2.9483,-2.8643,-2.9771,-3.0153,-3.0113,-3.0179,-3.0192,-3.0127,-2.4302,-2.4078,0.0,0.0,0.0,0.0,0.0,0.0,0.0,0.0,0.0,0.0,0.0,0.0,0.0,0.0,0.0,-2.6684,0.0,0.0,0.0,0.0,-2.6034,0.0,-2.552,-2.552,-2.5344,-2.5005,-2.5344,0.0,0.0,0.0,0.0,0.0,-2.6671,0.0,-2.6833,0.0,0.0,0.0,0.0,0.0,0.0,-2.938,-2.9515,-2.9475,-2.923,-2.8885,-2.8627,0.0,-2.923,0.0,0.0,0.0,0.0,0.0,0.0,0.0,0.0,0.0,0.0,0.0,0.0,0.0,-3.0406,0.0,-2.9774,0.0,0.0,0.0,0.0,0.0,0.0,0.0,0.0,0.0,0.0,0.0,0.0,0.0,0.0,0.0,0.0,0.0,0.0,0.0,-2.8268,-2.8412,-2.8773,-2.88,-2.9026,-2.9627,-2.9931,-3.01,-3.01,-3.0464,-3.0464,-3.01,-3.0464,-3.0411,-3.0006,-3.0346,-3.032,-3.0016,-2.9745,-2.9444,-2.9118,-2.9118,-2.8634,-2.7968,-2.8791,-2.9118,-2.9196,-2.9852,-2.9879,-2.9653,-2.4618,0.0,0.0,0.0,0.0,0.0,0.0,0.0,0.0,0.0,0.0,0.0,-2.6375,-2.6796,0.0,0.0,-2.7311,-2.7199,0.0,0.0,-2.6955,0.0,0.0,0.0,0.0,-2.6145,-2.5928,-2.5507,0.0,0.0,0.0,0.0,0.0,0.0,0.0,-2.7311,-2.7339,0.0,0.0,-2.7976,-2.841,-2.8587,-2.8641,-2.9108,-2.9257,-2.9285,-2.9448,-2.923,-2.8885,-2.9224,-2.9618,0.0,-3.0208,0.0,0.0,0.0,0.0,0.0,-3.1544,0.0,0.0,0.0,0.0,0.0,0.0,0.0,0.0,0.0,0.0,0.0,0.0,0.0,0.0,0.0,0.0,0.0,0.0,0.0,0.0,0.0,0.0,0.0,0.0,0.0,0.0,-2.749,-2.749,-2.7673,-2.8124,-2.8137,-2.8412,-2.9013,-2.9431,-2.9617,-2.9617,-3.0072,-3.0072,-2.9631,-3.0072,-2.9928,-2.9287,-2.9706,-2.968,-2.931,-2.914,-2.8813,-2.842,-2.842,-2.8033,-2.7555,-2.815,-2.8281,-2.8268,-2.9287,-2.9392,-2.91,-2.5445,-2.5326,0.0,0.0,0.0,0.0,0.0,0.0,0.0,0.0,0.0,0.0,0.0,0.0,0.0,0.0,0.0,-2.8288,-2.7718,0.0,-2.742,0.0,0.0,-2.6779,0.0,0.0,0.0,0.0,0.0,0.0,0.0,0.0,0.0,0.0,0.0,-2.8532,-2.8532,-2.8546,-2.856,-2.856,-2.8587,-2.8587,-2.8587,0.0,-2.8627,-2.8695,-2.9298,0.0,0.0,-3.0812,-3.1219,0.0,0.0,0.0,0.0,0.0,0.0,0.0,0.0,0.0,0.0,-3.2146,0.0,0.0,0.0,0.0,-3.1097,0.0,0.0,0.0,0.0,0.0,0.0,0.0,0.0,0.0,0.0,0.0,0.0,0.0,0.0,0.0,0.0,0.0,0.0,-2.749,-2.749,-2.7503,-2.7529,-2.7529,-2.7824,-2.842,-2.8459,-2.8472,-2.8472,-2.8486,-2.8486,-2.8472,-2.8486,-2.8786,-2.931,-2.9336,-2.9336,-2.9284,-2.8695,-2.8433,-2.842,-2.842,-2.8033,-2.7555,-2.815,-2.8033,-2.7594,-2.8216,-2.8459,-2.8368,0.0,0.0,0.0,0.0,0.0,0.0,0.0,-2.591,0.0,0.0,0.0,0.0,0.0,-2.8058,-2.837,0.0,0.0,-2.8505,-2.8302,-2.8302,0.0,0.0,0.0,-2.78,0.0,0.0,0.0,0.0,0.0,0.0,0.0,0.0,0.0,0.0,0.0,-2.8587,0.0,0.0,0.0,0.0,0.0,-2.8587,-2.8587,0.0,0.0,-2.8627,-2.8817,-2.9176,0.0,-2.9991,-3.0622,-3.1327,-3.1531,-3.187,-3.2218,-3.2218,-3.2218,0.0,0.0,0.0,-3.2073,-3.2036,0.0,0.0,0.0,0.0,0.0,0.0,0.0,0.0,0.0,0.0,0.0,0.0,0.0,0.0,0.0,0.0,0.0,0.0,0.0,0.0,0.0,0.0,0.0,-2.6994,-2.6961,-2.7131,-2.7477,-2.749,-2.7581,-2.7811,-2.8177,-2.842,-2.842,-2.8813,-2.8813,-2.8386,-2.8813,-2.8673,-2.8137,-2.8516,-2.8477,-2.8111,-2.7902,-2.7811,-2.7811,-2.7811,-2.7659,-2.7516,-2.7699,-2.7659,-2.7555,-2.8177,-2.8137,-2.7798,-2.6406,0.0,0.0,0.0,0.0,0.0,0.0,0.0,0.0,0.0,-2.7664,0.0,-2.8017,0.0,-2.8587,0.0,-2.8587,-2.8587,-2.8587,-2.8587,0.0,-2.8587,-2.8587,0.0,0.0,0.0,0.0,0.0,0.0,-2.8017,0.0,0.0,0.0,0.0,0.0,0.0,0.0,0.0,-2.8702,0.0,0.0,-2.8798,0.0,0.0,-2.8587,-2.8655,0.0,-2.9482,-2.9876,-3.033,-3.0996,-3.1612,-3.1612,-3.187,-3.2218,-3.2218,-3.2218,-3.2218,-3.2218,-3.2336,0.0,-3.2395,-3.2596,0.0,-3.2431,0.0,0.0,0.0,0.0,0.0,0.0,0.0,0.0,0.0,0.0,0.0,0.0,-3.0659,0.0,0.0,0.0,0.0,0.0,0.0,-2.7722,-2.704,-2.6974,-2.7144,0.0,0.0,-2.749,-2.749,-2.7889,-2.8072,-2.8072,-2.8464,-2.8464,-2.8085,-2.8464,-2.8255,-2.7503,-2.7902,-2.7876,-2.749,-2.749,-2.749,-2.749,-2.749,-2.749,-2.749,-2.749,-2.749,-2.7542,-2.7941,-2.7837,-2.749,0.0,0.0,0.0,0.0,-2.6661,0.0,0.0,0.0,-2.7718,0.0,-2.8234,-2.8587,-2.8587,-2.8587,-2.8587,-2.8587,-2.8587,-2.8587,-2.8587,-2.8587,0.0,0.0,-2.8587,-2.8587,-2.8587,0.0,0.0,0.0,0.0,0.0,0.0,0.0,0.0,0.0,-2.8619,0.0,-2.8587,-2.8619,-2.8962,-2.9442,-2.9473,-2.9139,-2.8587,-2.8619,-2.8651,-2.8814,-3.0011,-3.0426,-3.0581,-3.1806,-3.2178,-3.2218,-3.2218,-3.2218,-3.2218,-3.2218,-3.2218,-3.2218,-3.2218,-3.2561,-3.2953,-3.3101,0.0,0.0,0.0,0.0,-3.3248,0.0,0.0,0.0,0.0,0.0,0.0,0.0,0.0,0.0,0.0,0.0,0.0,0.0,0.0,0.0,0.0,-2.8575,-2.8155,-2.7517,-2.7425,0.0,0.0,0.0,-2.749,-2.749,-2.749,-2.749,-2.749,-2.749,-2.749,-2.749,-2.749,-2.749,-2.749,-2.749,-2.749,-2.749,-2.749,-2.749,-2.749,-2.749,-2.749,-2.749,-2.749,-2.749,-2.749,-2.749,-2.749,-2.749,-2.6,-2.5633,-2.5423,0.0,-2.6112,-2.6212,0.0,0.0,0.0,0.0,-2.8492,-2.8587,-2.8587,-2.8587,-2.8587,-2.8587,-2.8587,0.0,0.0,0.0,0.0,-2.8587,-2.8587,-2.8587,-2.8587,-2.8587,0.0,-2.8587,0.0,0.0,-2.8587,0.0,0.0,0.0,0.0,0.0,-2.8619,-2.9075,-2.9107,-2.8881,-2.93,-2.9139,0.0,0.0,-2.9282,-2.938,-3.0252,-3.0488,-3.0582,-3.1834,-3.2225,-3.2218,-3.2218,-3.2218,-3.2218,-3.2218,-3.2218,-3.2218,-3.2218,-3.2668,-3.301,-3.2582,-3.3357,-3.4047,0.0,0.0,0.0,0.0,0.0,0.0,0.0,0.0,0.0,0.0,0.0,0.0,0.0,0.0,0.0,-3.2135,0.0,0.0,-2.9007,-2.8028,-2.7327,-2.6922,-2.6504,0.0,0.0,0.0,0.0,-2.749,-2.749,-2.749,-2.749,-2.749,-2.749,-2.749,-2.749,-2.749,-2.749,-2.749,-2.749,-2.749,-2.749,-2.749,-2.749,-2.749,-2.749,-2.749,-2.749,-2.749,-2.749,-2.749,-2.749,-2.749,-2.5839,0.0,0.0,-2.6199,0.0,0.0,-2.7131,0.0,0.0,-2.8546,-2.8587,0.0,-2.8587,-2.8587,-2.8587,-2.8587,-2.8587,0.0,-2.8587,0.0,0.0,-2.8587,-2.8587,-2.8587,-2.8587,-2.8587,0.0,-2.8587,0.0,0.0,-2.8587,0.0,0.0,0.0,0.0,-2.93,0.0,-2.9981,-2.9827,-2.9058,-2.9673,0.0,0.0,-2.9487,-2.9659,-3.0066,-3.1081,-3.135,-3.1413,-3.2406,-3.2687,-3.2632,-3.2632,-3.2444,-3.2218,-3.2218,-3.2408,-3.2632,-3.2632,-3.3169,-3.3638,-3.3258,-3.3786,-3.4205,-3.3517,-3.3865,-3.4335,0.0,0.0,0.0,0.0,0.0,0.0,0.0,0.0,0.0,0.0,0.0,0.0,0.0,-3.1637,0.0,-2.9493,-2.8146,-2.7174,-2.6744,0.0,0.0,0.0,0.0,0.0,-2.749,-2.749,-2.749,-2.749,-2.749,-2.749,-2.749,-2.749,-2.749,-2.749,-2.749,-2.749,-2.749,-2.749,-2.749,-2.749,-2.749,-2.749,-2.749,-2.749,-2.749,-2.749,-2.749,-2.749,-2.749,0.0,0.0,0.0,0.0,0.0,0.0,0.0,-2.8261,0.0,-2.8587,0.0,-2.8587,-2.8587,-2.8587,-2.8587,-2.8587,0.0,-2.8587,-2.8587,-2.8587,-2.8651,-2.8702,-2.8716,-2.8716,-2.8716,-2.8716,-2.8716,0.0,0.0,0.0,0.0,0.0,0.0,0.0,0.0,0.0,0.0,-3.1028,-3.0778,0.0,-3.0359,-3.0584,-3.045,-2.995,-3.0133,-3.0806,-3.2035,-3.2464,-3.2498,-3.3114,-3.326,-3.3177,-3.3002,-3.2632,-3.2225,-3.22,-3.2686,-3.3219,-3.3325,-3.3939,-3.4502,-3.4306,-3.4516,-3.4557,-3.3743,-3.4041,-3.4553,-3.4553,-3.4478,-3.4408,0.0,0.0,0.0,0.0,0.0,0.0,0.0,0.0,0.0,0.0,0.0,0.0,-2.9966,-2.8598,-2.7538,0.0,0.0,0.0,0.0,0.0,0.0,-2.749,-2.749,-2.749,-2.749,0.0,-2.749,-2.749,-2.749,-2.749,-2.749,-2.749,-2.749,-2.749,-2.749,-2.749,-2.749,-2.749,-2.749,-2.749,-2.749,-2.749,-2.749,-2.749,-2.749,-2.749,0.0,0.0,0.0,0.0,0.0,-2.7881,-2.837,-2.8519,-2.8587,-2.8587,-2.8587,-2.8587,-2.8587,-2.8587,-2.8587,-2.8587,-2.8587,0.0,0.0,0.0,0.0,-2.93,-2.9331,-2.9331,-2.9331,-2.9331,-2.9331,0.0,0.0,0.0,0.0,0.0,0.0,0.0,0.0,0.0,-3.1175,-3.1393,0.0,-3.0389,-3.1058,-3.0999,-3.0554,-3.0984,-3.1233,-3.1437,-3.2142,-3.2392,-3.2489,-3.3157,-3.3328,-3.3097,-3.1965,-3.1943,-3.2274,-3.2294,-3.2775,-3.3412,-3.3965,-3.4659,-3.4966,-3.3842,-3.4865,-3.5845,-3.4603,-3.4834,-3.5309,-3.5309,-3.488,-3.4296,-3.3692,0.0,0.0,0.0,0.0,0.0,0.0,0.0,0.0,0.0,0.0,-3.0136,0.0,0.0,0.0,0.0,0.0,0.0,0.0,0.0,0.0,0.0,-2.749,0.0,0.0,0.0,-2.749,-2.749,-2.749,-2.749,-2.749,-2.749,-2.749,-2.749,-2.749,-2.749,-2.749,-2.749,-2.749,-2.749,-2.749,-2.749,-2.749,-2.749,-2.749,-2.749,0.0,0.0,0.0,0.0,0.0,0.0,0.0,-2.8881,0.0,-2.8651,-2.8587,-2.8587,-2.8587,-2.8587,-2.8587,-2.8587,-2.8587,-2.8587,-2.8587,-2.8587,-2.8734,-2.9026,-2.9331,0.0,-2.9504,-2.9858,-3.0011,-3.0011,0.0,0.0,0.0,0.0,0.0,0.0,0.0,-3.1508,0.0,0.0,0.0,-3.1087,-3.1737,-3.1808,-3.1493,-3.1508,-3.168,-3.1992,-3.2315,-3.2616,-3.2961,-3.3275,-3.338,-3.3233,-3.2608,-3.2347,-3.2309,-3.2287,-3.2796,-3.3503,-3.4183,-3.4351,-3.4304,-3.403,-3.4163,-3.4183,-3.3581,-3.3921,-3.4398,-3.4398,-3.4474,-3.4397,-3.4058,-3.3106,0.0,0.0,0.0,0.0,0.0,0.0,0.0,0.0,0.0,0.0,0.0,0.0,0.0,0.0,0.0,0.0,0.0,0.0,0.0,0.0,0.0,0.0,0.0,0.0,0.0,-2.749,-2.749,-2.749,-2.749,-2.749,-2.749,-2.749,-2.749,-2.749,-2.749,-2.749,-2.749,-2.749,-2.749,-2.749,-2.749,-2.749,-2.749,-2.749,0.0,-2.8569,0.0,0.0,-2.9597,0.0,-2.8849,-2.9075,-2.9139,-2.8651,-2.8587,-2.8587,-2.8587,-2.8587,-2.8651,-2.8798,-2.894,-2.9022,-2.899,-2.9022,-2.9086,-2.9169,-2.954,-2.9782,-2.9905,-3.045,-3.0703,0.0,0.0,0.0,0.0,0.0,0.0,0.0,0.0,0.0,0.0,0.0,-3.2835,-3.1936,-3.2493,-3.2648,-3.2542,-3.194,-3.2007,-3.2398,-3.2398,-3.2736,-3.3183,-3.3183,-3.3282,-3.3352,-3.3066,-3.2702,-3.2332,-3.2322,-3.2833,-3.3562,-3.4224,-3.4044,-3.3737,-3.4166,-3.3565,-3.2798,-3.2644,-3.3013,-3.3398,-3.3398,-3.3737,-3.4058,-3.4058,-3.3165,0.0,0.0,0.0,0.0,0.0,0.0,0.0,0.0,0.0,0.0,0.0,0.0,0.0,0.0,0.0,0.0,0.0,0.0,0.0,0.0,0.0,-2.749,-2.749,0.0,-2.749,-2.749,-2.749,-2.749,-2.749,-2.749,-2.749,-2.749,-2.749,-2.749,-2.749,-2.749,-2.749,-2.749,-2.749,-2.749,-2.749,-2.749,-2.749,-2.749,0.0,0.0,0.0,0.0,0.0,0.0,-2.9411,-2.8994,-2.8651,-2.8619,-2.8587,-2.8587,-2.8587,-2.8587,-2.8817,-2.9362,-3.002,-3.0357,-3.0229,-3.0357,-3.063,-3.1133,-3.0677,-3.0689,-3.1291,-3.1364,-3.1422,0.0,0.0,-3.0777,0.0,0.0,0.0,0.0,0.0,0.0,0.0,-3.3077,-3.3339,-3.322,-3.3282,-3.331,-3.3244,-3.2573,-3.2342,-3.2398,-3.2398,-3.2428,-3.249,-3.249,-3.2908,-3.3183,-3.2028,-3.2004,-3.241,-3.2466,-3.2912,-3.3558,-3.4309,-3.4431,-3.4258,-3.3644,-3.3919,-3.4135,-3.346,-3.3352,-3.3398,-3.3398,-3.2967,-3.2598,-3.2598,-3.249,-3.2413,0.0,0.0,0.0,0.0,0.0,0.0,0.0,0.0,0.0,0.0,-3.0525,0.0,0.0,0.0,0.0,0.0,0.0,0.0,-2.8514,0.0,-2.749,-2.749,-2.749,-2.749,-2.749,-2.749,-2.749,-2.749,-2.749,-2.749,-2.749,-2.749,-2.749,-2.749,-2.749,-2.749,-2.749,-2.749,-2.749,-2.749,-2.749,-2.749,-2.749,0.0,0.0,0.0,0.0,0.0,0.0,0.0,-3.0238,-3.0192,-2.9794,-2.939,-2.9296,-2.9701,-2.9732,-2.9856,-3.0086,-3.0377,-3.0692,-3.1048,-3.1094,-3.125,-3.1437,-3.1616,-3.1649,-3.1495,-3.1851,-3.2048,0.0,0.0,0.0,0.0,0.0,0.0,0.0,0.0,-3.2613,-3.3044,-3.3752,-3.4073,-3.4073,-3.4073,-3.3798,-3.3336,-3.2659,-3.2398,-3.2398,-3.2398,-3.2398,-3.2398,-3.2398,-3.2567,-3.2724,-3.2196,-3.2203,-3.2416,-3.2425,-3.2629,-3.2952,-3.3644,-3.3565,-3.326,-3.3367,-3.3321,-3.3152,-3.2859,-3.2798,-3.2798,-3.2798,-3.2582,-3.2398,-3.2398,-3.2398,-3.2398,0.0,0.0,0.0,0.0,0.0,0.0,0.0,0.0,0.0,0.0,0.0,0.0,0.0,0.0,0.0,0.0,0.0,0.0,-2.9111,0.0,-2.8306,-2.749,-2.7908,-2.7908,-2.749,-2.749,-2.749,-2.749,-2.749,-2.749,-2.749,-2.749,-2.749,-2.749,-2.749,-2.749,-2.749,-2.749,-2.749,-2.749,-2.749,-2.749,-2.749,-3.1422,0.0,-3.1204,0.0,-3.1623,-3.1335,-3.0881,-3.1028,-3.1116,-3.0822,-3.0375,-3.0194,-3.0464,-3.0494,-3.0584,-3.0792,-3.0953,-3.1291,-3.1715,-3.1775,-3.1789,-3.1789,-3.2065,0.0,-3.1781,-3.216,-3.2398,-3.2398,-3.2216,0.0,0.0,0.0,0.0,0.0,-3.269,-3.2844,-3.3152,-3.386,-3.4181,-3.4181,-3.4181,-3.386,-3.3336,-3.2659,-3.2398,-3.2398,-3.2398,-3.2398,-3.2398,-3.2398,-3.2398,-3.2398,-3.2398,-3.2398,-3.2398,-3.2398,-3.2398,-3.249,-3.2982,-3.2752,-3.2505,-3.2982,-3.2752,-3.2398,-3.2398,-3.2398,-3.2398,-3.2398,-3.2398,-3.2398,-3.2398,-3.2398,-3.2398,-3.2398,0.0,0.0,0.0,0.0,0.0,0.0,-3.1967,-3.1859,-3.2336,0.0,0.0,0.0,0.0,0.0,0.0,0.0,0.0,0.0,0.0,0.0,0.0,-2.8352,-2.8254,-2.7776,-2.759,-2.749,-2.749,-2.749,-2.749,-2.749,-2.749,-2.749,-2.749,-2.749,-2.749,-2.749,-2.749,-2.749,-2.749,-2.749,-2.749,-2.749,-3.1508,-3.1964,-3.2398,-3.2398,-3.1879,-3.1508,-3.148,-3.094,-3.0763,-3.1393,-3.148,-3.1248,-3.0584,-3.0494,-3.0763,-3.1422,-3.2078,-3.2452,-3.2393,-3.2467,-3.2467,0.0,0.0,-3.1781,-3.237,-3.2398,-3.2398,-3.2398,0.0,0.0,-3.1439,0.0,-3.2752,-3.3398,-3.3398,-3.3013,-3.2444,-3.3121,-3.3413,-3.3413,-3.3413,-3.3413,-3.3336,-3.2659,-3.2398,-3.2398,-3.2398,-3.2398,-3.2398,-3.2398,-3.2398,-3.2398,-3.2398,-3.2398,-3.2398,-3.2398,-3.2398,-3.2398,-3.2398,-3.2398,-3.2398,-3.2398,-3.2398,-3.2398,-3.2398,-3.2398,-3.2398,-3.2398,-3.2398,-3.2398,-3.2398,-3.2398,-3.2398,-3.2398,0.0,0.0,0.0,0.0,0.0,0.0,-3.2382,-3.2382,-3.2398,0.0,0.0,0.0,0.0,0.0,0.0,0.0,0.0,-3.0494,-2.9858,0.0,-2.9473,-2.8839,-2.8514,-2.8481,-2.7809,-2.749,-2.749,-2.749,-2.749,-2.749,-2.749,-2.749,-2.749,-2.749,-2.749,-2.749,-2.749,-2.749,-2.749,-2.749,-2.749,-2.749,-3.2104,-3.2287,-3.2398,-3.2398,-3.2244,-3.2104,-3.2104,-3.1921,-3.1864,-3.2076,-3.2104,-3.202,-3.1807,-3.1807,-3.1864,0.0,-3.2303,-3.2623,0.0,-3.3111,-3.3111,-3.3083,-3.2913,-3.2662,-3.2398,-3.2398,-3.2613,-3.3075,0.0,0.0,0.0,-3.3735,-3.395,-3.4135,-3.3614,-3.3552,-3.3827,-3.3521,-3.369,-3.412,-3.3598,-3.3398,-3.3336,-3.2659,-3.2398,-3.2398,-3.2398,-3.2398,-3.2398,-3.2398,-3.2398,-3.2398,-3.2398,-3.2398,-3.2398,-3.2398,-3.2398,-3.2398,-3.2398,-3.2398,-3.2398,-3.2398,-3.2398,-3.2398,-3.2398,-3.2398,-3.2398,-3.2398,-3.2398,-3.2398,-3.2398,-3.2398,-3.2398,-3.2398,-3.2398,0.0,0.0,0.0,0.0,0.0,-3.2398,-3.2398,0.0,-3.2115,0.0,0.0,0.0,0.0,0.0,0.0,0.0,0.0,-3.0866,0.0,-2.9504,-2.93,-2.8967,-2.8481,-2.7809,-2.749,-2.749,-2.749,-2.749,-2.749,-2.749,-2.749,-2.749,-2.749,-2.749,-2.749,-2.749,-2.749,-2.749,-2.749,-2.7288,-2.6948,-3.2398,-3.2398,-3.2398,-3.2398,-3.2398,-3.2398,-3.2398,-3.2398,-3.2398,-3.2398,-3.2398,-3.2398,-3.2398,-3.2398,0.0,-3.2398,-3.2398,-3.2567,-3.2998,-3.3013,-3.3013,-3.3013,-3.3013,-3.2829,-3.2398,-3.2398,0.0,-3.3013,-3.3275,-3.3906,-3.489,-3.489,-3.489,-3.4844,-3.4121,-3.3935,-3.4058,-3.3321,-3.3275,-3.3688,-3.3198,-3.3013,-3.2982,-3.2552,-3.2398,-3.2398,-3.2398,-3.2398,-3.2398,-3.2398,-3.2398,-3.2398,-3.2398,-3.2398,-3.2398,-3.2398,-3.2398,-3.2398,-3.2398,-3.2398,-3.2398,-3.2398,-3.2398,-3.2398,-3.2398,-3.2398,-3.2398,-3.2398,-3.2398,-3.2398,-3.2398,-3.2398,-3.2398,-3.2398,-3.2398,-3.2398,-3.2398,0.0,0.0,0.0,0.0,0.0,0.0,-3.2315,-3.2247,0.0,0.0,0.0,0.0,0.0,0.0,-3.0644,-3.1307,0.0,-2.9889,-2.9889,-2.9673,-2.9251,-2.832,-2.7756,-2.749,-2.749,-2.749,-2.749,-2.749,-2.749,-2.749,-2.749,-2.749,-2.7477,-2.7288,-2.721,-2.7183,-2.6942,-2.6661,-2.6347,-3.2425,-3.2425,-3.2398,0.0,-3.2398,0.0,-3.2398,-3.2398,-3.2398,-3.2398,-3.2398,-3.2398,-3.2398,-3.2398,-3.2398,-3.2398,0.0,0.0,0.0,-3.2398,-3.2398,-3.2398,-3.2398,-3.2398,-3.2398,-3.2398,-3.2413,-3.2459,-3.3152,-3.4152,-3.5444,-3.5444,-3.5444,-3.5414,-3.472,-3.4029,-3.3352,-3.2675,-3.2398,-3.2398,-3.2398,-3.2398,-3.2398,-3.2398,-3.2398,-3.2398,-3.2398,-3.2398,-3.2398,-3.2398,-3.2398,-3.2398,-3.2398,-3.2398,-3.2398,-3.2398,-3.2398,-3.2398,-3.2398,-3.2398,-3.2398,-3.2398,-3.2398,-3.2398,-3.2398,-3.2398,-3.2398,-3.2398,-3.2398,-3.2398,-3.2398,-3.2398,-3.2398,-3.2398,-3.2398,-3.2398,-3.2398,0.0,0.0,0.0,0.0,0.0,0.0,-3.2398,-3.2398,0.0,0.0,0.0,0.0,0.0,-3.1322,-3.0866,-3.1307,-3.1219,-3.0524,-3.045,-3.0389,-3.0269,-2.903,-2.8105,-2.749,-2.749,-2.749,-2.749,-2.749,-2.7477,-2.7438,-2.7438,-2.7438,-2.7372,-2.6844,-2.6667,-2.6641,-2.6033,-2.5767,-2.5728,0.0,0.0,-3.2398,-3.2398,-3.2398,-3.2398,-3.2398,-3.2398,-3.2398,-3.2398,-3.2398,-3.2398,-3.2398,-3.2398,-3.2398,-3.2398,-3.2398,-3.2398,-3.2398,-3.2398,-3.2398,-3.2398,-3.2398,-3.2398,-3.2398,-3.2398,-3.2644,-3.3167,-3.3875,-3.4412,-3.4751,-3.4751,-3.4751,-3.472,-3.3967,-3.3567,-3.3352,-3.2675,-3.2398,-3.2398,-3.2398,-3.2398,-3.2398,-3.2398,-3.2398,-3.2398,-3.2398,-3.2398,-3.2398,-3.2398,-3.2398,-3.2398,-3.2398,-3.2398,-3.2398,-3.2398,-3.2398,-3.2398,-3.2398,-3.2398,-3.2398,-3.2398,-3.2398,-3.2398,-3.2398,-3.2398,-3.2398,-3.2398,-3.2398,-3.2398,-3.2398,-3.2398,-3.2398,-3.2398,-3.2398,-3.2398,-3.2398,-3.2398,0.0,0.0,-3.2398,-3.2398,-3.2398,-3.2398,-3.237,0.0,0.0,0.0,0.0,-3.1826,-3.167,-3.1568,-3.1769,-3.1452,-3.0524,-2.9981,-2.9237,-2.8222,-2.7908,-2.7656,-2.749,-2.749,-2.749,-2.749,-2.749,-2.7288,-2.6883,-2.6883,-2.6883,-2.6817,-2.6242,-2.6282,-2.6641,-2.6033,-2.555,-2.5201,-3.2594,-3.2496,-3.2398,-3.2398,-3.2398,-3.2398,-3.2398,-3.2398,-3.2398,-3.2398,-3.2453,-3.2496,-3.2496,-3.2496,-3.2496,-3.2496,-3.2425,-3.2398,-3.2398,-3.2398,-3.2398,-3.2398,-3.2398,-3.2398,-3.2398,-3.2398,-3.2721,-3.3398,-3.3798,-3.4181,-3.4505,-3.4505,-3.4505,-3.4474,-3.3721,-3.3398,-3.3352,-3.2675,-3.2398,-3.2398,-3.2398,-3.2398,-3.2398,-3.2398,-3.2398,-3.2398,-3.2398,-3.2398,-3.2398,-3.2398,-3.2398,-3.2398,-3.2398,-3.2398,-3.2398,-3.2398,-3.2398,-3.2398,-3.2398,-3.2398,-3.2398,-3.2398,-3.2398,-3.2398,-3.2398,-3.2398,-3.2398,-3.2398,-3.2398,-3.2398,-3.2398,-3.2398,-3.2398,-3.2398,-3.2398,-3.2398,-3.2398,-3.2398,0.0,-3.2398,-3.2398,-3.2398,-3.2398,-3.2398,-3.237,-3.2287,-3.2287,0.0,-3.2094,-3.2025,-3.1798,-3.1351,-3.1611,-3.135,-3.0524,-3.0419,-2.9889,-2.8871,-2.8871,-2.8712,-2.839,-2.8091,-2.7827,-2.7575,-2.7262,-2.6817,-2.6282,-2.6282,-2.6282,-2.6229,-2.5654,-2.5615,-2.5855,-2.5249,-2.4844,-2.4642,-3.2676,-3.2578,-3.248,-3.248,-3.248,-3.2453,-3.2425,-3.2453,-3.2453,-3.2425,-3.2551,-3.2648,-3.2648,-3.2648,-3.2648,-3.2648,-3.2551,-3.2453,-3.2398,-3.2398,-3.2398,-3.2398,-3.2398,-3.2398,-3.2398,-3.2398,-3.2675,-3.3244,-3.3244,-3.3567,-3.4181,-3.4181,-3.4181,-3.4166,-3.3521,-3.3244,-3.3213,-3.2628,-3.2398,-3.2398,-3.2398,-3.2398,-3.2398,-3.2398,-3.2398,-3.2398,-3.2398,-3.2398,-3.2398,-3.2398,-3.2398,-3.2398,-3.2398,-3.2398,-3.2398,-3.2398,-3.2398,-3.2398,-3.2398,-3.2398,-3.2398,-3.2398,-3.2398,-3.2398,-3.2398,-3.2398,-3.2398,-3.2398,-3.2398,-3.2398,-3.2398,-3.2398,-3.2398,-3.2398,-3.2398,-3.2398,-3.2398,0.0,-3.2398,-3.2398,-3.2398,-3.2398,-3.2398,-3.2398,-3.2398,-3.2398,-3.2398,-3.2342,-3.2163,-3.2178,-3.1781,-3.0925,-3.1322,-3.1219,-3.0524,-3.097,-3.0896,-3.0359,-3.0168,-2.9834,-2.9317,-2.847,-2.7885,-2.7494,-2.6858,-2.6229,-2.5694,-2.5694,-2.5725,-2.5752,-2.5205,-2.5123,-2.5183,-2.4572,-2.4361,-2.4419,-3.3016,-3.2908,-3.2816,-3.2816,-3.2816,-3.2773,-3.2578,-3.2718,-3.2746,-3.2578,-3.2746,-3.2843,-3.2843,-3.2843,-3.2843,-3.2843,-3.2843,-3.2703,-3.2425,-3.2398,-3.2398,-3.2398,-3.2398,-3.2398,-3.2398,-3.2398,-3.2444,-3.2552,-3.2552,-3.2613,-3.2721,-3.2721,-3.2721,-3.2705,-3.2598,-3.2552,-3.2552,-3.2444,-3.2398,-3.2398,-3.2398,-3.2398,-3.2398,-3.2398,-3.2398,-3.2398,-3.2398,-3.2398,-3.2398,-3.2398,-3.2398,-3.2398,-3.2398,-3.2398,-3.2398,-3.2398,-3.2398,-3.2398,-3.2398,-3.2398,-3.2398,-3.2398,-3.2398,-3.2398,-3.2398,-3.2398,-3.2398,-3.2398,-3.2398,-3.2398,-3.2398,-3.2398,-3.2398,-3.2398,-3.2398,-3.2398,-3.2398,0.0,-3.2398,-3.2398,-3.2398,-3.2398,-3.2398,-3.2398,-3.2398,-3.2398,-3.2398,-3.2287,-3.2038,-3.2038,-3.184,-3.1409,-3.1626,-3.1351,-3.0524,-3.0042,-2.9766,-2.9628,-2.8629,-2.8328,-2.8602,-2.695,-2.6454,-2.6828,-2.6196,-2.5628,-2.5136,-2.5136,-2.5398,-2.5751,-2.5228,-2.5597,-2.6354,-2.5772,-2.555,-2.555,-3.3085,-3.2908,-3.2773,-3.287,-3.2897,-3.287,-3.2773,-3.2843,-3.287,-3.2773,-3.2924,-3.3005,-3.3005,-3.3005,-3.3005,-3.3005,-3.2924,-3.2773,-3.2523,-3.2523,-3.2523,-3.2523,-3.2425,-3.2398,-3.2398,-3.2398,-3.2398,-3.2398,-3.2398,-3.2398,-3.2398,-3.2398,-3.2398,-3.2398,-3.2398,-3.2398,-3.2398,-3.2398,-3.2398,-3.2398,-3.2398,-3.2398,-3.2398,-3.2398,-3.2398,-3.2398,-3.2398,-3.2398,-3.2398,-3.2398,-3.2398,-3.2398,-3.2398,-3.2398,-3.2398,-3.2398,-3.2398,-3.2398,-3.2398,-3.2398,-3.2398,-3.2398,-3.2398,-3.2398,-3.2398,-3.2398,-3.2398,-3.2398,-3.2398,-3.2398,-3.2398,-3.2398,-3.2398,-3.2398,-3.2398,0.0,0.0,-3.2398,-3.2398,-3.2398,-3.2398,-3.2398,-3.2398,-3.2342,-3.2287,-3.2287,-3.2219,-3.2094,-3.1898,-3.1898,-3.1603,-3.0986,-3.1402,-3.1438,-3.1029,-3.0748,-3.0409,-3.0046,-2.9477,-2.9186,-2.9041,-2.787,-2.7282,-2.7197,-2.6567,-2.5957,-2.5413,-2.5413,-2.5571,-2.5784,-2.5522,-2.5758,-2.6175,-2.5895,-2.5783,-2.5837,-3.3123,-3.2947,-3.2812,-3.2978,-3.3005,-3.2978,-3.2951,-3.2978,-3.2978,-3.2951,-3.3058,-3.315,-3.315,-3.315,-3.315,-3.315,-3.3032,-3.2897,-3.273,-3.2648,-3.2578,-3.2551,-3.2453,-3.2398,-3.2398,-3.2398,-3.2398,-3.2398,-3.2398,-3.2398,-3.2398,-3.2398,-3.2398,-3.2398,-3.2398,-3.2398,-3.2398,-3.2398,-3.2398,-3.2398,-3.2398,-3.2398,-3.2398,-3.2398,-3.2398,-3.2398,-3.2398,-3.2398,-3.2398,-3.2398,-3.2398,-3.2398,-3.2398,-3.2398,-3.2398,-3.2398,-3.2398,-3.2398,-3.2398,-3.2398,-3.2398,-3.2398,-3.2398,-3.2398,-3.2398,-3.2398,-3.2398,-3.2398,-3.2398,-3.2398,-3.2398,-3.2398,-3.2398,-3.2398,0.0,0.0,0.0,-3.2398,-3.2398,-3.2398,-3.2398,-3.2398,-3.2398,-3.2274,-3.2191,-3.2191,-3.2066,-3.194,-3.1828,-3.1799,-3.1411,-3.0522,-3.0987,-3.1197,-3.1062,-3.1197,-3.0956,-3.0325,-3.0035,-2.9727,-2.9387,-2.8429,-2.7818,-2.7432,-2.6778,-2.6231,-2.5783,-2.5783,-2.5864,-2.6014,-2.6014,-2.6081,-2.6215,-2.6215,-2.6215,-2.6269,-3.3282,-3.3282,-3.324,-3.3282,-3.3282,-3.3229,-3.3096,-3.3203,-3.3229,-3.3096,-3.3203,-3.3282,-3.3282,-3.3282,-3.3282,-3.3282,-3.315,-3.3085,-3.3069,-3.2784,-3.2551,-3.2425,-3.2425,-3.2398,-3.2398,-3.2398,-3.2398,-3.2398,-3.2398,-3.2398,-3.2398,-3.2398,-3.2398,-3.2398,-3.2398,-3.2398,-3.2398,-3.2398,-3.2398,-3.2398,-3.2398,-3.2398,-3.2398,-3.2398,-3.2398,-3.2398,-3.2398,-3.2398,-3.2398,-3.2398,-3.2398,-3.2398,-3.2398,-3.2398,-3.2398,-3.2398,-3.2398,-3.2398,-3.2398,-3.2398,-3.2398,-3.2398,-3.2398,-3.2398,-3.2398,-3.2398,-3.2398,-3.2398,-3.2398,-3.2398,-3.2398,-3.2398,-3.2398,-3.2398,0.0,0.0,-3.2398,-3.2398,-3.2398,-3.2398,-3.2398,-3.2398,-3.2398,-3.2274,-3.2191,-3.2191,-3.2066,-3.194,-3.1828,-3.1799,-3.1411,-3.0522,-3.0552,-3.0313,-2.9756,-3.0298,-3.0323,-2.9843,-2.8645,-2.836,-2.8789,-2.7008,-2.6396,-2.6722,-2.6133,-2.5825,-2.5783,-2.5783,-2.6122,-2.6616,-2.6616,-2.6997,-2.7458,-2.7458,-2.7458,-2.7458,-3.3266,-3.3229,-3.3203,-3.3282,-3.3309,-3.3282,-3.3229,-3.3282,-3.3282,-3.3229,-3.3282,-3.3282,-3.3176,-3.3176,-3.3123,-3.3058,-3.3005,-3.2908,-3.2784,-3.2676,-3.2551,-3.2425,-3.2398,-3.2398,-3.2398,-3.2398,-3.2398,-3.2398,-3.2398,-3.2398,-3.2398,-3.2398,-3.2398,-3.2398,-3.2398,-3.2398,-3.2398,-3.2398,-3.2398,-3.2398,-3.2398,-3.2398,-3.2398,-3.2398,-3.2398,-3.2398,-3.2398,-3.2398,-3.2398,-3.2398,-3.2398,-3.2398,-3.2398,-3.2398,-3.2398,-3.2398,-3.2398,-3.2398,-3.2398,-3.2398,-3.2398,-3.2398,-3.2398,-3.2398,-3.2398,-3.2398,-3.2398,-3.2398,-3.2398,-3.2398,-3.2398,-3.2398,-3.2398,-3.2398,0.0,-3.2398,-3.2398,-3.2398,-3.2398,-3.2398,-3.2398,-3.2398,-3.2398,-3.2191,-3.2066,-3.2066,-3.1531,-3.1136,-3.0996,-3.0313,-2.9837,-2.9565,-2.9565,-2.9614,-2.9729,-3.0021,-2.9905,-2.9297,-2.8734,-2.8353,-2.8137,-2.7358,-2.7099,-2.724,-2.7033,-2.6916,-2.6916,-2.6916,-2.706,-2.7255,-2.7255,-2.7408,-2.76,-2.76,-2.76,-2.76,-3.3282,-3.3229,-3.3203,-3.3266,-3.3309,-3.3309,-3.3309,-3.3309,-3.3309,-3.3309,-3.3309,-3.3256,-3.3096,-3.3096,-3.3058,-3.2897,-3.2843,-3.2746,-3.2621,-3.2551,-3.2496,-3.2398,-3.2398,-3.2398,-3.2398,-3.2398,-3.2398,-3.2398,-3.2398,-3.2398,-3.2398,-3.2398,-3.2398,-3.2398,-3.2398,-3.2398,-3.2398,-3.2398,-3.2398,-3.2398,-3.2398,-3.2398,-3.2398,-3.2398,-3.2398,-3.2398,-3.2398,-3.2398,-3.2398,-3.2398,-3.2398,-3.2398,-3.2398,-3.2398,-3.2398,-3.2398,-3.2398,-3.2398,-3.2398,-3.2398,-3.2398,-3.2398,-3.2398,-3.2398,-3.2398,-3.2398,-3.2398,-3.2398,-3.2398,-3.2398,-3.2398,-3.2398,-3.2398,-3.2398,-3.2398,-3.2398,-3.2398,-3.2213,-3.2074,-3.2074,-3.1863,-3.1712,-3.1767,-3.1525,-3.1387,-3.1414,-3.0837,-3.0443,-3.0346,-2.9414,-2.8888,-2.9006,-2.8834,-2.8915,-2.9229,-2.9531,-2.9355,-2.8688,-2.8586,-2.8293,-2.779,-2.77,-2.765,-2.76,-2.76,-2.76,-2.76,-2.765,-2.765,-2.76,-2.765,-2.765,-2.76,-2.76,-2.76,-2.76,-3.3309,-3.3309,-3.3309,-3.3309,-3.3309,-3.3309,-3.3309,-3.3309,-3.3309,-3.3309,-3.3309,-3.3256,-3.3096,-3.3096,-3.3043,-3.2912,-3.2718,-3.2594,-3.2594,-3.2453,-3.2398,-3.2398,-3.2398,-3.2398,-3.2398,-3.2398,-3.2398,-3.2398,-3.2398,-3.2398,-3.2398,-3.2398,-3.2398,-3.2398,-3.2398,-3.2398,-3.2398,-3.2398,-3.2398,-3.2398,-3.2398,-3.2398,-3.2398,-3.2398,-3.2398,-3.2398,-3.2398,-3.2398,-3.2398,-3.2398,-3.2398,-3.2398,-3.2398,-3.2398,-3.2398,-3.2398,-3.2398,-3.2398,-3.2398,-3.2398,-3.2398,-3.2398,-3.2398,-3.2398,-3.2398,-3.2398,-3.2398,-3.2398,-3.2398,-3.2398,-3.2398,-3.2398,-3.2398,-3.2398,-3.2398,-3.2398,-3.2382,-3.1813,-3.1409,-3.1393,-3.0692,-3.0241,-3.0402,-3.0166,-3.0046,-3.0204,-3.0072,-3.0008,-2.9993,-2.9355,-2.8991,-2.9006,-2.8488,-2.8152,-2.7995,-2.8672,-2.8672,-2.7995,-2.7995,-2.793,-2.779,-2.779,-2.774,-2.76,-2.76,-2.76,-2.7625,-2.774,-2.7715,-2.7625,-2.7765,-2.7715,-2.76,-2.76,-2.76,-2.76,-3.3909,-3.3625,-3.3309,-3.3309,-3.3309,-3.3309,-3.3309,-3.3309,-3.3309,-3.3309,-3.3309,-3.3203,-3.2978,-3.2951,-3.2854,-3.2578,-3.2496,-3.2453,-3.2453,-3.2425,-3.2398,-3.2398,-3.2398,-3.2398,-3.2398,-3.2398,-3.2398,-3.2398,-3.2398,-3.2398,-3.2398,-3.2398,-3.2398,-3.2398,-3.2398,-3.2398,-3.2398,-3.2398,-3.2398,-3.2398,-3.2398,-3.2398,-3.2398,-3.2398,-3.2398,-3.2398,-3.2398,-3.2398,-3.2398,-3.2398,-3.2398,-3.2398,-3.2398,-3.2398,-3.2398,-3.2398,-3.2398,-3.2398,-3.2398,-3.2398,-3.2398,-3.2398,-3.2398,-3.2398,-3.2398,-3.2398,-3.2398,-3.2398,-3.2398,-3.2398,-3.2398,-3.2398,-3.2398,-3.2398,-3.2398,-3.2228,-3.1751,-3.1547,-3.1228,-3.0766,-3.0483,-3.036,-3.0402,-3.0658,-3.0853,-3.0892,-3.0331,-2.9874,-2.9582,-2.8859,-2.8467,-2.8581,-2.8318,-2.8186,-2.8137,-2.8335,-2.8301,-2.7995,-2.7905,-2.784,-2.779,-2.77,-2.765,-2.7625,-2.77,-2.7675,-2.7625,-2.774,-2.7715,-2.76,-2.765,-2.765,-2.76,-2.76,-2.76,-2.76,-3.4273,-3.3972,-3.3609,-3.3356,-3.3309,-3.3309,-3.3309,-3.3309,-3.3309,-3.3309,-3.3309,-3.3203,-3.2924,-3.2897,-3.2773,-3.2425,-3.2398,-3.2398,-3.2398,-3.2398,-3.2398,-3.2398,-3.2398,-3.2398,-3.2398,-3.2398,-3.2398,-3.2398,-3.2398,-3.2398,-3.2398,-3.2398,-3.2398,-3.2398,-3.2398,-3.2398,-3.2398,-3.2398,-3.2398,-3.2398,-3.2398,-3.2398,-3.2398,-3.2398,-3.2398,-3.2398,-3.2398,-3.2398,-3.2398,-3.2398,-3.2398,-3.2398,-3.2398,-3.2398,-3.2398,-3.2398,-3.2398,-3.2398,-3.2398,-3.2398,-3.2398,-3.2398,-3.2398,-3.2398,-3.2398,-3.2398,-3.2398,-3.2398,-3.2398,-3.2398,-3.2398,-3.2398,-3.2398,-3.2398,-3.2398,-3.2259,-3.1844,-3.1336,-3.0859,-3.0448,-2.9884,-2.9536,-2.9602,-3.0083,-3.0429,-3.0481,-2.9739,-2.919,-2.8928,-2.8415,-2.8152,-2.8241,-2.8152,-2.8088,-2.8039,-2.8088,-2.8054,-2.793,-2.7905,-2.784,-2.779,-2.7765,-2.774,-2.7675,-2.7765,-2.7715,-2.7625,-2.774,-2.7715,-2.7625,-2.765,-2.765,-2.76,-2.76,-2.76,-2.76,-3.4525,-3.4336,-3.4083,-3.3419,-3.3309,-3.3309,-3.3266,-3.3282,-3.3282,-3.3282,-3.3282,-3.3176,-3.2924,-3.2897,-3.2773,-3.2425,-3.2398,-3.2398,-3.2398,-3.2398,-3.2398,-3.2398,-3.2398,-3.2398,-3.2398,-3.2398,-3.2398,-3.2398,-3.2398,-3.2398,-3.2398,-3.2398,-3.2398,-3.2398,-3.2398,-3.2398,-3.2398,-3.2398,-3.2398,-3.2398,-3.2398,-3.2398,-3.2398,-3.2398,-3.2398,-3.2398,-3.2398,-3.2398,-3.2398,-3.2398,-3.2398,-3.2398,-3.2398,-3.2398,-3.2398,-3.2398,-3.2398,-3.2398,-3.2398,-3.2398,-3.2398,-3.2398,-3.2398,-3.2398,-3.2398,-3.2398,-3.2398,-3.2398,-3.2398,-3.2398,-3.2398,-3.2398,-3.2398,-3.2398,-3.2336,-3.2275,-3.2228,-3.1136,-3.0279,-3.0217,-2.9051,-2.8259,-2.8387,-2.8912,-2.9301,-2.9464,-2.8734,-2.8278,-2.8278,-2.8084,-2.7995,-2.7995,-2.7995,-2.793,-2.7815,-2.793,-2.793,-2.779,-2.793,-2.793,-2.7815,-2.793,-2.793,-2.779,-2.779,-2.7715,-2.7625,-2.774,-2.7715,-2.7625,-2.774,-2.77,-2.76,-2.76,-2.76,-2.76,-3.5189,-3.4683,-3.4083,-3.3419,-3.3309,-3.324,-3.315,-3.315,-3.315,-3.315,-3.315,-3.3085,-3.2924,-3.2897,-3.2773,-3.2425,-3.2398,-3.2398,-3.2398,-3.2398,-3.2398,-3.2398,-3.2398,-3.2398,-3.2398,-3.2398,-3.2398,-3.2398,-3.2398,-3.2398,-3.2398,-3.2398,-3.2398,-3.2398,-3.2398,-3.2398,-3.2398,-3.2398,-3.2398,-3.2398,-3.2398,-3.2398,-3.2398,-3.2398,-3.2398,-3.2398,-3.2398,-3.2398,-3.2398,-3.2398,-3.2398,-3.2398,-3.2398,-3.2398,-3.2398,-3.2398,-3.2398,-3.2398,-3.2398,-3.2398,-3.2398,-3.2398,-3.2398,-3.2398,-3.2398,-3.2398,-3.2398,-3.2398,-3.2398,-3.2398,-3.2398,-3.2398,-3.2398,-3.2398,-3.1951,-3.1428,-3.0894,-3.0125,-2.9417,-2.8904,-2.8556,-2.8372,-2.8411,-2.8987,-2.9551,-2.9996,-2.9373,-2.8931,-2.8829,-2.8293,-2.7995,-2.7995,-2.7995,-2.798,-2.7955,-2.798,-2.793,-2.779,-2.793,-2.798,-2.7955,-2.788,-2.7815,-2.779,-2.779,-2.7715,-2.7625,-2.774,-2.7715,-2.76,-2.7625,-2.7625,-2.76,-2.76,-2.76,-2.76,-3.5884,-3.5512,-3.49,-3.3957,-3.3664,-3.3516,-3.3223,-3.3123,-3.3123,-3.3176,-3.3203,-3.315,-3.3005,-3.3005,-3.2854,-3.2508,-3.2425,-3.2398,-3.2398,-3.2398,-3.2398,-3.2398,-3.2398,-3.2398,-3.2398,-3.2398,-3.2398,-3.2398,-3.2398,-3.2398,-3.2398,-3.2398,-3.2398,-3.2398,-3.2398,-3.2398,-3.2398,-3.2398,-3.2398,-3.2398,-3.2398,-3.2398,-3.2398,-3.2398,-3.2398,-3.2398,-3.2398,-3.2398,-3.2398,-3.2398,-3.2398,-3.2398,-3.2398,-3.2398,-3.2398,-3.2398,-3.2398,-3.2398,-3.2398,-3.2398,-3.2398,-3.2398,-3.2398,-3.2398,-3.2398,-3.2398,-3.2398,-3.2398,-3.2398,-3.2398,-3.2398,-3.2136,-3.1905,-3.1905,-3.1366,-3.0812,-3.0448,-2.9817,-2.9264,-2.8935,-2.8596,-2.851,-2.8744,-2.8805,-2.9072,-2.9694,-2.9037,-2.8621,-2.8621,-2.8227,-2.7995,-2.7995,-2.7995,-2.7995,-2.7995,-2.8054,-2.8063,-2.7989,-2.8063,-2.8103,-2.8103,-2.8014,-2.7965,-2.7905,-2.7815,-2.7715,-2.7625,-2.7675,-2.765,-2.76,-2.76,-2.76,-2.76,-2.76,-2.76,-2.76,-3.6424,-3.6306,-3.5836,-3.4514,-3.4101,-3.3815,-3.334,-3.3176,-3.3123,-3.3256,-3.3282,-3.3229,-3.3096,-3.3043,-3.2893,-3.2578,-3.2453,-3.2398,-3.2398,-3.2398,-3.2398,-3.2398,-3.2398,-3.2398,-3.2398,-3.2398,-3.2398,-3.2398,-3.2398,-3.2398,-3.2398,-3.2398,-3.2398,-3.2398,-3.2398,-3.2398,-3.2398,-3.2398,-3.2398,-3.2398,-3.2398,-3.2398,-3.2398,-3.2398,-3.2398,-3.2398,-3.2398,-3.2398,-3.2398,-3.2398,-3.2398,-3.2398,-3.2398,-3.2398,-3.2398,-3.2398,-3.2398,-3.2398,-3.2398,-3.2398,-3.2398,-3.2398,-3.2398,-3.2398,-3.2398,-3.2305,-3.2259,-3.2367,-3.2305,-3.2259,-3.2367,-3.1844,-3.1409,-3.1409,-3.0751,-3.0217,-3.0217,-2.9648,-2.9243,-2.9243,-2.8842,-2.8701,-2.9031,-2.8664,-2.8562,-2.9006,-2.8408,-2.8079,-2.8162,-2.8054,-2.7995,-2.7995,-2.8005,-2.8005,-2.7995,-2.8137,-2.8186,-2.8162,-2.8162,-2.8186,-2.821,-2.8186,-2.8088,-2.7955,-2.7815,-2.7715,-2.7625,-2.7625,-2.7625,-2.7625,-2.7625,-2.76,-2.76,-2.76,-2.76,-2.76,-3.6519,-3.6393,-3.5935,-3.4541,-3.4261,-3.3986,-3.326,-3.3096,-3.3112,-3.3123,-3.3123,-3.3123,-3.3096,-3.2839,-3.2605,-3.2425,-3.2425,-3.2398,-3.2398,-3.2398,-3.2398,-3.2398,-3.2398,-3.2398,-3.2398,-3.2398,-3.2398,-3.2398,-3.2398,-3.2398,-3.2398,-3.2398,-3.2398,-3.2398,-3.2398,-3.2398,-3.2398,-3.2398,-3.2398,-3.2398,-3.2398,-3.2398,-3.2398,-3.2398,-3.2398,-3.2398,-3.2398,-3.2398,-3.2398,-3.2398,-3.2398,-3.2398,-3.2398,-3.2398,-3.2398,-3.2398,-3.2398,-3.2398,-3.2398,-3.2398,-3.2398,-3.2398,-3.2398,-3.2398,-3.2398,-3.1936,-3.169,-3.2275,-3.1921,-3.1705,-3.2275,-3.1844,-3.1409,-3.1409,-3.0351,-2.9525,-2.9525,-2.8965,-2.855,-2.855,-2.8981,-2.9064,-2.8556,-2.8956,-2.8983,-2.8379,-2.8232,-2.8137,-2.8029,-2.802,-2.7995,-2.7995,-2.8113,-2.8128,-2.7995,-2.8137,-2.8137,-2.8029,-2.8029,-2.8079,-2.8186,-2.8079,-2.7955,-2.7815,-2.7675,-2.7675,-2.7765,-2.765,-2.7675,-2.7765,-2.765,-2.76,-2.76,-2.76,-2.76,-2.76,-3.7006,-3.6902,-3.6432,-3.5142,-3.475,-3.4305,-3.336,-3.315,-3.3123,-3.3203,-3.315,-3.3096,-3.3096,-3.2784,-3.2621,-3.2676,-3.2523,-3.2425,-3.2523,-3.2523,-3.2523,-3.2523,-3.2523,-3.248,-3.2398,-3.2398,-3.2398,-3.2398,-3.2398,-3.2398,-3.2398,-3.2398,-3.2398,-3.2398,-3.2398,-3.2398,-3.2398,-3.2398,-3.2398,-3.2398,-3.2398,-3.2398,-3.2398,-3.2398,-3.2398,-3.2398,-3.2398,-3.2398,-3.2398,-3.2398,-3.2398,-3.2398,-3.2398,-3.2398,-3.2398,-3.2398,-3.2398,-3.2465,-3.2776,-3.2614,-3.2465,-3.2761,-3.2841,-3.2776,-3.2465,-3.1834,-3.1498,-3.2249,-3.2151,-3.1921,-3.1871,-3.1289,-3.072,-3.0335,-2.9473,-2.8842,-2.8842,-2.8596,-2.855,-2.8919,-2.9541,-2.9807,-2.9449,-2.9654,-2.97,-2.9358,-2.9327,-2.9302,-2.9358,-2.8915,-2.8677,-2.8677,-2.8652,-2.8617,-2.8566,-2.8617,-2.8617,-2.8566,-2.8246,-2.8088,-2.8079,-2.8029,-2.7955,-2.7905,-2.7765,-2.7765,-2.779,-2.765,-2.7625,-2.7675,-2.7625,-2.76,-2.76,-2.76,-2.76,-2.76]},{"header":{"parameterUnit":"m.s-1","parameterCategory":1,"la1":30.6,"la2":28.766,"lo1":-90.7593,"lo2":-88.6598,"dy":0.0162,"dx":0.0183,"nx":116,"ny":114,"refTime":"2023-08-16T06:00:00:Z","depth":0,"parameterNumber":3,"parameterNumberName":"V-component_of_WINDS"},"data":[0.0,0.0,0.0,0.0,0.0,0.0,0.0,0.0,0.0,0.0,0.0,0.0,0.0,0.0,0.0,0.0,0.0,0.0,0.0,0.0,0.0,0.0,0.0,0.0,0.0,0.0,0.0,0.0,0.0,0.0,0.0,0.0,0.0,0.0,0.0,0.0,0.0,0.0,0.0,0.0,0.0,0.0,0.0,0.0,0.0,0.0,0.0,0.0,0.0,0.0,0.0,0.0,0.0,0.0,0.0,0.0,0.0,0.0,0.0,0.0,0.0,0.0,0.0,0.0,0.0,0.0,0.0,0.0,0.0,0.0,0.0,0.0,0.0,0.0,0.0,0.0,0.0,0.0,0.0,0.0,0.0,0.0,0.0,0.0,0.0,0.0,0.0,0.0,0.0,0.0,0.0,0.0,0.0,0.0,0.0,0.0,0.0,0.0,0.0,0.0,0.0,0.0,0.0,0.0,0.0,0.0,0.0,0.0,0.0,0.0,0.0,0.0,0.0,0.0,0.0,0.0,0.0,0.0,0.0,0.0,0.0,0.0,0.0,0.0,0.0,0.0,0.0,0.0,0.0,0.0,0.0,0.0,0.0,0.0,0.0,0.0,0.0,0.0,0.0,0.0,0.0,0.0,0.0,0.0,0.0,0.0,0.0,0.0,0.0,0.0,0.0,0.0,0.0,0.0,0.0,0.0,0.0,0.0,0.0,0.0,0.0,0.0,0.0,0.0,0.0,0.0,0.0,0.0,0.0,0.0,0.0,0.0,0.0,0.0,0.0,0.0,0.0,0.0,0.0,0.0,0.0,0.0,0.0,0.0,0.0,0.0,0.0,0.0,0.0,0.0,0.0,0.0,0.0,0.0,0.0,0.0,0.0,0.0,0.0,0.0,0.0,0.0,0.0,0.0,0.0,0.0,0.0,0.0,0.0,0.0,0.0,0.0,0.0,0.0,0.0,0.0,0.0,0.0,0.0,0.0,0.0,0.0,0.0,0.0,0.0,0.0,0.0,0.0,0.0,0.0,0.0,0.0,0.0,0.0,0.0,0.0,0.0,0.0,0.0,0.0,0.0,0.0,0.0,0.0,0.0,0.0,0.0,0.0,0.0,0.0,0.0,0.0,0.0,0.0,0.0,0.0,0.0,0.0,0.0,0.0,0.0,0.0,0.0,0.0,0.0,0.0,0.0,0.0,0.0,0.0,0.0,0.0,0.0,0.0,0.0,0.0,0.0,0.0,0.0,0.0,0.0,0.0,0.0,0.0,0.0,0.0,0.0,0.0,0.0,0.0,0.0,0.0,0.0,0.0,0.0,0.0,0.0,0.0,0.0,0.0,0.0,0.0,0.0,0.0,0.0,0.0,0.0,0.0,0.0,0.0,0.0,0.0,0.0,0.0,0.0,0.0,0.0,0.0,0.0,0.0,0.0,0.0,0.0,0.0,0.0,0.0,0.0,0.0,0.0,0.0,0.0,0.0,0.0,0.0,0.0,0.0,0.0,0.0,0.0,0.0,0.0,0.0,0.0,0.0,0.0,0.0,0.0,0.0,0.0,0.0,0.0,0.0,0.0,0.0,0.0,0.0,0.0,0.0,0.0,0.0,0.0,0.0,0.0,0.0,0.0,0.0,0.0,0.0,0.0,0.0,0.0,0.0,0.0,0.0,0.0,0.0,0.0,0.0,0.0,0.0,0.0,0.0,0.0,0.0,0.0,0.0,0.0,0.0,0.0,0.0,0.0,0.0,0.0,0.0,0.0,0.0,0.0,0.0,0.0,0.0,0.0,0.0,0.0,0.0,0.0,0.0,0.0,0.0,0.0,0.0,0.0,0.0,0.0,0.0,0.0,0.0,0.0,0.0,0.0,0.0,0.0,0.0,0.0,0.0,0.0,0.0,0.0,0.0,0.0,0.0,0.0,0.0,0.0,0.0,0.0,0.0,0.0,0.0,0.0,0.0,0.0,0.0,0.0,0.0,0.0,0.0,0.0,0.0,0.0,0.0,0.0,0.0,0.0,0.0,0.0,0.0,0.0,0.0,0.0,0.0,0.0,0.0,0.0,0.0,0.0,0.0,0.0,0.0,0.0,0.0,0.0,0.0,0.0,0.0,0.0,0.0,0.0,0.0,0.0,0.0,0.0,0.0,0.0,0.0,0.0,0.0,0.0,0.0,0.0,0.0,0.0,0.0,0.0,0.0,0.0,0.0,0.0,0.0,0.0,0.0,0.0,0.0,0.0,0.0,0.0,0.0,0.0,0.0,0.0,0.0,0.0,0.0,0.0,0.0,0.0,0.0,0.0,0.0,0.0,0.0,0.0,0.0,0.0,0.0,0.0,0.0,0.0,0.0,0.0,0.0,0.0,0.0,0.0,0.0,0.0,0.0,0.0,0.0,0.0,0.0,0.0,0.0,0.0,0.0,0.0,0.0,0.0,0.0,0.0,0.0,0.0,0.0,0.0,0.0,0.0,0.0,0.0,0.0,0.0,0.0,0.0,0.0,0.0,0.0,0.0,0.0,0.0,0.0,0.0,0.0,0.0,0.0,0.0,0.0,0.0,0.0,0.0,0.0,0.0,0.0,0.0,0.0,0.0,0.0,0.0,0.0,0.0,0.0,0.0,0.0,0.0,0.0,0.0,0.0,0.0,0.0,0.0,0.0,0.0,0.0,0.0,0.0,0.0,0.0,0.0,0.0,0.0,0.0,0.0,0.0,0.0,0.0,0.0,0.0,0.0,0.0,0.0,0.0,0.0,0.0,0.0,0.0,0.0,0.0,0.0,0.0,0.0,0.0,0.0,0.0,0.0,0.0,0.0,0.0,0.0,0.0,0.0,0.0,0.0,0.0,0.0,0.0,0.0,0.0,0.0,0.0,0.0,0.0,0.0,0.0,0.0,0.0,0.0,0.0,0.0,0.0,0.0,0.0,0.0,0.0,0.0,0.0,0.0,0.0,0.0,0.0,0.0,0.0,0.0,0.0,0.0,0.0,0.0,0.0,0.0,0.0,0.0,0.0,0.0,0.0,0.0,0.0,0.0,0.0,0.0,0.0,0.0,0.0,0.0,0.0,0.0,0.0,0.0,0.0,0.0,0.0,0.0,0.0,0.0,0.0,0.0,0.0,0.0,0.0,0.0,0.0,0.0,0.0,0.0,0.0,0.0,0.0,0.0,0.0,0.0,0.0,0.0,0.0,0.0,0.0,0.0,0.0,0.0,0.0,0.0,0.0,0.0,0.0,0.0,0.0,0.0,0.0,0.0,0.0,0.0,0.0,0.0,0.0,0.0,0.0,0.0,0.0,0.0,0.0,0.0,0.0,0.0,0.0,0.0,0.0,0.0,0.0,0.0,0.0,0.0,0.0,0.0,0.0,0.0,0.0,0.0,0.0,0.0,0.0,0.0,0.0,0.0,0.0,0.0,0.0,0.0,0.0,0.0,0.0,0.0,0.0,0.0,0.0,0.0,0.0,0.0,0.0,0.0,0.0,0.0,0.0,0.0,0.0,0.0,0.0,0.0,0.0,0.0,0.0,0.0,0.0,0.0,0.0,0.0,0.0,0.0,0.0,0.0,0.0,0.0,0.0,0.0,0.0,0.0,0.0,0.0,0.0,0.0,0.0,0.0,0.0,0.0,0.0,0.0,0.0,0.0,0.0,0.0,0.0,0.0,0.0,0.0,0.0,0.0,0.0,0.0,0.0,0.0,0.0,0.0,0.0,0.0,0.0,0.0,0.0,0.0,0.0,0.0,0.0,0.0,0.0,0.0,0.0,0.0,0.0,0.0,0.0,0.0,0.0,0.0,0.0,0.0,0.0,0.0,0.0,0.0,0.0,0.0,0.0,0.0,0.0,0.0,0.0,0.0,0.0,0.0,0.0,0.0,0.0,0.0,0.0,0.0,0.0,0.0,0.0,0.0,0.0,0.0,0.0,0.0,0.0,0.0,0.0,0.0,0.0,0.0,0.0,0.0,0.0,0.0,0.0,0.0,0.0,0.0,0.0,0.0,0.0,0.0,0.0,0.0,0.0,0.0,0.0,0.0,0.0,0.0,0.0,0.0,0.0,0.0,0.0,0.0,0.0,0.0,0.0,0.0,0.0,0.0,0.0,0.0,0.0,0.0,0.0,0.0,0.0,0.0,0.0,0.0,0.0,0.0,0.0,0.0,0.0,0.0,0.0,0.0,0.0,0.0,0.0,0.0,0.0,0.0,0.0,0.0,0.0,0.0,0.0,0.0,0.0,0.0,0.0,0.0,0.0,0.0,0.0,0.0,0.0,0.0,0.0,0.0,0.0,0.0,0.0,0.0,0.0,0.0,0.0,0.0,0.0,0.0,0.0,0.0,0.0,0.0,0.0,0.0,0.0,0.0,0.0,0.0,0.0,0.0,0.0,0.0,0.0,0.0,0.0,0.0,0.0,0.0,0.0,0.0,0.0,0.0,0.0,0.0,0.0,0.0,0.0,0.0,0.0,0.0,0.0,0.0,0.0,0.0,0.0,0.0,0.0,0.0,0.0,0.0,0.0,0.0,0.0,0.0,0.0,0.0,0.0,0.0,0.0,0.0,0.0,0.0,0.0,0.0,0.0,0.0,0.0,0.0,0.0,0.0,0.0,0.0,0.0,0.0,0.0,0.0,0.0,0.0,0.0,0.0,0.0,0.0,0.0,0.0,0.0,0.0,0.0,0.0,0.0,0.0,0.0,0.0,0.0,0.0,0.0,0.0,0.0,0.0,0.0,0.0,0.0,0.0,0.0,0.0,0.0,0.0,0.0,0.0,0.0,0.0,0.0,0.0,0.0,0.0,0.0,0.0,0.0,0.0,0.0,0.0,0.0,0.0,0.0,0.0,0.0,0.0,0.0,0.0,0.0,0.0,0.0,0.0,0.0,0.0,0.0,0.0,0.0,0.0,0.0,0.0,0.0,0.0,0.0,0.0,0.0,0.0,0.0,0.0,0.0,0.0,0.0,0.0,0.0,0.0,0.0,0.0,0.0,0.0,0.0,0.0,0.0,0.0,0.0,0.0,0.0,0.0,0.0,0.0,0.0,0.0,0.0,0.0,0.0,0.0,0.0,0.0,0.0,0.0,0.0,0.0,0.0,0.0,0.0,0.0,0.0,0.0,0.0,0.0,0.0,0.0,0.0,0.0,0.0,0.0,0.0,0.0,0.0,0.0,0.0,0.0,0.0,0.0,0.0,0.0,0.0,0.0,0.0,0.0,0.0,0.0,0.0,0.0,0.0,0.0,0.0,0.0,0.0,0.0,0.0,0.0,0.0,0.0,0.0,0.0,0.0,0.0,0.0,0.0,0.0,0.0,0.0,0.0,0.0,0.0,0.0,0.0,0.0,0.0,0.0,0.0,0.0,0.0,0.0,0.0,0.0,0.0,0.0,0.0,0.0,0.0,0.0,0.0,0.0,0.0,0.0,0.0,0.0,0.0,0.0,0.0,0.0,0.0,0.0,0.0,0.0,0.0,0.0,0.0,0.0,0.0,0.0,0.0,0.0,0.0,0.0,0.0,0.0,0.0,0.0,0.0,0.0,0.0,0.0,0.0,0.0,0.0,0.0,0.0,0.0,0.0,0.0,0.0,0.0,0.0,0.0,0.0,0.0,0.0,0.0,0.0,0.0,0.0,0.0,0.0,0.0,0.0,0.0,0.0,0.0,0.0,0.0,0.0,0.0,0.0,0.0,0.0,0.0,0.0,0.0,0.0,0.0,0.0,0.0,0.0,0.0,0.0,0.0,0.0,0.0,0.0,0.0,0.0,0.0,0.0,0.0,0.0,0.0,0.0,0.0,0.0,0.0,0.0,0.0,0.0,0.0,0.0,0.0,0.0,0.0,0.0,0.0,0.0,0.0,0.0,0.0,0.0,0.0,0.0,0.0,0.0,0.0,0.0,0.0,0.0,0.0,0.0,0.0,0.0,0.0,0.0,0.0,0.0,0.0,0.0,0.0,0.0,0.0,0.0,0.0,0.0,0.0,0.0,0.0,0.0,0.0,0.0,0.0,0.0,0.0,0.0,0.0,0.0,0.0,0.0,0.0,0.0,0.0,0.0,0.0,0.0,0.0,0.0,0.0,0.0,0.0,0.0,0.0,0.0,0.0,0.0,0.0,0.0,0.0,-3.5214,0.0,0.0,0.0,0.0,0.0,0.0,0.0,0.0,0.0,0.0,0.0,0.0,0.0,0.0,0.0,0.0,0.0,0.0,0.0,0.0,0.0,0.0,0.0,0.0,0.0,0.0,0.0,0.0,0.0,0.0,0.0,0.0,0.0,0.0,0.0,0.0,0.0,0.0,0.0,0.0,0.0,0.0,0.0,0.0,0.0,0.0,0.0,0.0,0.0,0.0,0.0,0.0,0.0,0.0,0.0,0.0,0.0,0.0,0.0,0.0,0.0,0.0,0.0,0.0,0.0,0.0,0.0,0.0,0.0,0.0,0.0,0.0,0.0,0.0,0.0,0.0,0.0,0.0,0.0,0.0,0.0,0.0,0.0,0.0,0.0,0.0,0.0,0.0,0.0,0.0,0.0,0.0,0.0,0.0,0.0,0.0,0.0,0.0,0.0,0.0,0.0,0.0,0.0,0.0,0.0,0.0,0.0,0.0,0.0,0.0,0.0,0.0,0.0,0.0,0.0,0.0,-3.6481,0.0,0.0,0.0,0.0,0.0,0.0,0.0,0.0,0.0,0.0,0.0,0.0,0.0,0.0,0.0,0.0,0.0,0.0,0.0,0.0,0.0,0.0,0.0,0.0,0.0,0.0,0.0,0.0,0.0,0.0,0.0,0.0,0.0,0.0,0.0,0.0,0.0,0.0,0.0,0.0,0.0,0.0,0.0,0.0,0.0,0.0,0.0,0.0,0.0,0.0,0.0,0.0,0.0,0.0,0.0,0.0,0.0,0.0,0.0,0.0,0.0,0.0,0.0,0.0,0.0,0.0,0.0,0.0,0.0,0.0,0.0,0.0,0.0,0.0,0.0,0.0,0.0,0.0,0.0,0.0,0.0,0.0,0.0,0.0,0.0,0.0,0.0,0.0,0.0,0.0,0.0,0.0,0.0,0.0,0.0,0.0,0.0,0.0,0.0,0.0,0.0,0.0,0.0,0.0,0.0,0.0,0.0,0.0,-3.7786,-3.7982,-3.9149,-3.9883,-4.0209,-4.014,-3.8688,-3.7831,-3.7483,-3.7457,0.0,0.0,0.0,0.0,0.0,0.0,0.0,0.0,0.0,0.0,0.0,0.0,0.0,0.0,0.0,0.0,0.0,0.0,0.0,0.0,0.0,0.0,0.0,0.0,0.0,0.0,0.0,0.0,0.0,0.0,0.0,0.0,0.0,0.0,0.0,0.0,0.0,0.0,-3.6027,-3.6724,-3.7323,-3.7776,-3.6562,0.0,0.0,0.0,0.0,0.0,0.0,0.0,0.0,0.0,0.0,0.0,0.0,0.0,0.0,0.0,0.0,0.0,0.0,0.0,0.0,0.0,0.0,0.0,0.0,0.0,0.0,0.0,0.0,0.0,0.0,0.0,0.0,0.0,0.0,0.0,0.0,0.0,0.0,0.0,0.0,0.0,0.0,0.0,-3.1716,-3.353,0.0,0.0,0.0,0.0,0.0,0.0,0.0,0.0,0.0,0.0,0.0,0.0,0.0,-3.8302,-3.7335,-3.8988,-3.9959,-4.019,-4.0688,-4.1284,-4.1989,-4.2732,-4.3063,-4.3013,-4.2146,0.0,-3.9017,-3.8867,0.0,0.0,0.0,0.0,0.0,0.0,0.0,0.0,0.0,0.0,0.0,0.0,0.0,0.0,0.0,0.0,0.0,0.0,0.0,0.0,0.0,0.0,0.0,0.0,0.0,0.0,0.0,0.0,0.0,0.0,0.0,0.0,0.0,0.0,0.0,0.0,-3.5445,-3.6173,-3.6875,-3.8408,-3.9266,-3.959,-3.9768,-3.8671,-3.6707,-3.6076,0.0,0.0,0.0,0.0,0.0,0.0,0.0,0.0,0.0,0.0,0.0,0.0,0.0,0.0,0.0,0.0,0.0,0.0,0.0,0.0,0.0,0.0,0.0,0.0,0.0,0.0,0.0,0.0,0.0,0.0,0.0,0.0,0.0,0.0,0.0,0.0,0.0,0.0,0.0,-3.1032,-3.2414,-3.3903,-3.3882,-3.4104,0.0,0.0,0.0,0.0,0.0,0.0,0.0,0.0,0.0,-3.8751,-3.9952,-4.0491,-4.033,-4.1609,-4.2449,-4.2873,-4.3202,-4.3701,-4.4373,-4.4705,-4.4837,-4.4821,-4.4489,-4.3363,-4.1624,-4.0343,-3.9368,-3.8677,0.0,0.0,0.0,0.0,-3.8412,-3.8284,0.0,0.0,0.0,0.0,0.0,0.0,0.0,0.0,0.0,0.0,0.0,0.0,0.0,0.0,0.0,-3.3757,0.0,0.0,0.0,0.0,0.0,0.0,0.0,0.0,0.0,0.0,0.0,0.0,-3.6578,-3.7566,-3.844,-4.0399,-4.1419,-4.1646,-4.2715,-4.1195,-3.789,-3.7339,-3.6384,0.0,0.0,0.0,0.0,0.0,0.0,0.0,0.0,0.0,0.0,0.0,0.0,0.0,0.0,0.0,0.0,0.0,0.0,0.0,0.0,0.0,0.0,0.0,0.0,0.0,0.0,0.0,0.0,0.0,0.0,0.0,0.0,0.0,0.0,0.0,0.0,0.0,0.0,-3.2467,-3.3361,-3.4462,-3.474,-3.5242,0.0,0.0,0.0,0.0,0.0,0.0,-3.9779,-3.9521,-4.0082,-4.1629,-4.2157,-4.2602,-4.3052,-4.378,-4.444,-4.497,-4.5152,-4.5533,-4.6079,-4.6278,-4.6361,-4.6344,-4.6146,-4.5467,-4.4291,-4.2104,-4.0922,-4.0397,-4.0006,-3.9627,-3.9416,-4.0153,-4.0209,-4.0062,0.0,0.0,0.0,0.0,0.0,0.0,0.0,0.0,0.0,0.0,0.0,0.0,0.0,0.0,-3.3799,-3.4994,-3.4512,-3.4424,0.0,0.0,0.0,0.0,0.0,0.0,0.0,0.0,0.0,-3.6254,-3.8311,-4.004,-4.1417,-4.286,-4.3913,-4.4577,-4.4658,-4.38,-4.2149,-4.0173,-3.8877,-3.8003,0.0,0.0,0.0,0.0,0.0,0.0,0.0,0.0,0.0,0.0,0.0,0.0,0.0,0.0,0.0,0.0,0.0,0.0,0.0,0.0,0.0,0.0,0.0,0.0,0.0,0.0,0.0,0.0,0.0,0.0,0.0,0.0,0.0,0.0,0.0,0.0,0.0,0.0,0.0,-3.5828,-3.6522,0.0,0.0,0.0,0.0,-3.9083,-3.9183,-3.9829,-4.1226,-4.1943,-4.2328,-4.2423,-4.3797,-4.4542,-4.4572,-4.5317,-4.5698,-4.5748,-4.6444,-4.6808,-4.6874,-4.757,-4.7885,-4.7852,-4.7156,-4.6792,-4.656,-4.4343,-4.2605,-4.1331,-4.1281,-4.1281,-4.1281,-4.1314,-4.1246,-4.1132,0.0,0.0,0.0,0.0,0.0,0.0,0.0,0.0,0.0,0.0,0.0,0.0,0.0,-3.394,-3.4651,-3.4919,-3.5275,-3.5428,-3.5211,0.0,0.0,0.0,0.0,0.0,0.0,0.0,-3.6481,-3.7647,-3.9813,-4.1322,-4.231,-4.4658,-4.5888,-4.618,-4.7103,-4.6989,-4.5855,-4.2812,-4.0577,-3.8942,-3.7242,-3.6141,0.0,0.0,0.0,0.0,0.0,0.0,0.0,0.0,0.0,0.0,0.0,0.0,0.0,0.0,0.0,0.0,0.0,0.0,0.0,0.0,0.0,0.0,0.0,0.0,0.0,0.0,0.0,0.0,0.0,0.0,0.0,0.0,0.0,0.0,0.0,0.0,0.0,-3.7996,-3.837,0.0,-3.9785,-3.9471,-3.9818,-4.1259,-4.1359,-4.1988,-4.3446,-4.3777,-4.4125,-4.4605,-4.6046,-4.6825,-4.6825,-4.7554,-4.7918,-4.7934,-4.8199,-4.8315,-4.8349,-4.9094,-4.9425,-4.9375,-4.8647,-4.805,-4.7504,-4.6245,-4.4528,-4.2637,-4.2146,-4.1568,-4.1045,-4.1741,-4.176,-4.1572,0.0,0.0,0.0,0.0,0.0,0.0,0.0,0.0,0.0,0.0,0.0,-3.1612,-3.337,-3.4465,-3.5029,-3.4951,-3.5534,-3.572,-3.5244,0.0,0.0,0.0,0.0,0.0,0.0,-3.6513,-3.7825,-3.9476,-4.1644,-4.3136,-4.4123,-4.6261,-4.7378,-4.7653,-4.8592,-4.8735,-4.8188,-4.5774,-4.3281,-4.0756,-3.9072,-3.8116,-3.7485,0.0,0.0,0.0,0.0,0.0,0.0,0.0,0.0,0.0,0.0,0.0,0.0,0.0,0.0,0.0,0.0,0.0,0.0,0.0,0.0,0.0,0.0,0.0,0.0,0.0,0.0,0.0,0.0,0.0,0.0,0.0,0.0,0.0,0.0,0.0,-3.8659,-3.9879,-4.0431,-4.111,-4.2042,-4.174,-4.1972,-4.3164,-4.3247,-4.3777,-4.5003,-4.5301,-4.5765,-4.651,-4.7736,-4.8382,-4.8382,-4.911,-4.9359,-4.911,-4.9359,-4.9475,-4.9508,-4.9988,-5.022,-5.0171,-4.9358,-4.8712,-4.82,-4.744,-4.6008,-4.4222,-4.3405,-4.267,-4.2111,-4.2581,-4.2545,-4.24,0.0,0.0,0.0,0.0,0.0,0.0,0.0,0.0,0.0,0.0,-3.075,-3.1367,-3.3838,-3.4516,-3.4924,-3.5185,-3.5211,-3.5211,-3.5211,-3.4505,0.0,0.0,0.0,0.0,-3.6303,-3.776,-3.9525,-4.1644,-4.3767,-4.5532,-4.6943,-4.7686,-4.8398,-4.9026,-4.9042,-4.9058,-4.9058,-4.9058,-4.7052,-4.3719,-4.1517,-4.0594,-4.0173,0.0,0.0,0.0,0.0,0.0,0.0,0.0,0.0,0.0,0.0,0.0,0.0,0.0,0.0,0.0,0.0,0.0,0.0,0.0,0.0,0.0,0.0,0.0,0.0,0.0,0.0,0.0,0.0,0.0,0.0,0.0,0.0,0.0,-3.8278,-3.9537,-4.0713,-4.1458,-4.2787,-4.3681,-4.3698,-4.3681,-4.3962,-4.4705,-4.4771,-4.5102,-4.5847,-4.6593,-4.7322,-4.805,-4.8796,-4.9177,-4.9177,-4.9889,-4.9889,-4.9193,-4.9906,-5.0237,-5.0253,-5.027,-5.0286,-5.0203,-4.9271,-4.8857,-4.8757,-4.7899,-4.701,-4.6044,-4.51,-4.4721,-4.4575,-4.388,-4.3585,-4.3568,0.0,0.0,0.0,0.0,0.0,0.0,0.0,0.0,0.0,0.0,-3.1061,-3.1987,-3.3889,-3.4697,-3.5134,-3.5185,-3.5211,-3.5211,-3.5211,0.0,0.0,0.0,0.0,0.0,-3.7015,-3.9444,-4.1241,-4.2342,-4.448,-4.5986,-4.6909,-4.8155,-4.9127,-4.9823,-5.0357,-5.06,-5.06,-5.06,-4.9726,-4.8058,-4.4885,-4.3006,-4.1759,0.0,0.0,0.0,0.0,0.0,0.0,0.0,0.0,0.0,0.0,0.0,0.0,0.0,0.0,0.0,0.0,0.0,0.0,0.0,0.0,0.0,0.0,0.0,0.0,0.0,0.0,0.0,0.0,0.0,0.0,0.0,0.0,-3.9785,-3.9785,-4.1011,-4.2601,-4.4373,-4.4953,-4.5417,-4.5947,-4.5516,-4.55,-4.6228,-4.6792,-4.7404,-4.815,-4.8895,-4.9392,-4.9607,-5.0303,-5.0719,-5.0719,-5.0883,-5.0883,-5.0719,-5.0883,-5.0982,-5.0999,-5.1545,-5.1794,-5.1744,-5.0964,-5.0231,-4.9549,-4.874,-4.7915,-4.701,-4.6094,-4.4999,-4.3957,-4.3904,-4.3542,-4.3084,0.0,0.0,0.0,0.0,0.0,0.0,0.0,0.0,0.0,0.0,-3.0703,-3.1747,-3.3451,-3.4578,-3.5082,-3.4774,-3.5033,-3.5082,-3.4748,0.0,0.0,0.0,0.0,0.0,-3.8618,-4.0853,-4.252,-4.3509,-4.5354,-4.6779,-4.7799,-4.8949,-4.9855,-5.06,-5.162,-5.1896,-5.1637,-5.1944,-5.1831,-5.1248,-4.8852,-4.686,-4.4965,-4.1484,-4.0108,-3.98,-3.8197,-3.7695,-3.7598,-3.6465,0.0,0.0,0.0,0.0,0.0,0.0,0.0,0.0,0.0,0.0,0.0,0.0,0.0,0.0,0.0,0.0,0.0,0.0,0.0,0.0,0.0,0.0,0.0,0.0,-4.1536,-4.2502,-4.3446,-4.4026,-4.5052,-4.6957,-4.7173,-4.7355,-4.7785,-4.7438,-4.7355,-4.7785,-4.8514,-4.9127,-4.9558,-4.9988,-5.0353,-5.0651,-5.1065,-5.1315,-5.1315,-5.163,-5.1614,-5.1315,-5.163,-5.1779,-5.1779,-5.212,-5.2266,0.0,-5.1331,-5.0448,-4.9585,-4.8795,-4.7972,0.0,0.0,0.0,0.0,0.0,-4.4233,-4.3715,0.0,0.0,0.0,0.0,0.0,0.0,0.0,0.0,0.0,0.0,0.0,-3.1052,-3.2818,-3.4196,-3.4746,-3.4149,-3.4683,-3.4806,0.0,0.0,0.0,0.0,0.0,0.0,-4.0432,-4.202,-4.3476,-4.4787,-4.6196,-4.7621,-4.8994,-4.9677,-5.0455,-5.1361,-5.2624,-5.2867,-5.2365,-5.3045,-5.3281,-5.3217,-5.2592,-5.1054,-4.867,-4.4706,-4.3444,-4.3492,-4.0804,-3.9428,-3.8748,-3.7857,0.0,0.0,0.0,0.0,0.0,0.0,0.0,0.0,0.0,0.0,0.0,0.0,0.0,0.0,0.0,0.0,0.0,0.0,0.0,0.0,0.0,0.0,0.0,0.0,-4.4059,-4.5814,-4.7951,-4.7752,-4.7852,-4.9094,-4.916,-4.911,-4.911,-4.9028,-4.9011,-4.9094,-4.979,-5.0253,-5.0336,0.0,0.0,0.0,0.0,-5.1431,-5.1431,-5.2078,-5.2078,-5.1431,-5.2111,-5.239,-5.2354,-5.2175,-5.2102,-5.2033,-5.1017,-5.0118,-4.9365,-4.8505,-4.7672,-4.6846,-4.6485,-4.634,-4.6225,-4.5522,-4.5147,-4.4887,0.0,0.0,0.0,0.0,0.0,0.0,0.0,0.0,0.0,-2.8775,-2.9781,-3.1011,-3.2818,-3.3351,-3.3738,-3.4075,-3.423,-3.4246,0.0,0.0,0.0,0.0,0.0,0.0,0.0,-4.3039,-4.4512,-4.4787,-4.6196,-4.7621,-4.8994,-4.9175,-5.0228,-5.2009,-5.2284,-5.2673,-5.311,-5.3217,-5.3281,-5.3265,-5.312,-5.1815,-4.9677,-4.7718,-4.5969,-4.4366,-4.2682,-4.1954,-4.1502,-3.9687,-3.9428,-3.9638,-3.823,0.0,0.0,0.0,0.0,0.0,0.0,0.0,0.0,0.0,0.0,0.0,0.0,0.0,0.0,0.0,0.0,0.0,0.0,0.0,0.0,-4.4009,-4.6013,-4.7934,-4.9558,-5.0154,-5.032,-5.0038,-4.9475,-4.911,-4.911,-4.8564,-4.8465,-4.9061,-4.979,-5.0469,-5.1048,-5.1628,-5.2026,-5.2194,-5.221,-5.221,-5.221,-5.2343,-5.2343,-5.221,0.0,0.0,-5.2139,-5.2102,-5.203,-5.1851,-5.1631,-5.103,-5.0151,-4.9346,-4.8183,-4.6846,-4.615,-4.5925,-4.5827,-4.5146,-4.4853,-4.4837,0.0,0.0,0.0,0.0,0.0,0.0,0.0,0.0,0.0,0.0,-2.8771,-3.0119,-3.1133,-3.2069,-3.2672,-3.2836,-3.3298,0.0,0.0,0.0,0.0,0.0,0.0,0.0,0.0,0.0,-4.4787,-4.4787,-4.6568,-4.7993,-4.901,-4.9775,-5.0843,-5.222,-5.2964,-5.3515,-5.3887,-5.4227,-5.4373,-5.4341,-5.4001,-5.2997,-5.1523,-4.9742,-4.7961,-4.6164,-4.4383,-4.3492,-4.2861,-4.1128,-4.0982,-4.1322,-3.9897,-3.8974,-3.8197,0.0,0.0,0.0,0.0,0.0,0.0,0.0,0.0,0.0,0.0,0.0,0.0,0.0,0.0,-4.0613,0.0,0.0,-4.5069,-4.6162,-4.7901,-4.9491,-5.0585,-5.138,-5.1597,-5.0833,-5.0419,-5.0055,-4.9707,-4.9641,-4.979,-5.0154,-5.0883,-5.1446,-5.1846,-5.221,-5.2338,-5.223,-5.2247,-5.2247,-5.2247,-5.2247,-5.2247,-5.2247,-5.2247,-5.2122,-5.1941,-5.1847,-5.1758,-5.1647,-5.1557,-5.1022,-5.0164,-4.9092,-4.8196,-4.7378,-4.6633,-4.6342,-4.6309,-4.5969,-4.584,-4.5791,0.0,0.0,0.0,0.0,0.0,0.0,0.0,0.0,0.0,0.0,0.0,-2.9018,-2.9507,-3.0754,-3.1582,0.0,0.0,0.0,0.0,0.0,0.0,0.0,0.0,0.0,0.0,0.0,-4.4787,-4.4787,-4.6957,-4.835,-4.901,-5.0357,-5.1491,-5.2462,-5.3661,-5.4341,-5.4632,-5.5183,-5.5345,-5.5166,-5.4616,-5.3806,-5.2689,-5.0665,-4.9192,-4.7912,-4.5613,-4.4237,-4.3265,-4.1725,-4.163,-4.1988,-4.0853,-4.0496,-4.0124,-3.8278,-3.7425,0.0,0.0,0.0,0.0,0.0,0.0,0.0,0.0,0.0,-3.9237,-4.0772,-4.1993,-4.3228,-4.4655,-4.6228,-4.757,-4.8299,-4.9674,-5.0833,-5.1448,-5.2045,-5.2144,-5.1398,-5.1315,-5.1083,-5.0469,-5.0817,-5.1166,-5.1299,-5.1862,-5.226,-5.2373,-5.2338,-5.2283,-5.2102,-5.2102,-5.2102,-5.2102,-5.2102,-5.2102,-5.2102,-5.2066,-5.1957,-5.1758,-5.1573,-5.1397,-5.1213,-5.0902,-5.0357,-4.9613,-4.8479,-4.7929,-4.7734,-4.7119,-4.6876,-4.6876,-4.6876,-4.6876,-4.6811,0.0,0.0,0.0,0.0,0.0,0.0,0.0,0.0,0.0,0.0,0.0,0.0,0.0,0.0,0.0,0.0,0.0,0.0,0.0,0.0,0.0,0.0,0.0,0.0,0.0,0.0,0.0,-4.4787,-4.6957,-4.835,-4.901,-4.9839,-5.1297,-5.3168,-5.333,-5.413,-5.5312,-5.5377,-5.5069,-5.4519,-5.4438,-5.3207,-5.1264,-4.9726,-4.9046,-4.8544,-4.5775,-4.3913,-4.2408,-4.0399,-4.0173,-4.0707,-4.0545,-4.0496,-4.0335,-3.9522,0.0,-3.6222,-3.5315,-3.5249,-3.5598,-3.6427,-3.7593,-3.9098,0.0,0.0,-4.2118,-4.385,-4.4324,-4.4705,-4.5516,-4.7421,-4.9094,-4.984,-5.1199,-5.2158,-5.2293,-5.2359,-5.2144,-5.1398,-5.1315,-5.1282,-5.1199,-5.0651,-5.0601,-5.1265,-5.1398,-5.173,-5.2393,-5.2247,-5.2139,-5.2102,-5.2102,-5.2102,-5.2102,-5.2102,-5.2102,-5.2102,-5.1904,-5.1721,-5.1536,-5.1499,-5.1029,-5.0232,-4.9548,-4.8868,-4.8236,-4.8074,-4.7621,-4.6989,-4.6909,-4.6876,-4.6876,-4.6876,-4.6876,-4.6911,0.0,0.0,0.0,0.0,0.0,0.0,0.0,0.0,0.0,0.0,0.0,0.0,0.0,0.0,0.0,0.0,0.0,0.0,0.0,0.0,0.0,0.0,0.0,0.0,0.0,0.0,0.0,-4.4787,-4.6504,-4.7718,-4.8447,-4.9143,-5.0406,-5.2074,-5.2074,-5.2867,-5.4155,-5.4155,-5.4033,-5.3709,-5.2867,-5.1734,-5.0357,-4.8479,-4.7006,-4.5662,-4.3638,-4.2261,0.0,0.0,-3.959,-4.0496,-4.0496,-4.0496,-4.027,-3.9169,-3.8213,0.0,-3.6188,-3.6267,0.0,0.0,-3.9401,-4.1661,-4.2759,-4.4323,-4.5856,-4.7008,-4.7934,-4.8647,-4.8962,-5.0088,-5.0833,0.0,-5.1429,-5.226,-5.1829,-5.1779,-5.1498,-5.075,-5.027,-5.0353,-5.1232,-5.1396,-5.1595,-5.1928,-5.182,-5.1916,-5.223,-5.2013,-5.1941,-5.1941,-5.1794,-5.1811,-5.1941,-5.1811,-5.1758,-5.1737,-5.1647,-5.1536,-5.1333,-5.0874,-5.0237,-4.9451,-4.9123,-4.8832,-4.8541,-4.8171,-4.7831,-4.7491,-4.7054,-4.6876,-4.6876,-4.6876,-4.6876,-4.6876,0.0,0.0,0.0,0.0,0.0,0.0,0.0,0.0,0.0,0.0,0.0,0.0,0.0,0.0,0.0,0.0,0.0,0.0,0.0,0.0,0.0,0.0,0.0,0.0,0.0,0.0,0.0,0.0,-4.5905,-4.686,-4.7427,-4.8333,-4.9402,-5.06,-5.0795,-5.1572,-5.2738,-5.2738,-5.2511,-5.2003,-5.1005,-4.9807,-4.8431,-4.6471,-4.4399,-4.2423,-4.1612,-4.0561,0.0,0.0,-3.8327,-3.9331,-3.9331,-3.9606,-3.9719,-3.8699,-3.8262,-3.7853,-3.6712,0.0,0.0,-3.91,-4.192,-4.4708,-4.5428,-4.7423,-4.9225,-4.9641,-5.0551,-5.1148,-5.0716,-5.1245,-5.1496,-5.0565,-5.1345,-5.1928,-5.1398,-5.1133,-5.0717,-4.9988,-4.926,-4.9309,-5.0551,-5.1164,-5.1645,-5.1971,-5.1878,-5.1852,-5.2013,-5.1831,-5.1721,-5.1721,-5.1573,-5.1573,-5.1721,-5.1573,-5.1499,-5.1499,-5.1424,-5.135,-5.1151,-5.0228,-4.9418,-4.8702,-4.8528,-4.8431,-4.8398,-4.7912,-4.7702,-4.7637,-4.7103,-4.6876,-4.6876,-4.6876,-4.6876,-4.6876,0.0,0.0,0.0,0.0,0.0,0.0,0.0,0.0,0.0,0.0,0.0,0.0,0.0,0.0,0.0,0.0,0.0,0.0,0.0,0.0,0.0,0.0,0.0,0.0,0.0,0.0,0.0,0.0,-4.5144,-4.584,-4.5905,-4.7362,-4.8414,-4.9091,-4.9823,-5.0552,-5.1248,-5.1248,-5.0438,-4.9123,-4.9058,-4.7427,-4.4804,-4.3362,-4.1484,-3.9716,-4.0302,0.0,0.0,0.0,-3.5785,-3.6432,-3.6432,-3.7371,0.0,-3.8408,-3.7906,0.0,0.0,0.0,-4.0205,-4.2637,-4.5304,-4.8031,-5.0499,-5.1539,-5.1848,-5.1347,-5.1282,-5.0798,-4.9171,-4.9637,-5.0416,-5.0905,-5.1194,-5.1348,-5.1315,-5.0684,-4.9972,-4.9226,-4.8481,-4.8332,0.0,-4.9193,-4.9722,-5.0933,-5.1048,-5.1273,-5.1782,-5.161,-5.1499,-5.1499,-5.1499,-5.1499,-5.1499,-5.1499,-5.1499,-5.1499,-5.1296,-5.1221,-5.1135,-4.971,-4.8654,-4.7993,-4.7265,-4.6941,-4.6941,-4.6925,-4.6909,-4.6909,-4.6892,-4.6876,-4.6876,-4.6876,-4.6876,-4.6876,0.0,0.0,0.0,0.0,0.0,0.0,0.0,0.0,0.0,0.0,0.0,0.0,0.0,0.0,0.0,0.0,0.0,0.0,0.0,0.0,0.0,0.0,0.0,0.0,0.0,0.0,0.0,0.0,0.0,-4.184,-4.2294,-4.3281,-4.4107,-4.4787,-4.5499,-4.652,-4.7589,-4.7135,-4.6909,-4.6763,-4.5386,-4.3962,-4.2536,-4.1096,-3.9233,-3.7404,0.0,0.0,0.0,0.0,0.0,0.0,-3.5558,-3.5882,0.0,-3.6869,-3.7161,-3.7485,0.0,0.0,-4.2808,-4.477,-4.747,-5.0093,-5.1928,-5.2939,-5.3309,-5.2637,-5.1298,-4.9977,-4.904,-4.8332,-4.8117,-4.8777,-4.982,-5.0534,-5.0378,-5.0164,-4.9337,-4.7671,-4.6405,0.0,0.0,0.0,0.0,-5.0192,-5.049,-5.0436,-5.0038,-5.0817,-5.1092,-5.0608,-5.1054,-5.1092,-5.057,-5.047,-5.0448,-5.0448,-5.094,-5.0681,-4.9726,-4.924,-4.8382,-4.7249,-4.6989,-4.6876,-4.6876,-4.6876,-4.6876,-4.6876,-4.6876,-4.6876,-4.6876,-4.6876,-4.6876,-4.6876,0.0,0.0,0.0,0.0,0.0,0.0,0.0,0.0,0.0,0.0,0.0,0.0,0.0,0.0,0.0,0.0,0.0,0.0,0.0,0.0,0.0,0.0,0.0,0.0,0.0,0.0,0.0,0.0,0.0,-3.9314,-3.9768,-4.051,-4.1063,-4.1533,-4.2245,-4.3055,-4.3881,-4.3443,-4.3508,-4.3767,-4.218,-4.1096,-4.0316,-3.8877,-3.7339,0.0,0.0,0.0,0.0,0.0,0.0,0.0,0.0,-3.5153,-3.5623,-3.5849,-3.7112,-3.8764,0.0,-4.2536,-4.513,-4.7579,-4.9875,-5.1815,-5.3086,-5.3731,-5.3588,-5.1846,-5.0347,-4.8767,-4.7078,-4.6288,-4.6008,-4.6372,-4.7473,-4.8344,-4.8607,-4.8521,-4.798,-4.6749,-4.5603,0.0,0.0,0.0,0.0,-4.8809,-4.9577,-4.9717,-4.9063,-5.0125,-5.0679,-5.0493,-5.064,-5.0679,-5.0477,-5.0104,-4.9908,-4.9908,-5.0771,-5.0422,-4.8994,-4.8994,-4.8236,-4.6876,-4.6876,-4.6876,-4.6876,-4.6876,-4.6876,-4.6876,-4.6876,-4.6876,-4.6876,-4.6876,-4.6876,-4.6876,0.0,0.0,0.0,0.0,0.0,0.0,0.0,0.0,0.0,0.0,0.0,0.0,0.0,0.0,0.0,0.0,0.0,0.0,0.0,0.0,0.0,0.0,0.0,0.0,-3.4965,-3.6298,-3.7344,-3.8068,-3.8068,-3.8068,-3.8084,-3.8873,-3.923,-3.9262,-3.9962,-4.0286,-4.0318,-4.0286,-4.0286,-4.027,-3.9586,-3.8873,-3.8084,-3.6707,0.0,0.0,0.0,0.0,0.0,0.0,0.0,0.0,0.0,0.0,-3.6206,-3.5681,-3.7982,-4.0982,-4.2457,-4.4594,-4.7283,-5.0972,-5.2421,-5.3131,-5.3992,-5.3858,-5.2609,-4.9171,-4.8304,-4.7026,0.0,0.0,-4.4204,-4.3971,-4.4448,-4.5195,-4.6307,-4.6074,-4.6024,0.0,0.0,0.0,0.0,0.0,0.0,-4.6913,0.0,-4.9139,-4.8794,-4.9489,-5.0237,-5.0978,-5.0276,-5.0276,-5.1054,-5.0276,-4.9852,-4.9742,-5.0669,-5.0374,-4.8893,-4.8929,-4.8204,-4.6876,-4.6876,-4.6876,-4.6876,-4.6876,-4.6876,-4.6876,-4.6876,-4.6876,-4.6876,-4.6876,-4.6876,-4.6876,0.0,0.0,0.0,0.0,0.0,0.0,0.0,0.0,0.0,0.0,0.0,0.0,0.0,0.0,0.0,0.0,0.0,0.0,0.0,0.0,0.0,0.0,0.0,0.0,0.0,-3.2517,-3.3047,-3.3631,0.0,-3.3631,-3.3663,-3.4894,-3.5477,0.0,-3.6805,-3.7663,-3.8084,-3.7582,-3.7663,-3.8019,0.0,-3.6184,-3.5914,0.0,0.0,0.0,0.0,0.0,0.0,0.0,0.0,0.0,0.0,0.0,-3.6788,-3.9262,-4.1338,-4.3443,-4.5953,-4.8345,-5.0623,-5.2822,-5.3121,-5.3093,-5.3803,-5.1408,-4.8582,-4.7094,-4.4206,-4.1652,0.0,0.0,0.0,-4.295,-4.4268,0.0,-4.6842,-4.6307,0.0,0.0,0.0,-4.5949,-4.809,-4.6841,0.0,0.0,-4.8158,-4.8407,-4.6909,-4.8783,-4.9374,-4.8236,-4.9318,-4.9654,-4.9166,-4.9654,-4.8988,-4.7171,-4.9349,-4.9319,-4.7394,-4.7986,-4.7767,-4.6876,-4.6876,-4.6876,-4.6876,-4.6876,-4.6876,-4.6876,-4.6876,-4.6876,-4.6876,-4.6876,-4.6876,-4.6876,0.0,0.0,0.0,0.0,0.0,0.0,0.0,0.0,0.0,0.0,0.0,0.0,0.0,0.0,0.0,0.0,0.0,0.0,0.0,0.0,0.0,0.0,0.0,0.0,0.0,0.0,0.0,0.0,0.0,0.0,0.0,-3.2829,-3.3356,-3.3696,-3.4522,-3.5283,-3.5882,0.0,0.0,0.0,0.0,0.0,0.0,0.0,0.0,0.0,0.0,0.0,0.0,0.0,0.0,-3.572,-3.6869,-3.7873,-3.9072,-4.1387,0.0,-4.5662,-4.8236,-5.0197,-5.175,-5.29,-5.2479,-5.1512,-5.0627,-4.8216,-4.5624,-4.3696,-4.1055,0.0,0.0,0.0,0.0,0.0,0.0,0.0,-4.5369,-4.5238,-4.5778,0.0,-4.677,0.0,-4.855,-4.7152,-4.6305,0.0,-4.7762,-4.7723,-4.6229,-4.7801,-4.8403,-4.7773,-4.8361,-4.8651,-4.8496,-4.9813,-4.9584,-4.785,-4.9307,-4.9235,-4.7785,-4.7837,-4.7493,-4.6876,0.0,-4.6876,-4.6876,-4.6876,-4.6876,-4.6909,-4.7249,-4.7168,-4.6957,-4.7589,-4.7637,-4.741,0.0,0.0,0.0,0.0,0.0,0.0,0.0,0.0,0.0,0.0,0.0,0.0,0.0,0.0,0.0,0.0,0.0,0.0,0.0,0.0,0.0,0.0,0.0,0.0,0.0,0.0,0.0,0.0,0.0,0.0,0.0,0.0,0.0,0.0,0.0,0.0,0.0,0.0,0.0,0.0,0.0,0.0,0.0,0.0,0.0,0.0,0.0,0.0,0.0,0.0,-3.6739,-3.7501,-3.8505,-4.0081,-4.1781,-4.2815,-4.4962,-4.7429,-4.9367,-5.0715,-5.1641,-5.1917,-5.0898,-4.9163,-4.6459,-4.4759,-4.2869,-3.9819,0.0,-3.7485,-3.6336,0.0,-3.6831,-3.7569,0.0,-3.9986,-4.3211,-4.3605,-4.4934,-4.853,-4.7628,-4.7329,-4.8897,-4.7543,-4.6776,-4.716,-4.7258,-4.6982,-4.6181,-4.6804,-4.7576,-4.8304,-4.7603,-4.7561,-4.8304,-5.001,-5.0345,-4.9393,-4.9528,-4.924,-4.8618,-4.7913,-4.7325,-4.6867,-4.689,0.0,-4.6876,-4.6876,-4.6876,-4.6941,-4.7605,-4.7459,-4.7038,-4.8285,-4.8431,-4.8091,0.0,0.0,0.0,0.0,0.0,0.0,0.0,0.0,0.0,0.0,-2.2606,-2.3308,0.0,0.0,0.0,0.0,0.0,0.0,0.0,0.0,0.0,0.0,0.0,0.0,0.0,0.0,0.0,0.0,0.0,0.0,0.0,0.0,0.0,0.0,0.0,0.0,0.0,0.0,0.0,0.0,0.0,0.0,0.0,0.0,0.0,0.0,0.0,0.0,0.0,0.0,-3.6706,-3.7732,-4.0237,-4.1228,-4.1925,-4.4449,-4.6358,-4.7832,-4.8629,-5.0459,-5.1788,-5.0677,-4.8901,-4.6998,-4.5525,-4.1832,0.0,0.0,0.0,-3.444,-3.4686,-3.5718,0.0,-3.8844,0.0,0.0,0.0,0.0,-4.3577,0.0,0.0,0.0,0.0,0.0,0.0,0.0,0.0,-4.6093,-4.5975,-4.6769,-4.7276,-4.7405,-4.7276,-4.7276,-4.7405,-4.847,-4.8235,-4.6845,-4.7589,-4.7561,-4.6936,-4.6881,-4.6819,-4.675,-4.6856,0.0,-4.6876,-4.6876,-4.6876,-4.6892,-4.7022,-4.6989,-4.6909,-4.7168,-4.7572,-4.8026,0.0,0.0,0.0,0.0,0.0,0.0,0.0,0.0,-2.1784,-2.1819,-2.2328,-2.2928,-2.3561,-2.3853,0.0,0.0,0.0,0.0,0.0,0.0,0.0,0.0,0.0,0.0,0.0,0.0,0.0,0.0,0.0,0.0,0.0,0.0,0.0,0.0,0.0,0.0,0.0,0.0,0.0,0.0,0.0,0.0,0.0,0.0,0.0,0.0,0.0,0.0,0.0,0.0,-3.5828,-3.6941,-4.0008,-4.1713,-4.2908,-4.4648,-4.5887,-4.6967,-4.8254,-4.9445,-5.0107,-4.9343,-4.7058,-4.4591,-4.2839,0.0,0.0,0.0,0.0,-3.3689,-3.4295,0.0,0.0,0.0,0.0,0.0,0.0,0.0,0.0,0.0,0.0,0.0,0.0,0.0,0.0,0.0,0.0,-4.588,-4.588,-4.6299,-4.6535,-4.6535,-4.6944,-4.7204,-4.7204,-4.8054,-4.8136,-4.7414,-4.7451,-4.7373,-4.7107,-4.6847,-4.6729,-4.6797,-4.6883,0.0,-4.6876,-4.6876,-4.6876,-4.6925,-4.7313,-4.7232,-4.6973,-4.7718,-4.801,-4.8058,0.0,0.0,0.0,0.0,0.0,0.0,0.0,-2.0915,-2.1513,-2.1822,-2.2015,-2.2572,-2.3761,-2.3544,-2.3842,0.0,0.0,0.0,0.0,0.0,0.0,0.0,0.0,0.0,0.0,0.0,0.0,0.0,0.0,0.0,0.0,0.0,0.0,0.0,0.0,0.0,0.0,0.0,0.0,0.0,0.0,0.0,0.0,0.0,0.0,0.0,0.0,0.0,0.0,0.0,-3.4767,-3.5813,-3.8333,-4.0797,-4.2888,-4.3347,-4.4381,-4.5701,-4.686,-4.7751,-4.8095,-4.7203,-4.4929,-4.2273,-3.9824,-3.7143,0.0,0.0,-3.3616,-3.3605,-3.3935,0.0,0.0,0.0,0.0,0.0,0.0,0.0,0.0,0.0,0.0,0.0,0.0,0.0,0.0,0.0,0.0,0.0,-4.588,-4.588,-4.588,-4.588,-4.6535,-4.6901,-4.6901,-4.7603,-4.8054,-4.8206,-4.7357,-4.7209,-4.7612,-4.6796,-4.6565,-4.6859,-4.6888,0.0,0.0,-4.6876,-4.6876,-4.6941,-4.754,-4.741,-4.7022,-4.8155,-4.8333,-4.8058,0.0,0.0,0.0,0.0,0.0,0.0,0.0,-2.0417,-2.1242,-2.08,-2.1173,-2.1917,-2.3077,-2.3684,-2.3825,0.0,0.0,0.0,0.0,0.0,0.0,0.0,0.0,0.0,0.0,0.0,0.0,0.0,0.0,0.0,0.0,0.0,0.0,0.0,0.0,0.0,0.0,0.0,0.0,0.0,0.0,0.0,0.0,0.0,0.0,0.0,0.0,0.0,0.0,0.0,0.0,-3.4648,-3.4901,-3.7198,-3.9817,-3.9851,0.0,0.0,-4.3037,-4.5005,-4.6651,-4.3485,-4.1968,-4.0498,-3.7346,0.0,0.0,0.0,-3.2687,-3.3344,-3.2788,-3.363,0.0,0.0,0.0,0.0,0.0,0.0,0.0,0.0,0.0,0.0,0.0,0.0,0.0,0.0,0.0,0.0,-4.588,-4.588,-4.588,-4.588,-4.597,-4.6001,-4.6001,-4.609,-4.655,-4.7319,-4.5857,-4.5975,-4.7484,-4.6119,-4.5964,-4.6734,-4.6837,0.0,0.0,-4.6876,-4.6876,-4.6927,-4.6957,-4.6941,-4.6943,-4.7038,-4.7475,-4.7929,0.0,0.0,0.0,0.0,0.0,0.0,-1.9107,-1.9823,-2.0576,-2.1029,-2.1298,-2.1745,-2.2478,-2.3125,-2.3558,0.0,0.0,0.0,0.0,0.0,0.0,0.0,0.0,0.0,0.0,0.0,0.0,0.0,0.0,0.0,0.0,0.0,0.0,0.0,0.0,0.0,0.0,0.0,0.0,0.0,0.0,0.0,0.0,0.0,0.0,0.0,0.0,0.0,0.0,0.0,0.0,0.0,-3.2119,-3.3539,0.0,0.0,-3.904,-4.0788,-4.1357,-4.3067,-4.4376,-4.3002,-4.1279,-3.9523,-3.7839,0.0,0.0,-3.3267,-3.3064,-3.305,-3.3572,-3.4066,-3.4501,0.0,0.0,0.0,0.0,0.0,0.0,0.0,0.0,0.0,0.0,0.0,0.0,0.0,0.0,0.0,-4.588,-4.588,-4.588,-4.588,-4.588,-4.588,-4.588,-4.588,-4.609,-4.6403,-4.5517,-4.5466,-4.607,-4.5238,-4.5063,-4.5403,-4.5932,0.0,0.0,-4.6703,-4.6876,-4.6876,-4.6876,-4.6876,-4.6876,-4.6876,-4.7087,-4.7232,0.0,0.0,0.0,0.0,0.0,-1.9392,-1.8846,-1.9345,-2.0066,-2.0823,-2.1108,-2.1416,-2.1922,-2.2207,-2.2682,-2.3463,0.0,0.0,0.0,0.0,0.0,0.0,0.0,0.0,0.0,0.0,0.0,0.0,0.0,0.0,0.0,0.0,0.0,0.0,0.0,0.0,0.0,0.0,0.0,0.0,0.0,0.0,0.0,0.0,0.0,0.0,0.0,0.0,0.0,0.0,0.0,0.0,0.0,0.0,0.0,0.0,-3.6359,-3.7984,-3.9552,-4.0902,-4.1816,-4.1628,-4.0104,-3.8318,0.0,0.0,0.0,-3.3485,-3.3296,-3.3296,-3.4008,-3.4283,-3.4414,0.0,0.0,0.0,0.0,0.0,0.0,0.0,0.0,0.0,0.0,0.0,0.0,0.0,0.0,0.0,0.0,-4.5692,-4.559,-4.559,-4.559,-4.5503,-4.5329,-4.5329,-4.5329,-4.5314,-4.4798,-4.4656,-4.4874,-4.4373,-4.4396,-4.4887,-4.5442,0.0,0.0,-4.6668,-4.6876,-4.6876,-4.6876,-4.6876,-4.686,-4.6649,-4.6552,-4.6439,0.0,0.0,0.0,0.0,0.0,0.0,0.0,-1.9103,-1.9798,-1.9811,-2.0296,-2.0822,-2.135,-2.0945,-2.1068,-2.2128,0.0,0.0,0.0,0.0,0.0,0.0,0.0,0.0,0.0,0.0,-2.6233,-2.6111,-2.6365,0.0,0.0,0.0,0.0,0.0,0.0,0.0,0.0,0.0,0.0,0.0,0.0,0.0,0.0,0.0,0.0,0.0,0.0,0.0,0.0,0.0,0.0,0.0,0.0,0.0,0.0,0.0,-3.4341,-3.6475,-3.7157,-3.8275,-3.9088,-3.842,-3.7781,-3.6664,0.0,0.0,0.0,-3.1915,-3.3064,-3.4196,-3.3634,-3.3993,-3.4414,-3.4414,0.0,0.0,0.0,0.0,0.0,0.0,0.0,0.0,0.0,0.0,0.0,0.0,0.0,0.0,0.0,-4.5256,-4.4893,-4.4893,-4.4893,-4.4603,-4.4023,-4.4008,-4.4008,-4.4008,-4.3326,-4.3439,-4.4201,-4.3584,-4.419,0.0,0.0,0.0,0.0,-4.6876,-4.6876,-4.6876,-4.6876,-4.6876,-4.6795,-4.6083,-4.5807,-4.5613,0.0,0.0,0.0,0.0,0.0,0.0,0.0,-1.8794,-1.937,-1.9747,-1.9952,-2.0409,-2.1302,-2.124,-2.1434,-2.2137,0.0,0.0,0.0,0.0,0.0,0.0,0.0,0.0,0.0,0.0,-2.6069,-2.6594,-2.6659,-2.6814,-2.7031,-2.7267,0.0,0.0,0.0,0.0,0.0,0.0,0.0,0.0,0.0,0.0,0.0,0.0,0.0,0.0,0.0,0.0,0.0,0.0,0.0,0.0,0.0,0.0,0.0,0.0,0.0,0.0,-3.5154,-3.6257,-3.707,-3.6453,-3.6162,-3.5566,-3.3881,0.0,0.0,-3.289,-3.2991,-3.3325,-3.3993,-3.4283,-3.4414,-3.4414,-3.4414,0.0,0.0,0.0,0.0,0.0,0.0,0.0,0.0,0.0,0.0,0.0,0.0,0.0,0.0,-4.4385,-4.4458,-4.4879,-4.4487,-4.4182,-4.3993,-4.3993,-4.3993,-4.3979,-4.3311,-4.3146,-4.3368,-4.2752,-4.2769,0.0,0.0,0.0,0.0,-4.5841,-4.6391,-4.6828,-4.6342,-4.6147,-4.605,-4.537,-4.5111,-4.4982,0.0,0.0,0.0,0.0,0.0,0.0,0.0,-1.8782,-1.9119,-1.9448,-1.9669,-2.0055,-2.0709,-2.0995,-2.1313,-2.1841,0.0,0.0,0.0,0.0,0.0,0.0,0.0,0.0,0.0,-2.5513,-2.5908,-2.6338,-2.6637,-2.691,-2.7128,-2.6895,-2.691,-2.7128,0.0,0.0,0.0,0.0,0.0,0.0,0.0,0.0,-3.0598,0.0,0.0,0.0,0.0,0.0,0.0,0.0,0.0,0.0,0.0,0.0,0.0,0.0,-3.1469,0.0,0.0,-3.4457,-3.514,-3.4782,-3.468,0.0,0.0,0.0,0.0,0.0,-3.3006,-3.3398,-3.3949,-3.4254,-3.4414,-3.4414,-3.4414,0.0,0.0,0.0,0.0,0.0,0.0,0.0,0.0,0.0,0.0,0.0,0.0,0.0,0.0,-4.3747,-4.3776,-4.4153,-4.3805,-4.35,-4.3282,-4.3282,-4.3282,-4.3268,-4.2861,-4.2528,-4.2281,-4.215,-4.2138,0.0,0.0,0.0,0.0,-4.5369,-4.5842,-4.6028,-4.5868,-4.5646,-4.5338,-4.4642,-4.4383,-4.4285,0.0,0.0,0.0,0.0,0.0,0.0,0.0,0.0,-1.8975,-1.8939,-1.9397,-1.9759,-1.9798,-2.0283,-2.0809,-2.1337,0.0,0.0,0.0,0.0,0.0,0.0,0.0,0.0,0.0,-2.5232,-2.5629,-2.5617,-2.6364,-2.7041,-2.7623,-2.7055,-2.7099,-2.7608,-2.7041,-2.6806,-2.6893,-2.807,-2.8622,-2.8811,-2.9987,-3.0525,0.0,0.0,0.0,0.0,0.0,0.0,0.0,0.0,0.0,0.0,0.0,0.0,0.0,0.0,0.0,0.0,0.0,0.0,0.0,0.0,0.0,0.0,0.0,0.0,0.0,0.0,0.0,0.0,0.0,-3.4008,-3.4414,-3.4414,0.0,0.0,0.0,0.0,0.0,0.0,0.0,0.0,0.0,0.0,0.0,0.0,0.0,0.0,0.0,-4.3268,-4.2934,-4.2934,-4.2934,-4.2658,-4.2107,-4.2092,-4.2092,-4.2092,-4.2092,-4.1744,-4.112,-4.1787,-4.2104,0.0,0.0,0.0,0.0,-4.5138,-4.5124,-4.4681,-4.5391,-4.5273,-4.4625,-4.3897,-4.3638,-4.3509,0.0,0.0,0.0,0.0,0.0,0.0,0.0,0.0,0.0,0.0,-1.8865,-1.9344,-1.9759,-2.0283,-2.0809,0.0,0.0,0.0,0.0,0.0,0.0,0.0,0.0,0.0,0.0,-2.4086,-2.4708,-2.5742,-2.5952,-2.6358,-2.7012,-2.6852,-2.6866,-2.7012,-2.6852,-2.6806,-2.6835,-2.7125,-2.7823,-2.8738,-2.9028,-2.974,0.0,0.0,0.0,0.0,-3.0598,-3.0598,0.0,0.0,0.0,0.0,0.0,0.0,0.0,0.0,-3.0598,-3.067,-3.099,0.0,-3.128,-3.128,0.0,0.0,0.0,0.0,0.0,0.0,0.0,0.0,0.0,0.0,0.0,0.0,0.0,0.0,0.0,0.0,0.0,0.0,0.0,0.0,0.0,0.0,0.0,0.0,0.0,0.0,0.0,-4.2397,-4.231,-4.231,-4.231,-4.2237,-4.2092,-4.2092,-4.2092,-4.2092,-4.2092,-4.1744,-4.112,-4.1787,-4.1561,0.0,0.0,0.0,-4.2971,-4.3174,-4.3847,-4.4733,-4.4349,-4.4107,-4.3881,-4.312,-4.2845,-4.2829,0.0,0.0,0.0,0.0,0.0,0.0,0.0,0.0,0.0,0.0,0.0,0.0,0.0,0.0,0.0,0.0,0.0,0.0,0.0,0.0,0.0,0.0,0.0,0.0,-2.3285,-2.3629,-2.4298,-2.5342,-2.5647,-2.6271,-2.7215,-2.6924,-2.6939,-2.72,-2.691,-2.6806,-2.6835,-2.7099,-2.7621,-2.8289,-2.8884,0.0,0.0,0.0,0.0,0.0,-3.0132,-3.0321,0.0,-3.0598,-3.0598,-3.0598,0.0,0.0,0.0,0.0,-3.0598,-3.0598,-3.0598,-3.0598,-3.067,-3.093,-3.1047,-3.1148,0.0,0.0,0.0,0.0,0.0,0.0,0.0,0.0,0.0,0.0,0.0,0.0,0.0,0.0,0.0,0.0,0.0,0.0,0.0,0.0,0.0,0.0,0.0,0.0,-4.2092,-4.2092,-4.2092,-4.2092,-4.1802,-4.1642,-4.1642,-4.1642,-4.1482,-4.1178,-4.1178,-4.0844,-4.0249,-4.0887,-4.0641,0.0,0.0,0.0,-4.1445,-4.1834,-4.2309,-4.2761,-4.3078,-4.2974,-4.267,-4.2637,-4.2602,-4.2602,0.0,0.0,0.0,0.0,0.0,0.0,0.0,0.0,0.0,0.0,0.0,0.0,0.0,0.0,0.0,0.0,0.0,0.0,0.0,0.0,0.0,0.0,0.0,-2.2652,-2.2809,-2.3415,-2.4085,-2.481,-2.5386,-2.6315,-2.755,-2.7041,-2.707,-2.7536,-2.7026,-2.6806,-2.6849,-2.736,-2.7623,-2.7797,-2.887,0.0,0.0,0.0,0.0,0.0,0.0,0.0,0.0,-3.0539,-3.0539,-3.0481,-3.0569,0.0,0.0,0.0,0.0,0.0,-3.0598,-3.0598,-3.0757,-3.1366,-3.1119,-3.1032,0.0,0.0,0.0,0.0,0.0,0.0,0.0,0.0,0.0,0.0,0.0,0.0,0.0,0.0,0.0,0.0,0.0,0.0,0.0,0.0,0.0,0.0,0.0,-4.1947,-4.1947,-4.1845,-4.1787,-4.1787,-4.1236,-4.0902,-4.08,-4.0902,-4.0655,-4.0104,-4.0104,-3.9784,-3.9218,-3.9828,-3.9712,-3.9088,0.0,0.0,-4.0032,-4.0746,-4.083,-4.061,-4.1919,-4.2113,-4.1738,-4.2349,-4.2602,-4.2602,0.0,0.0,0.0,0.0,0.0,0.0,0.0,0.0,0.0,0.0,0.0,0.0,0.0,0.0,0.0,0.0,0.0,0.0,0.0,0.0,0.0,0.0,-2.2652,-2.2652,-2.2809,-2.2919,-2.3571,-2.481,-2.4965,-2.5676,-2.6924,-2.6849,-2.6837,-2.6924,-2.6849,-2.6806,-2.682,-2.6895,-2.7229,-2.7724,-2.7913,0.0,0.0,0.0,0.0,0.0,0.0,0.0,0.0,-3.0234,-3.0219,-2.9856,-3.0438,0.0,0.0,0.0,0.0,0.0,-3.0598,-3.0598,-3.0757,-3.1366,-3.1438,-3.1569,0.0,0.0,0.0,0.0,0.0,0.0,0.0,0.0,0.0,0.0,0.0,0.0,0.0,0.0,0.0,0.0,0.0,0.0,0.0,0.0,0.0,0.0,0.0,0.0,-4.125,-4.0713,-4.0408,-4.0408,-4.0307,-4.0002,-3.9509,-4.0002,-4.0191,-4.0104,-4.0104,-3.9784,-3.9218,-3.9828,-3.9465,-3.8391,0.0,-3.9367,-3.9437,-3.9582,-4.0294,-4.135,-4.1584,-4.1963,-4.2429,-4.2571,-4.2602,-4.2602,0.0,0.0,0.0,0.0,0.0,0.0,0.0,0.0,0.0,0.0,0.0,0.0,0.0,0.0,0.0,0.0,0.0,0.0,0.0,0.0,0.0,-2.2849,-2.2775,-2.2775,-2.2849,-2.3204,-2.3849,-2.481,-2.5197,-2.5865,-2.6806,-2.6806,-2.6806,-2.6806,-2.6806,-2.6806,-2.6806,-2.6806,-2.6953,-2.7244,0.0,0.0,0.0,0.0,0.0,0.0,0.0,0.0,0.0,0.0,-2.9581,-2.9639,-2.9972,0.0,0.0,0.0,0.0,0.0,-3.0598,-3.0598,-3.0845,-3.1801,-3.1756,-3.1843,-3.3238,0.0,0.0,0.0,0.0,0.0,0.0,0.0,0.0,0.0,0.0,0.0,0.0,0.0,0.0,0.0,0.0,0.0,0.0,0.0,0.0,0.0,0.0,0.0,-4.0554,-4.0263,-4.0104,-4.0104,-3.9784,-3.9479,-3.9204,-3.9117,-3.9073,-3.9073,-3.9073,-3.8928,-3.8667,-3.8942,-3.8754,-3.8217,0.0,-3.8666,-3.873,-3.873,-3.9103,-3.9804,-4.0588,-4.1111,-4.1525,-4.2317,-4.2602,-4.2602,0.0,0.0,0.0,0.0,0.0,0.0,0.0,0.0,0.0,0.0,0.0,0.0,0.0,0.0,0.0,0.0,0.0,0.0,0.0,0.0,-2.2888,-2.2888,-2.2888,-2.2888,-2.2888,-2.3572,-2.421,-2.481,-2.5473,-2.6152,-2.6806,-2.6806,-2.6806,-2.6806,-2.6806,-2.6806,-2.6806,-2.6806,-2.6806,-2.6849,0.0,0.0,0.0,0.0,0.0,0.0,0.0,0.0,0.0,0.0,0.0,0.0,0.0,0.0,0.0,-3.0598,-3.0598,-3.0598,-3.0598,-3.0598,-3.0888,-3.2004,0.0,-3.2191,-3.4008,0.0,0.0,0.0,0.0,0.0,0.0,0.0,0.0,0.0,0.0,0.0,0.0,0.0,0.0,0.0,0.0,0.0,0.0,0.0,0.0,0.0,0.0,0.0,-3.9886,-3.9741,-3.9654,-3.9654,-3.9204,-3.8971,-3.8971,-3.8463,-3.8202,-3.8202,-3.8202,-3.8202,-3.8202,-3.8202,-3.8202,-3.8202,-3.8202,-3.8202,-3.8202,-3.8202,-3.8412,-3.8826,-3.9964,-4.0622,-4.1044,-4.2174,-4.2602,-4.2602,0.0,0.0,0.0,0.0,0.0,0.0,0.0,0.0,0.0,0.0,0.0,0.0,0.0,0.0,0.0,0.0,0.0,0.0,0.0,0.0,-2.2888,-2.2888,-2.2888,-2.2888,-2.2888,-2.3572,-2.421,-2.481,-2.5473,-2.6152,-2.6806,-2.6806,-2.6806,-2.6806,-2.6806,-2.6806,-2.6806,-2.6806,-2.6806,-2.6806,-2.6837,0.0,0.0,0.0,0.0,0.0,0.0,0.0,0.0,0.0,0.0,0.0,0.0,0.0,-3.0598,-3.0598,-3.0598,-3.0598,-3.0598,-3.0598,-3.0772,-3.1424,0.0,0.0,-3.4109,0.0,0.0,0.0,0.0,0.0,0.0,0.0,0.0,0.0,0.0,0.0,0.0,0.0,0.0,0.0,0.0,0.0,0.0,0.0,0.0,0.0,0.0,0.0,-3.9262,-3.8681,-3.8333,-3.8333,-3.8289,-3.8275,-3.8275,-3.8217,-3.8202,-3.8202,-3.8202,-3.8202,-3.8202,-3.8202,-3.8202,-3.8202,-3.8202,-3.8202,-3.8202,-3.8202,-3.8994,-4.0243,-4.0347,-4.1245,-4.246,-4.2571,-4.2602,-4.2602,0.0,0.0,0.0,0.0,0.0,0.0,0.0,0.0,0.0,0.0,0.0,0.0,0.0,0.0,0.0,0.0,0.0,0.0,0.0,0.0,-2.2888,-2.2888,-2.2888,-2.2888,-2.2888,-2.3572,-2.421,-2.4863,-2.5894,-2.6533,-2.6806,-2.6806,-2.6806,-2.6806,-2.6806,-2.6806,-2.6806,-2.6806,-2.6806,-2.6806,-2.6806,-2.6806,0.0,0.0,0.0,0.0,0.0,0.0,0.0,0.0,-2.8216,-2.8796,0.0,-2.9973,-3.0598,-3.0598,-3.0598,-3.0598,-3.0598,-3.0858,-3.1308,-3.1944,0.0,0.0,0.0,0.0,0.0,0.0,0.0,0.0,0.0,0.0,0.0,0.0,0.0,0.0,0.0,0.0,0.0,0.0,0.0,0.0,0.0,0.0,0.0,0.0,0.0,0.0,0.0,-3.8333,-3.8202,-3.8202,-3.8202,-3.8202,-3.8202,-3.8202,-3.8202,-3.8202,-3.8202,-3.8202,-3.8202,-3.8202,-3.8202,-3.8202,-3.8202,-3.8202,-3.8202,-3.8202,-3.8509,-3.9103,-4.0034,-4.101,-4.1981,-4.2429,-4.2602,-4.2602,0.0,0.0,0.0,0.0,0.0,0.0,0.0,0.0,0.0,0.0,0.0,0.0,0.0,0.0,0.0,0.0,0.0,0.0,-2.2902,-2.2888,-2.2888,-2.2888,-2.2888,-2.2888,-2.2888,-2.3345,-2.4022,-2.4892,-2.6195,-2.6704,-2.65,-2.6704,-2.6806,-2.6806,-2.6806,-2.6806,-2.6806,-2.6806,-2.6806,-2.6806,-2.6806,-2.6806,0.0,0.0,0.0,0.0,0.0,0.0,0.0,0.0,-2.765,0.0,0.0,0.0,0.0,0.0,-3.0598,-3.0598,-3.0598,-3.0887,-3.138,0.0,0.0,0.0,0.0,0.0,0.0,0.0,0.0,0.0,0.0,0.0,0.0,0.0,0.0,0.0,0.0,0.0,0.0,0.0,0.0,0.0,0.0,0.0,0.0,0.0,0.0,0.0,0.0,-3.8028,-3.8014,-3.8188,-3.781,-3.7709,-3.7912,-3.7926,-3.781,-3.7607,-3.7825,-3.8028,-3.8188,-3.7999,-3.8028,-3.8188,-3.7999,-3.8028,-3.8202,-3.8202,-3.8472,-3.903,-4.0243,-4.1211,-4.19,-4.2429,-4.2602,-4.257,0.0,0.0,0.0,0.0,0.0,0.0,0.0,0.0,0.0,0.0,0.0,0.0,0.0,0.0,0.0,0.0,0.0,0.0,-2.2888,-2.2888,-2.2888,-2.2888,-2.2888,-2.2888,-2.2888,-2.2902,-2.3563,-2.4878,-2.6141,-2.6457,-2.5818,-2.6486,-2.6806,-2.6806,-2.6806,-2.6806,-2.6806,-2.6806,-2.6806,-2.6806,-2.6806,-2.6806,-2.6806,0.0,0.0,0.0,0.0,0.0,0.0,0.0,-2.7695,0.0,0.0,0.0,0.0,-3.0409,-3.0598,-3.0598,-3.0598,-3.0612,0.0,0.0,0.0,0.0,0.0,0.0,0.0,0.0,0.0,0.0,0.0,0.0,0.0,0.0,0.0,0.0,0.0,0.0,0.0,0.0,0.0,0.0,0.0,0.0,0.0,0.0,0.0,0.0,0.0,-3.7622,-3.7564,-3.8159,-3.6968,-3.6635,-3.7288,-3.7302,-3.6968,-3.6315,-3.6983,-3.7607,-3.8159,-3.7578,-3.7636,-3.8159,-3.7578,-3.7651,-3.8202,-3.8202,-3.9066,-4.0451,-4.1178,-4.1933,-4.2571,-4.2586,-4.2586,-4.2489,0.0,0.0,0.0,0.0,0.0,0.0,0.0,0.0,0.0,0.0,0.0,0.0,0.0,0.0,0.0,0.0,0.0,0.0,-2.2841,-2.2841,-2.2841,-2.2841,-2.2841,-2.2849,-2.2888,-2.336,-2.3804,-2.4196,-2.5009,-2.5546,-2.5803,-2.6006,-2.6355,-2.6806,-2.6806,-2.6806,-2.6806,-2.6806,-2.6806,-2.6806,-2.6806,-2.6806,-2.6806,0.0,0.0,0.0,0.0,0.0,0.0,0.0,0.0,0.0,0.0,0.0,0.0,-3.0409,-3.0598,-3.0598,-3.0598,-3.1235,0.0,0.0,0.0,0.0,0.0,0.0,0.0,0.0,0.0,0.0,0.0,0.0,0.0,0.0,0.0,0.0,0.0,0.0,0.0,0.0,0.0,0.0,0.0,0.0,0.0,0.0,0.0,0.0,0.0,-3.6954,-3.6693,-3.6867,-3.6504,-3.6402,-3.6606,-3.6606,-3.6504,-3.6301,-3.6504,-3.6693,-3.6881,-3.7172,-3.7404,-3.7593,-3.7839,-3.8028,-3.8202,-3.8202,-3.8449,-3.8936,-3.9662,-4.0382,-4.1049,-4.1101,-4.1452,-4.1776,0.0,0.0,0.0,0.0,0.0,0.0,0.0,0.0,0.0,0.0,0.0,0.0,0.0,0.0,0.0,0.0,0.0,0.0,0.0,0.0,-2.2809,-2.2809,-2.2841,-2.2872,-2.2888,-2.3302,-2.3514,-2.3514,-2.4375,-2.5013,-2.5469,-2.5701,-2.6166,-2.6806,-2.6806,-2.6806,-2.6806,-2.6806,-2.6924,-2.7157,-2.7157,-2.7157,-2.7157,0.0,0.0,0.0,0.0,0.0,0.0,0.0,0.0,0.0,0.0,0.0,0.0,-3.0336,-3.0598,-3.0656,-3.0872,0.0,0.0,0.0,0.0,0.0,0.0,0.0,0.0,0.0,0.0,0.0,0.0,0.0,0.0,0.0,0.0,0.0,0.0,0.0,0.0,0.0,0.0,0.0,0.0,0.0,0.0,0.0,0.0,0.0,0.0,-3.6286,-3.604,-3.6301,-3.5822,-3.5677,-3.5923,-3.5923,-3.5807,-3.5561,-3.5807,-3.5793,-3.5575,-3.6228,-3.6678,-3.6925,-3.7288,-3.7447,-3.7447,-3.7447,-3.7616,-3.7965,-3.8667,-3.9378,-4.007,-4.0388,-4.0792,-4.1077,0.0,0.0,0.0,0.0,0.0,0.0,0.0,0.0,0.0,0.0,0.0,0.0,0.0,0.0,0.0,0.0,0.0,0.0,0.0,0.0,-2.2772,-2.2772,-2.2857,-2.2888,-2.2888,-2.2888,-2.2888,-2.2888,-2.4047,-2.4723,-2.4892,-2.5444,-2.6083,-2.6806,-2.6806,-2.6806,-2.6806,-2.6806,-2.7128,-2.7623,-2.7623,-2.7652,-2.7695,-2.7637,0.0,0.0,0.0,0.0,0.0,0.0,0.0,0.0,0.0,0.0,-2.9028,-3.0249,-3.0598,-3.0743,0.0,0.0,0.0,0.0,0.0,0.0,0.0,0.0,0.0,0.0,0.0,0.0,0.0,0.0,0.0,0.0,0.0,0.0,0.0,0.0,0.0,0.0,0.0,0.0,0.0,0.0,0.0,0.0,0.0,0.0,0.0,-3.5654,-3.5581,-3.6112,-3.5009,-3.469,-3.5305,-3.5319,-3.498,-3.4428,-3.5029,-3.5,-3.4428,-3.5101,-3.5741,-3.6301,-3.6301,-3.6301,-3.6301,-3.6301,-3.6711,-3.736,-3.7986,-3.866,-3.9377,-3.9993,-4.0264,-4.0243,0.0,0.0,0.0,0.0,0.0,0.0,0.0,0.0,0.0,0.0,0.0,0.0,0.0,0.0,0.0,0.0,0.0,0.0,0.0,0.0,-2.2638,-2.2638,-2.2812,-2.2888,-2.2888,-2.2888,-2.2888,-2.2888,-2.3163,-2.3838,-2.4824,-2.4955,-2.5662,-2.6806,-2.6806,-2.6806,-2.6806,-2.6806,-2.6852,-2.6982,-2.6982,-2.7287,-2.7652,-2.7171,-2.7215,0.0,0.0,0.0,0.0,0.0,0.0,0.0,-2.9218,-2.9392,-2.9566,-3.038,-3.0598,-3.0743,0.0,0.0,0.0,0.0,0.0,0.0,0.0,0.0,0.0,0.0,0.0,0.0,0.0,0.0,0.0,0.0,0.0,0.0,0.0,0.0,0.0,0.0,0.0,0.0,0.0,0.0,0.0,0.0,0.0,0.0,-3.5581,-3.4965,-3.4675,-3.4806,-3.4559,-3.4486,-3.4617,-3.4617,-3.4545,0.0,-3.4559,-3.4545,-3.4428,-3.5101,-3.5741,-3.6301,-3.6301,-3.6301,-3.6301,-3.6301,-3.6408,-3.6535,-3.6696,-3.7188,-3.7858,-3.8023,-3.845,-3.889,0.0,0.0,0.0,0.0,0.0,0.0,0.0,0.0,0.0,0.0,0.0,0.0,0.0,0.0,0.0,0.0,0.0,0.0,0.0,0.0,0.0,-2.2752,-2.2843,-2.2888,-2.2888,-2.2888,-2.2888,-2.2888,-2.3229,-2.3867,0.0,0.0,-2.5506,-2.6806,-2.6806,-2.6806,-2.6806,-2.6806,-2.6968,-2.7258,-2.7563,-2.7882,-2.8187,-2.8158,-2.8158,-2.8187,-2.8187,0.0,0.0,0.0,0.0,0.0,0.0,0.0,-2.9726,-3.0409,-3.0598,-3.0743,0.0,0.0,0.0,0.0,0.0,0.0,0.0,0.0,0.0,0.0,0.0,0.0,0.0,0.0,0.0,0.0,0.0,0.0,0.0,0.0,0.0,0.0,0.0,0.0,0.0,0.0,0.0,0.0,0.0,-3.4559,-3.4893,-3.4588,-3.4414,-3.4414,-3.4414,-3.4414,-3.4414,-3.4414,-3.4414,-3.4414,-3.4414,-3.4414,-3.4428,-3.4762,-3.5082,-3.5401,-3.5401,-3.5401,-3.5401,-3.5401,-3.5401,-3.5436,-3.5751,-3.6283,-3.6949,-3.7297,-3.7864,-3.8443,0.0,0.0,0.0,0.0,0.0,0.0,0.0,0.0,0.0,0.0,0.0,0.0,0.0,0.0,0.0,0.0,0.0,0.0,0.0,0.0,0.0,-2.2888,-2.2888,-2.2888,-2.2888,-2.2888,-2.2888,-2.2888,-2.3572,0.0,0.0,0.0,0.0,-2.6806,-2.6806,-2.6806,-2.6806,-2.6806,-2.7084,-2.7579,-2.8144,-2.8505,-2.8752,-2.9145,-2.9116,-2.884,-2.884,-2.9189,-2.9537,-2.9145,0.0,0.0,0.0,0.0,-2.99,-3.0452,-3.0598,-3.0743,0.0,0.0,0.0,0.0,0.0,0.0,0.0,0.0,0.0,0.0,0.0,0.0,0.0,0.0,0.0,0.0,0.0,0.0,0.0,0.0,0.0,0.0,0.0,0.0,0.0,0.0,0.0,0.0,0.0,-3.4414,-3.4414,-3.4414,-3.4414,-3.4414,-3.4414,-3.4414,-3.4414,-3.4414,-3.4414,-3.4414,-3.4414,-3.4414,-3.4414,-3.4414,-3.4414,-3.4414,-3.4414,-3.4414,-3.4414,-3.4414,-3.4414,-3.4448,-3.5004,-3.5578,-3.6134,-3.6814,-3.746,-3.8075,0.0,0.0,0.0,0.0,0.0,0.0,0.0,0.0,0.0,0.0,0.0,0.0,0.0,0.0,0.0,0.0,0.0,0.0,-2.0908,0.0,0.0,-2.2902,-2.2888,-2.2888,-2.2888,-2.2888,-2.2888,-2.2888,0.0,0.0,0.0,0.0,0.0,-2.6806,0.0,0.0,-2.6806,-2.6806,-2.6837,-2.6924,-2.7038,-2.7721,-2.8665,-2.813,-2.858,-2.9465,-2.9465,-2.9523,-2.9668,-3.0191,-3.0409,0.0,0.0,0.0,-3.0496,-3.0583,-3.0598,0.0,0.0,0.0,0.0,0.0,0.0,0.0,0.0,0.0,0.0,0.0,0.0,0.0,0.0,0.0,0.0,0.0,0.0,0.0,0.0,0.0,0.0,0.0,0.0,0.0,0.0,0.0,0.0,0.0,-3.4414,-3.4414,-3.4414,-3.4414,-3.4414,-3.4414,-3.4414,-3.4414,-3.4414,-3.4414,-3.4414,-3.4414,-3.4414,-3.4414,-3.4414,-3.4414,-3.4414,-3.4414,-3.4414,-3.4414,-3.4414,-3.4414,-3.4414,-3.4414,-3.4501,-3.4601,-3.4754,-3.5432,-3.6072,-3.6768,0.0,0.0,0.0,0.0,0.0,0.0,0.0,0.0,0.0,0.0,0.0,0.0,0.0,0.0,0.0,-2.0194,-2.0809,-2.1372,-2.1902,-2.2468,-2.2841,-2.2902,-2.2888,-2.2888,-2.2888,-2.2888,-2.2888,-2.2888,0.0,0.0,0.0,-2.6242,-2.6837,0.0,0.0,0.0,0.0,-2.6806,-2.6738,-2.6703,-2.7521,-2.8159,-2.8639,-2.9131,-2.9668,-3.0161,-3.0161,-3.0161,-3.0205,-3.051,-3.0598,-3.0568,-3.0477,0.0,0.0,0.0,-3.0507,0.0,0.0,0.0,0.0,0.0,0.0,0.0,0.0,0.0,0.0,0.0,0.0,0.0,0.0,0.0,0.0,0.0,0.0,0.0,0.0,0.0,0.0,0.0,0.0,0.0,0.0,0.0,0.0,0.0,-3.4414,-3.4414,-3.4414,-3.4414,-3.4414,-3.4414,-3.4414,-3.4414,-3.4414,-3.4414,-3.4414,-3.4414,-3.4414,-3.4414,-3.4414,-3.4414,-3.4414,-3.4414,-3.4414,-3.4414,-3.4414,-3.4414,-3.4414,-3.4414,-3.4414,-3.462,-3.5023,-3.5706,-3.6384,-3.7057,0.0,0.0,0.0,0.0,0.0,0.0,0.0,0.0,0.0,0.0,0.0,0.0,0.0,0.0,0.0,0.0,-2.0721,-2.1541,-2.2727,-2.2681,-2.2652,-2.2834,-2.2865,-2.2902,-2.288,-2.2902,-2.2888,0.0,0.0,0.0,-2.4829,-2.6796,-2.7449,0.0,-2.7227,0.0,0.0,0.0,0.0,0.0,0.0,0.0,0.0,-2.9943,-3.0467,-3.0598,-3.0598,-3.0598,-3.0598,-3.0538,-3.0507,-3.0507,-3.0357,-3.0417,0.0,0.0,0.0,0.0,0.0,0.0,0.0,0.0,0.0,0.0,0.0,0.0,0.0,0.0,0.0,0.0,0.0,0.0,0.0,0.0,0.0,0.0,0.0,0.0,0.0,0.0,0.0,0.0,0.0,0.0,0.0,0.0,-3.4414,-3.4414,-3.4414,-3.4414,-3.4414,-3.4414,-3.4414,-3.4414,-3.4414,-3.4414,-3.4414,-3.4414,-3.4414,-3.4414,-3.4414,-3.4414,-3.4414,-3.4414,-3.4414,-3.4414,-3.4414,-3.4414,-3.4414,-3.4414,-3.4414,-3.4721,-3.5219,-3.5706,-3.6306,-3.6966,0.0,0.0,0.0,0.0,0.0,0.0,0.0,0.0,0.0,0.0,0.0,0.0,-1.9914,-1.985,-2.0029,-2.0696,-2.1372,-2.2058,-2.2749,-2.2315,-2.2208,-2.2615,-2.2797,0.0,-2.2809,-2.2872,0.0,0.0,0.0,0.0,-2.4829,-2.6796,-2.7681,-2.7681,-2.8303,-2.8607,-2.8564,0.0,0.0,0.0,0.0,0.0,0.0,0.0,0.0,0.0,0.0,-3.0598,-3.0568,-3.0387,-3.0312,-3.0312,-3.0282,-3.0312,-3.0357,0.0,0.0,0.0,0.0,0.0,0.0,0.0,0.0,0.0,0.0,0.0,0.0,0.0,0.0,0.0,0.0,0.0,0.0,0.0,0.0,0.0,0.0,0.0,0.0,0.0,0.0,0.0,0.0,0.0,0.0,0.0,-3.4414,-3.4414,-3.4414,-3.4414,-3.4414,-3.4414,-3.4414,-3.4414,-3.4414,-3.4414,-3.4414,-3.4414,-3.4414,-3.4414,-3.4414,-3.4414,-3.4414,-3.4414,-3.4414,-3.4414,-3.4414,-3.4414,-3.4414,-3.4414,-3.4414,-3.4414,-3.4448,-3.4501,-3.4938,-3.5529,0.0,0.0,0.0,0.0,0.0,0.0,0.0,0.0,0.0,0.0,0.0,0.0,0.0,-1.9317,-1.9422,-1.9746,-2.0709,-2.1684,-2.2606,-2.256,-2.2575,-2.2712,-2.2834,-2.3091,-2.3488,-2.3105,0.0,0.0,0.0,-2.5027,-2.5473,-2.6985,-2.7913,-2.8347,-2.8607,-2.8709,-2.8666,-2.8322,0.0,0.0,0.0,0.0,0.0,0.0,0.0,0.0,0.0,0.0,0.0,-3.0507,-3.0477,-3.0477,-3.0357,-3.0387,-3.0507,-3.0568,-3.0598,0.0,0.0,0.0,0.0,0.0,0.0,0.0,0.0,0.0,0.0,0.0,0.0,0.0,0.0,0.0,0.0,0.0,0.0,0.0,0.0,0.0,0.0,0.0,0.0,0.0,0.0,0.0,0.0,0.0,0.0,-3.4414,-3.4414,-3.4414,-3.4414,-3.4414,-3.4414,-3.4414,-3.4414,-3.4414,-3.4414,-3.4414,-3.4414,-3.4414,-3.4414,-3.4414,-3.4414,-3.4414,-3.4414,-3.4414,-3.4414,-3.4414,-3.4414,-3.4414,-3.4414,-3.4414,-3.4433,-3.4872,-3.5464,-3.604,0.0,0.0,0.0,0.0,0.0,0.0,0.0,0.0,0.0,0.0,0.0,0.0,0.0,0.0,-1.9734,-2.0232,-2.0809,-2.1541,-2.2463,-2.2445,-2.2544,-2.2874,-2.3037,-2.338,-2.399,-2.3455,0.0,0.0,0.0,0.0,0.0,-2.7086,-2.7927,-2.8361,-2.8551,-2.8856,0.0,0.0,0.0,-2.9117,0.0,0.0,-2.9869,0.0,0.0,0.0,0.0,0.0,0.0,0.0,-3.0462,-3.0477,-3.0357,-3.0447,-3.0582,-3.0462,-3.0522,0.0,0.0,0.0,0.0,0.0,0.0,0.0,0.0,0.0,0.0,0.0,0.0,0.0,0.0,0.0,0.0,0.0,0.0,0.0,0.0,0.0,0.0,0.0,0.0,0.0,0.0,0.0,0.0,0.0,0.0,0.0,-3.4414,-3.4414,-3.4414,-3.4414,-3.4414,-3.4414,-3.4414,-3.4414,-3.4414,-3.4414,-3.4414,-3.4414,-3.4414,-3.4414,-3.4414,-3.4414,-3.4414,-3.4414,-3.4414,-3.4414,-3.4414,-3.4414,-3.4414,-3.4414,-3.4433,-3.4905,-3.5335,-3.5738,0.0,0.0,0.0,0.0,0.0,0.0,0.0,0.0,0.0,0.0,0.0,0.0,0.0,0.0,0.0,-2.232,-2.1825,-2.1729,-2.2404,-2.1967,-2.2111,-2.3097,-2.3392,-2.3763,-2.4226,-2.3913,0.0,0.0,0.0,0.0,0.0,0.0,-2.7681,-2.7697,-2.8236,-2.9131,-3.0195,0.0,-2.9854,-3.024,0.0,-2.9987,-3.0582,0.0,0.0,0.0,-3.0276,-3.0353,0.0,-3.0262,0.0,0.0,0.0,0.0,-3.0507,-3.0203,0.0,0.0,0.0,0.0,0.0,0.0,0.0,0.0,0.0,0.0,0.0,0.0,0.0,0.0,0.0,0.0,0.0,0.0,0.0,0.0,0.0,0.0,0.0,0.0,0.0,0.0,0.0,0.0,0.0,0.0,-3.4414,-3.4414,-3.4414,-3.4414,-3.4414,-3.4414,-3.4414,-3.4414,-3.4414,-3.4414,-3.4414,-3.4414,-3.4414,-3.4414,-3.4414,-3.4414,-3.4414,-3.4414,-3.4414,-3.4414,-3.4414,-3.4414,-3.4414,-3.4414,-3.4414,-3.4414,-3.4414,-3.4414,-3.4414,-3.4414,0.0,0.0,0.0,0.0,0.0,0.0,0.0,0.0,0.0,0.0,0.0,0.0,-2.0231,-2.13,-2.2259,-2.3004,-2.2877,-2.3018,-2.3583,-2.3544,-2.36,-2.3868,-2.4144,-2.4568,-2.5202,-2.4735,0.0,0.0,0.0,0.0,0.0,0.0,0.0,0.0,-2.7677,-2.8096,-2.8667,-2.8952,0.0,0.0,-2.9876,-3.0076,0.0,0.0,0.0,0.0,0.0,-3.1404,-3.1094,0.0,-3.0731,-3.0296,0.0,0.0,0.0,0.0,0.0,0.0,-3.0189,0.0,0.0,0.0,0.0,0.0,0.0,0.0,0.0,0.0,0.0,0.0,0.0,0.0,0.0,0.0,0.0,0.0,0.0,0.0,0.0,0.0,0.0,0.0,0.0,0.0,0.0,0.0,-3.4414,-3.4414,-3.4414,-3.4414,-3.4414,-3.4414,-3.4414,-3.4414,-3.4414,-3.4414,-3.4414,-3.4414,-3.4414,-3.4414,-3.4414,-3.4414,-3.4414,-3.4414,-3.4414,-3.4414,-3.4414,-3.4414,-3.4414,-3.4414,-3.4414,-3.4414,-3.4414,-3.4414,-3.4721,-3.5055,0.0,0.0,0.0,0.0,0.0,0.0,0.0,0.0,0.0,0.0,0.0,0.0,-2.1694,-2.2419,-2.3043,-2.359,-2.3616,-2.3759,-2.4092,-2.4154,-2.4278,-2.4507,-2.4674,-2.5063,-2.5704,-2.522,0.0,0.0,0.0,0.0,0.0,0.0,0.0,0.0,0.0,0.0,0.0,0.0,0.0,0.0,-2.9568,0.0,0.0,-3.0936,-3.118,0.0,0.0,0.0,-3.1137,-3.0867,-3.0537,0.0,0.0,0.0,0.0,0.0,0.0,0.0,0.0,0.0,0.0,0.0,0.0,0.0,-3.0477,-3.0828,0.0,0.0,0.0,0.0,0.0,0.0,0.0,0.0,0.0,0.0,0.0,0.0,0.0,0.0,0.0,0.0,0.0,-3.4414,-3.4414,-3.4414,-3.4414,-3.4414,-3.4414,-3.4414,-3.4414,-3.4414,-3.4414,-3.4414,-3.4414,-3.4414,-3.4414,-3.4414,-3.4414,-3.4414,-3.4414,-3.4414,-3.4414,-3.4414,-3.4414,-3.4414,-3.4414,-3.4414,-3.4414,-3.4414,-3.4414,-3.4414,-3.4414,-3.4414,-3.4668,-3.4938,0.0,0.0,0.0,0.0,0.0,0.0,0.0,0.0,0.0,0.0,0.0,-2.2193,-2.3254,-2.3507,-2.3784,-2.4264,-2.4289,-2.4289,-2.4289,-2.4289,-2.4542,-2.5091,-2.5105,-2.5358,-2.5907,-2.5519,0.0,0.0,0.0,0.0,0.0,0.0,0.0,0.0,0.0,0.0,0.0,0.0,0.0,-2.8802,-2.9122,-2.97,0.0,0.0,-3.1217,0.0,-3.108,-3.1009,-3.0845,-3.0066,-2.9929,0.0,0.0,0.0,0.0,0.0,-2.9865,0.0,0.0,0.0,0.0,0.0,0.0,0.0,-3.0296,-3.0447,-3.0742,0.0,0.0,0.0,0.0,0.0,0.0,0.0,0.0,0.0,0.0,0.0,0.0,0.0,0.0,0.0,-3.4414,-3.4414,-3.4414,-3.4414,-3.4414,-3.4414,-3.4414,-3.4414,-3.4414,-3.4414,-3.4414,-3.4414,-3.4414,-3.4414,-3.4414,-3.4414,-3.4414,-3.4414,-3.4414,-3.4414,-3.4414,-3.4414,-3.4414,-3.4414,-3.4414,-3.4414,-3.4414,-3.4414,-3.4414,-3.4414,-3.4414,-3.4414,-3.4414,-3.4414,-1.8205,0.0,0.0,0.0,0.0,0.0,0.0,0.0,0.0,0.0,0.0,0.0,0.0,-2.479,-2.542,-2.5542,-2.5542,-2.5542,-2.5542,-2.5542,-2.5584,-2.5711,-2.5833,-2.5943,-2.6056,-2.6078,0.0,0.0,0.0,0.0,0.0,0.0,0.0,0.0,0.0,0.0,0.0,0.0,0.0,-2.8117,-2.9211,0.0,-3.0531,-3.1296,-3.1551,-3.1537,-3.2132,-3.1697,-3.0718,0.0,-2.9822,-2.9853,0.0,0.0,0.0,0.0,0.0,0.0,0.0,0.0,0.0,0.0,0.0,0.0,-3.038,-3.0312,-3.0446,0.0,0.0,0.0,0.0,0.0,0.0,0.0,0.0,0.0,0.0,0.0,0.0,0.0,0.0,0.0,-3.4414,-3.4414,-3.4414,-3.4414,-3.4414,-3.4414,-3.4414,-3.4414,-3.4414,-3.4414,-3.4414,-3.4414,-3.4414,-3.4414,-3.4414,-3.4414,-3.4414,-3.4414,-3.4414,-3.4414,-3.4414,-3.4414,-3.4414,-3.4414,-3.4414,-3.4414,-3.4414,-3.4414,-3.4414,-3.4414,-3.4414,-3.4414,-3.4414,-3.4414,-1.8602,0.0,0.0,0.0,0.0,0.0,0.0,0.0,0.0,0.0,0.0,0.0,0.0,0.0,0.0,-2.5893,-2.5893,-2.5893,-2.5893,-2.5893,-2.5893,-2.5893,-2.5948,-2.6002,-2.6002,-2.6056,-2.6084,0.0,0.0,0.0,0.0,0.0,0.0,0.0,0.0,0.0,0.0,0.0,-2.7481,-2.7876,-2.885,0.0,-3.0729,-3.1433,-3.1853,-3.2055,-3.2169,-3.133,-3.015,-2.9812,-2.9713,0.0,0.0,-2.9713,-2.9713,0.0,-2.997,-3.0326,0.0,0.0,0.0,-3.117,0.0,0.0,0.0,-3.0373,-3.0249,0.0,0.0,0.0,0.0,0.0,0.0,0.0,0.0,0.0,0.0,0.0,0.0,0.0,0.0,0.0,-3.3467,-3.347,-3.347,-3.347,-3.347,-3.3601,-3.392,-3.3935,-3.4095,-3.4399,-3.4414,-3.4414,-3.4414,-3.4414,-3.4414,-3.4414,-3.4414,-3.4414,-3.4414,-3.4414,-3.4414,-3.4414,-3.4414,-3.424,-3.3935,-3.3935,-3.3746,-3.3529,-3.4167,-3.4225,-3.3978,-3.4298,-3.4414,-3.4414,-1.8987,0.0,0.0,0.0,0.0,0.0,0.0,0.0,0.0,0.0,0.0,0.0,0.0,0.0,0.0,0.0,-2.6259,-2.6202,0.0,0.0,-2.602,-2.5907,-2.5893,-2.5893,-2.5893,-2.5893,-2.5893,0.0,0.0,0.0,0.0,0.0,0.0,0.0,0.0,0.0,0.0,0.0,0.0,-2.8044,0.0,-2.9625,-3.0811,-3.1273,-3.1768,-3.2122,-3.1514,-3.0541,-2.9631,-2.9743,0.0,-2.9799,-2.9957,-2.9985,0.0,0.0,0.0,0.0,0.0,0.0,0.0,0.0,0.0,-3.1051,0.0,0.0,0.0,0.0,0.0,0.0,0.0,0.0,0.0,0.0,0.0,0.0,0.0,0.0,0.0,0.0,0.0,0.0,0.0,-3.2481,-3.2481,-3.2481,-3.2481,-3.2745,-3.3285,-3.3314,-3.3572,-3.4211,-3.424,-3.424,-3.424,-3.424,-3.424,-3.424,-3.424,-3.4298,-3.4414,-3.4414,-3.4414,-3.4399,-3.4283,-3.3935,-3.3503,-3.3503,-3.3021,-3.2454,-3.3732,-3.392,-3.3561,-3.4051,-3.424,-3.4211,-1.8987,-1.8987,0.0,0.0,0.0,0.0,0.0,0.0,0.0,0.0,0.0,0.0,0.0,0.0,0.0,0.0,0.0,0.0,-2.675,0.0,0.0,-2.5921,-2.5893,-2.5893,-2.5893,-2.5893,-2.5893,-2.5893,0.0,0.0,0.0,0.0,0.0,0.0,-2.7341,0.0,0.0,0.0,-2.8591,0.0,-2.9251,-2.9912,0.0,-3.06,-3.067,-3.0656,-3.007,-2.9729,-2.9687,0.0,-3.0385,-3.0516,0.0,-3.1462,-3.1462,0.0,0.0,0.0,0.0,0.0,0.0,0.0,-3.2244,0.0,0.0,0.0,0.0,0.0,0.0,0.0,0.0,0.0,0.0,0.0,0.0,0.0,0.0,0.0,0.0,0.0,0.0,0.0,0.0,-3.2481,-3.2481,-3.2481,-3.2481,-3.2524,-3.2629,-3.2629,-3.2919,-3.359,-3.3605,-3.3605,-3.3605,-3.3605,-3.3605,-3.3605,-3.3605,-3.3862,-3.4414,-3.4414,-3.4414,-3.4385,-3.3819,-3.3561,-3.3503,-3.3503,-3.2745,-3.1741,-3.3064,-3.3561,-3.3518,-3.359,-3.3605,-3.3532,-1.8987,-1.9239,0.0,0.0,0.0,0.0,0.0,0.0,0.0,0.0,0.0,0.0,0.0,0.0,0.0,0.0,0.0,-2.7693,0.0,0.0,0.0,0.0,-2.7018,0.0,-2.6427,-2.6427,-2.6245,-2.5893,-2.6245,0.0,0.0,0.0,0.0,0.0,-2.7679,0.0,-2.7847,0.0,0.0,0.0,0.0,0.0,0.0,-3.0357,-3.0498,-3.0455,-3.0203,-2.9912,-2.9645,0.0,-3.0203,0.0,0.0,0.0,0.0,0.0,0.0,0.0,0.0,0.0,0.0,0.0,0.0,0.0,-3.1971,0.0,-3.117,0.0,0.0,0.0,0.0,0.0,0.0,0.0,0.0,0.0,0.0,0.0,0.0,0.0,0.0,0.0,0.0,0.0,0.0,0.0,-3.1395,-3.1555,-3.1886,-3.1915,-3.2237,-3.2904,-3.3314,-3.3503,-3.3503,-3.3833,-3.3833,-3.3503,-3.3833,-3.3775,-3.3325,-3.3703,-3.3674,-3.3264,-3.3035,-3.2701,-3.2338,-3.2338,-3.1801,-3.1061,-3.1975,-3.2338,-3.2425,-3.3227,-3.3256,-3.2933,-1.9626,0.0,0.0,0.0,0.0,0.0,0.0,0.0,0.0,0.0,0.0,0.0,-2.7312,-2.7748,0.0,0.0,-2.8282,-2.8227,0.0,0.0,-2.7974,0.0,0.0,0.0,0.0,-2.7074,-2.6849,-2.6413,0.0,0.0,0.0,0.0,0.0,0.0,0.0,-2.8282,-2.831,0.0,0.0,-2.897,-2.942,-2.9602,-2.9659,-3.0076,-3.0231,-3.0259,-3.0427,-3.0203,-2.9912,-3.0263,-3.067,0.0,-3.1213,0.0,0.0,0.0,0.0,0.0,-3.2665,0.0,0.0,0.0,0.0,0.0,0.0,0.0,0.0,0.0,0.0,0.0,0.0,0.0,0.0,0.0,0.0,0.0,0.0,0.0,0.0,0.0,0.0,0.0,0.0,0.0,0.0,-3.0598,-3.0598,-3.0801,-3.1235,-3.125,-3.1555,-3.2222,-3.2687,-3.2966,-3.2966,-3.3398,-3.3398,-3.298,-3.3398,-3.3238,-3.2527,-3.2991,-3.2962,-3.2481,-3.2292,-3.193,-3.1495,-3.1495,-3.1134,-3.067,-3.1264,-3.1409,-3.1395,-3.2527,-3.2643,-3.2249,-2.1209,-2.0554,0.0,0.0,0.0,0.0,0.0,0.0,0.0,0.0,0.0,0.0,0.0,0.0,0.0,0.0,0.0,-2.9293,-2.8703,0.0,-2.8394,0.0,0.0,-2.7791,0.0,0.0,0.0,0.0,0.0,0.0,0.0,0.0,0.0,0.0,0.0,-2.9546,-2.9546,-2.956,-2.9574,-2.9574,-2.9602,-2.9602,-2.9602,0.0,-2.9645,-2.9715,-3.0273,0.0,0.0,-3.1907,-3.2328,0.0,0.0,0.0,0.0,0.0,0.0,0.0,0.0,0.0,0.0,-3.3361,0.0,0.0,0.0,0.0,-3.2202,0.0,0.0,0.0,0.0,0.0,0.0,0.0,0.0,0.0,0.0,0.0,0.0,0.0,0.0,0.0,0.0,0.0,0.0,-3.0598,-3.0598,-3.0612,-3.0641,-3.0641,-3.0901,-3.1495,-3.1538,-3.1553,-3.1553,-3.1567,-3.1567,-3.1553,-3.1567,-3.1901,-3.2481,-3.251,-3.251,-3.2452,-3.1799,-3.1509,-3.1495,-3.1495,-3.1134,-3.067,-3.1264,-3.1134,-3.0714,-3.1337,-3.1538,-3.1437,0.0,0.0,0.0,0.0,0.0,0.0,0.0,-2.6539,0.0,0.0,0.0,0.0,0.0,-2.9055,-2.9378,0.0,0.0,-2.9518,-2.9307,-2.9307,0.0,0.0,0.0,-2.8788,0.0,0.0,0.0,0.0,0.0,0.0,0.0,0.0,0.0,0.0,0.0,-2.9602,0.0,0.0,0.0,0.0,0.0,-2.9602,-2.9602,0.0,0.0,-2.9645,-2.9841,-3.0147,0.0,-3.0989,-3.171,-3.244,-3.2651,-3.3002,-3.329,-3.329,-3.329,0.0,0.0,0.0,-3.3431,-3.3466,0.0,0.0,0.0,0.0,0.0,0.0,0.0,0.0,0.0,0.0,0.0,0.0,0.0,0.0,0.0,0.0,0.0,0.0,0.0,0.0,0.0,0.0,0.0,-2.9914,-2.9943,-3.0132,-3.0583,-3.0598,-3.0699,-3.0887,-3.1293,-3.1495,-3.1495,-3.193,-3.193,-3.1526,-3.193,-3.1845,-3.125,-3.1671,-3.1627,-3.1221,-3.0988,-3.0887,-3.0887,-3.0887,-3.0786,-3.0627,-3.083,-3.0786,-3.067,-3.1293,-3.125,-3.0872,-2.2853,0.0,0.0,0.0,0.0,0.0,0.0,0.0,0.0,0.0,-2.8647,0.0,-2.9012,0.0,-2.9602,0.0,-2.9602,-2.9602,-2.9602,-2.9602,0.0,-2.9602,-2.9602,0.0,0.0,0.0,0.0,0.0,0.0,-2.9012,0.0,0.0,0.0,0.0,0.0,0.0,0.0,0.0,-2.9463,0.0,0.0,-2.9369,0.0,0.0,-2.9602,-2.9673,0.0,-3.053,-3.0937,-3.134,-3.2027,-3.2736,-3.2736,-3.3002,-3.329,-3.329,-3.329,-3.329,-3.329,-3.3122,0.0,-3.3037,-3.281,0.0,-3.3002,0.0,0.0,0.0,0.0,0.0,0.0,0.0,0.0,0.0,0.0,0.0,0.0,-2.7304,0.0,0.0,0.0,0.0,0.0,0.0,-2.9213,-2.9899,-2.9958,-3.0147,0.0,0.0,-3.0598,-3.0598,-3.0974,-3.1177,-3.1177,-3.1613,-3.1613,-3.1192,-3.1613,-3.138,-3.0612,-3.0988,-3.0959,-3.0598,-3.0598,-3.0598,-3.0598,-3.0598,-3.0598,-3.0598,-3.0598,-3.0598,-3.0656,-3.1032,-3.0916,-3.0598,0.0,0.0,0.0,0.0,-2.5135,0.0,0.0,0.0,-2.8703,0.0,-2.9237,-2.9602,-2.9602,-2.9602,-2.9602,-2.9602,-2.9602,-2.9602,-2.9602,-2.9602,0.0,0.0,-2.9602,-2.9602,-2.9602,0.0,0.0,0.0,0.0,0.0,0.0,0.0,0.0,0.0,-2.9571,0.0,-2.9602,-2.9571,-2.9153,-2.8556,-2.8524,-2.8949,-2.9602,-2.9571,-2.954,-2.9708,-3.0942,-3.1438,-3.1668,-3.2793,-3.3248,-3.329,-3.329,-3.329,-3.329,-3.329,-3.329,-3.329,-3.329,-3.2846,-3.2313,-3.2105,0.0,0.0,0.0,0.0,-3.2037,0.0,0.0,0.0,0.0,0.0,0.0,0.0,0.0,0.0,0.0,0.0,0.0,0.0,0.0,0.0,0.0,-2.9397,-2.9799,-3.0494,-3.0525,0.0,0.0,0.0,-3.0598,-3.0598,-3.0598,-3.0598,-3.0598,-3.0598,-3.0598,-3.0598,-3.0598,-3.0598,-3.0598,-3.0598,-3.0598,-3.0598,-3.0598,-3.0598,-3.0598,-3.0598,-3.0598,-3.0598,-3.0598,-3.0598,-3.0598,-3.0598,-3.0598,-3.0598,-2.4781,-2.5244,-2.5758,0.0,-2.6341,-2.679,0.0,0.0,0.0,0.0,-2.9504,-2.9602,-2.9602,-2.9602,-2.9602,-2.9602,-2.9602,0.0,0.0,0.0,0.0,-2.9602,-2.9602,-2.9602,-2.9602,-2.9602,0.0,-2.9602,0.0,0.0,-2.9602,0.0,0.0,0.0,0.0,0.0,-2.9571,-2.9012,-2.898,-2.9261,-2.873,-2.8949,0.0,0.0,-2.8776,-2.8871,-2.9599,-3.0555,-3.1531,-3.1695,-3.2436,-3.329,-3.329,-3.329,-3.329,-3.329,-3.329,-3.329,-3.329,-3.2739,-3.2087,-3.1602,-3.1242,-3.0926,0.0,0.0,0.0,0.0,0.0,0.0,0.0,0.0,0.0,0.0,0.0,0.0,0.0,0.0,0.0,-2.5676,0.0,0.0,-2.7769,-2.7905,-2.8484,-2.9769,-2.9435,0.0,0.0,0.0,0.0,-3.0598,-3.0598,-3.0598,-3.0598,-3.0598,-3.0598,-3.0598,-3.0598,-3.0598,-3.0598,-3.0598,-3.0598,-3.0598,-3.0598,-3.0598,-3.0598,-3.0598,-3.0598,-3.0598,-3.0598,-3.0598,-3.0598,-3.0598,-3.0598,-3.0598,-2.5061,0.0,0.0,-2.713,0.0,0.0,-2.8157,0.0,0.0,-2.956,-2.9602,0.0,-2.9602,-2.9602,-2.9602,-2.9602,-2.9602,0.0,-2.9602,0.0,0.0,-2.9602,-2.9602,-2.9602,-2.9602,-2.9602,0.0,-2.9602,0.0,0.0,-2.9602,0.0,0.0,0.0,0.0,-2.873,0.0,-2.8019,-2.8182,-2.9058,-2.8344,0.0,0.0,-2.8538,-2.833,-2.8099,-2.8294,-2.9299,-3.0535,-3.0685,-3.1634,-3.2775,-3.2775,-3.3016,-3.329,-3.329,-3.3051,-3.2775,-3.2775,-3.1753,-3.0621,-3.0342,-2.9694,-2.915,-2.92,-2.9634,-3.0045,0.0,0.0,0.0,0.0,0.0,0.0,0.0,0.0,0.0,0.0,0.0,0.0,0.0,-2.6195,0.0,-2.679,-2.7479,-2.8387,-2.9508,0.0,0.0,0.0,0.0,0.0,-3.0598,-3.0598,-3.0598,-3.0598,-3.0598,-3.0598,-3.0598,-3.0598,-3.0598,-3.0598,-3.0598,-3.0598,-3.0598,-3.0598,-3.0598,-3.0598,-3.0598,-3.0598,-3.0598,-3.0598,-3.0598,-3.0598,-3.0598,-3.0598,-3.0598,0.0,0.0,0.0,0.0,0.0,0.0,0.0,-2.9265,0.0,-2.9602,0.0,-2.9602,-2.9602,-2.9602,-2.9602,-2.9602,0.0,-2.9602,-2.9602,-2.9602,-2.954,-2.9463,-2.9477,-2.9477,-2.9477,-2.9477,-2.9477,0.0,0.0,0.0,0.0,0.0,0.0,0.0,0.0,0.0,0.0,-2.6913,-2.717,0.0,-2.7637,-2.7417,-2.7537,-2.8051,-2.7855,-2.7315,-2.7059,-2.7911,-2.9261,-2.9686,-3.0745,-3.183,-3.187,-3.2278,-3.2793,-3.2982,-3.2473,-3.187,-3.1901,-3.0492,-2.895,-2.885,-2.7951,-2.7242,-2.7816,-2.8375,-2.8737,-2.8737,-2.8675,-2.8238,0.0,0.0,0.0,0.0,0.0,0.0,0.0,0.0,0.0,0.0,0.0,0.0,-2.5992,-2.7377,-2.8579,0.0,0.0,0.0,0.0,0.0,0.0,-3.0598,-3.0598,-3.0598,-3.0598,0.0,-3.0598,-3.0598,-3.0598,-3.0598,-3.0598,-3.0598,-3.0598,-3.0598,-3.0598,-3.0598,-3.0598,-3.0598,-3.0598,-3.0598,-3.0598,-3.0598,-3.0598,-3.0598,-3.0598,-3.0598,0.0,0.0,0.0,0.0,0.0,-2.8872,-2.9378,-2.9532,-2.9602,-2.9602,-2.9602,-2.9602,-2.9602,-2.9602,-2.9602,-2.9602,-2.9602,0.0,0.0,0.0,0.0,-2.873,-2.8698,-2.8698,-2.8698,-2.8698,-2.8698,0.0,0.0,0.0,0.0,0.0,0.0,0.0,0.0,0.0,-2.6744,-2.6517,0.0,-2.7604,-2.6879,-2.6947,-2.7451,-2.6934,-2.6676,-2.6496,-2.5854,-2.718,-2.9125,-2.8633,-2.9357,-3.0461,-3.0667,-3.0379,-3.0228,-3.1254,-3.1034,-3.055,-3.0987,-3.0328,-2.934,-2.846,-2.8233,-2.8005,-2.7279,-2.7522,-2.7898,-2.7898,-2.7559,-2.7037,-2.6383,0.0,0.0,0.0,0.0,0.0,0.0,0.0,0.0,0.0,0.0,-2.5795,0.0,0.0,0.0,0.0,0.0,0.0,0.0,0.0,0.0,0.0,-3.0598,0.0,0.0,0.0,-3.0598,-3.0598,-3.0598,-3.0598,-3.0598,-3.0598,-3.0598,-3.0598,-3.0598,-3.0598,-3.0598,-3.0598,-3.0598,-3.0598,-3.0598,-3.0598,-3.0598,-3.0598,-3.0598,-3.0598,0.0,0.0,0.0,0.0,0.0,0.0,0.0,-2.9261,0.0,-2.954,-2.9602,-2.9602,-2.9602,-2.9602,-2.9602,-2.9602,-2.9602,-2.9602,-2.9602,-2.9602,-2.9432,-2.9089,-2.8698,0.0,-2.8492,-2.8149,-2.7986,-2.7986,0.0,0.0,0.0,0.0,0.0,0.0,0.0,-2.638,0.0,0.0,0.0,-2.6905,-2.6867,-2.6631,-2.6368,-2.638,-2.6173,-2.5791,-2.5418,-2.6294,-2.7535,-2.7186,-2.7947,-2.9081,-2.9168,-2.9254,-2.9412,-3.0042,-2.966,-2.9188,-2.9715,-2.8888,-2.7779,-2.7557,-2.7174,-2.6707,-2.6177,-2.6502,-2.6875,-2.6875,-2.6873,-2.6813,-2.6549,-2.5865,0.0,0.0,0.0,0.0,0.0,0.0,0.0,0.0,0.0,0.0,0.0,0.0,0.0,0.0,0.0,0.0,0.0,0.0,0.0,0.0,0.0,0.0,0.0,0.0,0.0,-3.0598,-3.0598,-3.0598,-3.0598,-3.0598,-3.0598,-3.0598,-3.0598,-3.0598,-3.0598,-3.0598,-3.0598,-3.0598,-3.0598,-3.0598,-3.0598,-3.0598,-3.0598,-3.0598,0.0,-2.8136,0.0,0.0,-2.8395,0.0,-2.9293,-2.9012,-2.8949,-2.954,-2.9602,-2.9602,-2.9602,-2.9602,-2.954,-2.9369,-2.9449,-2.9533,-2.9565,-2.9533,-2.947,-2.936,-2.8651,-2.8201,-2.8071,-2.7537,-2.7284,0.0,0.0,0.0,0.0,0.0,0.0,0.0,0.0,0.0,0.0,0.0,-2.6177,-2.6385,-2.6785,-2.6379,-2.5539,-2.598,-2.5804,-2.5312,-2.5312,-2.5576,-2.5925,-2.5925,-2.6712,-2.7677,-2.7745,-2.8053,-2.8479,-2.8785,-2.829,-2.779,-2.8338,-2.7385,-2.6358,-2.6633,-2.6165,-2.5624,-2.5504,-2.5793,-2.6093,-2.6093,-2.6358,-2.6549,-2.6549,-2.5853,0.0,0.0,0.0,0.0,0.0,0.0,0.0,0.0,0.0,0.0,0.0,0.0,0.0,0.0,0.0,0.0,0.0,0.0,0.0,0.0,0.0,-3.0598,-3.0598,0.0,-3.0598,-3.0598,-3.0598,-3.0598,-3.0598,-3.0598,-3.0598,-3.0598,-3.0598,-3.0598,-3.0598,-3.0598,-3.0598,-3.0598,-3.0598,-3.0598,-3.0598,-3.0598,-3.0598,-3.0598,0.0,0.0,0.0,0.0,0.0,0.0,-2.8588,-2.9121,-2.954,-2.9571,-2.9602,-2.9602,-2.9602,-2.9602,-2.9324,-2.8666,-2.9054,-2.938,-2.9512,-2.938,-2.9067,-2.8528,-2.7926,-2.7271,-2.6607,-2.6552,-2.6483,0.0,0.0,-2.6577,0.0,0.0,0.0,0.0,0.0,0.0,0.0,-2.5901,-2.6106,-2.613,-2.6178,-2.6142,-2.5973,-2.5563,-2.5382,-2.5312,-2.5312,-2.5336,-2.5384,-2.5384,-2.5769,-2.6336,-2.6519,-2.6148,-2.5895,-2.7062,-2.689,-2.6396,-2.6926,-2.6961,-2.6705,-2.6286,-2.6441,-2.6609,-2.6142,-2.6057,-2.6093,-2.6093,-2.5757,-2.5468,-2.5468,-2.5384,-2.5324,0.0,0.0,0.0,0.0,0.0,0.0,0.0,0.0,0.0,0.0,-2.428,0.0,0.0,0.0,0.0,0.0,0.0,0.0,-2.9591,0.0,-3.0598,-3.0598,-3.0598,-3.0598,-3.0598,-3.0598,-3.0598,-3.0598,-3.0598,-3.0598,-3.0598,-3.0598,-3.0598,-3.0598,-3.0598,-3.0598,-3.0598,-3.0598,-3.0598,-3.0598,-3.0598,-3.0598,-3.0598,0.0,0.0,0.0,0.0,0.0,0.0,0.0,-2.7769,-2.7848,-2.8274,-2.8693,-2.8789,-2.8371,-2.8338,-2.8208,-2.7934,-2.808,-2.8372,-2.8764,-2.8743,-2.8573,-2.8368,-2.7666,-2.7031,-2.6427,-2.5965,-2.5721,0.0,0.0,0.0,0.0,0.0,0.0,0.0,0.0,-2.548,-2.5817,-2.637,-2.6561,-2.6561,-2.6561,-2.6406,-2.6045,-2.5516,-2.5312,-2.5312,-2.5312,-2.5312,-2.5312,-2.5312,-2.5444,-2.5624,-2.5725,-2.5558,-2.5383,-2.5908,-2.5839,-2.5745,-2.6286,-2.6165,-2.5985,-2.6069,-2.6033,-2.5901,-2.5673,-2.5624,-2.5624,-2.5624,-2.5456,-2.5312,-2.5312,-2.5312,-2.5312,0.0,0.0,0.0,0.0,0.0,0.0,0.0,0.0,0.0,0.0,0.0,0.0,0.0,0.0,0.0,0.0,0.0,0.0,-2.8921,0.0,-2.9763,-3.0598,-3.019,-3.019,-3.0598,-3.0598,-3.0598,-3.0598,-3.0598,-3.0598,-3.0598,-3.0598,-3.0598,-3.0598,-3.0598,-3.0598,-3.0598,-3.0598,-3.0598,-3.0598,-3.0598,-3.0598,-3.0598,-2.6483,0.0,-2.671,0.0,-2.6242,-2.6586,-2.7082,-2.6913,-2.6812,-2.7149,-2.7591,-2.7789,-2.755,-2.7517,-2.7417,-2.7183,-2.7325,-2.7562,-2.7997,-2.7988,-2.8001,-2.8001,-2.7326,0.0,-2.6082,-2.5581,-2.5312,-2.5312,-2.5511,0.0,0.0,0.0,0.0,0.0,-2.554,-2.5661,-2.5901,-2.6454,-2.6645,-2.6645,-2.6645,-2.6454,-2.6045,-2.5516,-2.5312,-2.5312,-2.5312,-2.5312,-2.5312,-2.5312,-2.5312,-2.5312,-2.5312,-2.5312,-2.5312,-2.5312,-2.5312,-2.5384,-2.5769,-2.5588,-2.5396,-2.5769,-2.5588,-2.5312,-2.5312,-2.5312,-2.5312,-2.5312,-2.5312,-2.5312,-2.5312,-2.5312,-2.5312,-2.5312,0.0,0.0,0.0,0.0,0.0,0.0,-2.4975,-2.4891,-2.5264,0.0,0.0,0.0,0.0,0.0,0.0,0.0,0.0,0.0,0.0,0.0,0.0,-2.9747,-2.9839,-3.0312,-3.0507,-3.0598,-3.0598,-3.0598,-3.0598,-3.0598,-3.0598,-3.0598,-3.0598,-3.0598,-3.0598,-3.0598,-3.0598,-3.0598,-3.0598,-3.0598,-3.0598,-3.0598,-2.638,-2.5826,-2.5312,-2.5312,-2.5931,-2.638,-2.6414,-2.7015,-2.7217,-2.6517,-2.6414,-2.6688,-2.7417,-2.7517,-2.7217,-2.6483,-2.6917,-2.7231,-2.7301,-2.7243,-2.7243,0.0,0.0,-2.6082,-2.5347,-2.5312,-2.5312,-2.5312,0.0,0.0,-2.4508,0.0,-2.5588,-2.6093,-2.6093,-2.5793,-2.5348,-2.5877,-2.6105,-2.6105,-2.6105,-2.6105,-2.6045,-2.5516,-2.5312,-2.5312,-2.5312,-2.5312,-2.5312,-2.5312,-2.5312,-2.5312,-2.5312,-2.5312,-2.5312,-2.5312,-2.5312,-2.5312,-2.5312,-2.5312,-2.5312,-2.5312,-2.5312,-2.5312,-2.5312,-2.5312,-2.5312,-2.5312,-2.5312,-2.5312,-2.5312,-2.5312,-2.5312,-2.5312,0.0,0.0,0.0,0.0,0.0,0.0,-2.53,-2.53,-2.5312,0.0,0.0,0.0,0.0,0.0,0.0,0.0,0.0,-2.7517,-2.8149,0.0,-2.8524,-2.9219,-2.9591,-2.9623,-3.0282,-3.0598,-3.0598,-3.0598,-3.0598,-3.0598,-3.0598,-3.0598,-3.0598,-3.0598,-3.0598,-3.0598,-3.0598,-3.0598,-3.0598,-3.0598,-3.0598,-3.0598,-2.5652,-2.5453,-2.5312,-2.5312,-2.5476,-2.5652,-2.5652,-2.5849,-2.5918,-2.5687,-2.5652,-2.5756,-2.5988,-2.5988,-2.5918,0.0,-2.581,-2.6066,0.0,-2.6456,-2.6456,-2.6492,-2.6298,-2.5923,-2.5312,-2.5312,-2.548,-2.5841,0.0,0.0,0.0,-2.6297,-2.6465,-2.6609,-2.6262,-2.6214,-2.6369,-2.619,-2.6322,-2.6597,-2.625,-2.6093,-2.6045,-2.5516,-2.5312,-2.5312,-2.5312,-2.5312,-2.5312,-2.5312,-2.5312,-2.5312,-2.5312,-2.5312,-2.5312,-2.5312,-2.5312,-2.5312,-2.5312,-2.5312,-2.5312,-2.5312,-2.5312,-2.5312,-2.5312,-2.5312,-2.5312,-2.5312,-2.5312,-2.5312,-2.5312,-2.5312,-2.5312,-2.5312,-2.5312,0.0,0.0,0.0,0.0,0.0,-2.5312,-2.5312,0.0,-2.5261,0.0,0.0,0.0,0.0,0.0,0.0,0.0,0.0,-2.7129,0.0,-2.8492,-2.873,-2.9093,-2.9623,-3.0282,-3.0598,-3.0598,-3.0598,-3.0598,-3.0598,-3.0598,-3.0598,-3.0598,-3.0598,-3.0598,-3.0598,-3.0598,-3.0598,-3.0598,-3.0598,-3.0306,-2.9929,-2.5312,-2.5312,-2.5312,-2.5312,-2.5312,-2.5312,-2.5312,-2.5312,-2.5312,-2.5312,-2.5312,-2.5312,-2.5312,-2.5312,0.0,-2.5312,-2.5312,-2.5444,-2.5781,-2.5793,-2.5793,-2.5793,-2.5793,-2.5648,-2.5312,-2.5312,0.0,-2.5793,-2.5997,-2.649,-2.7198,-2.7198,-2.7198,-2.7162,-2.6659,-2.6453,-2.6549,-2.6033,-2.5997,-2.6261,-2.5937,-2.5793,-2.5769,-2.5432,-2.5312,-2.5312,-2.5312,-2.5312,-2.5312,-2.5312,-2.5312,-2.5312,-2.5312,-2.5312,-2.5312,-2.5312,-2.5312,-2.5312,-2.5312,-2.5312,-2.5312,-2.5312,-2.5312,-2.5312,-2.5312,-2.5312,-2.5312,-2.5312,-2.5312,-2.5312,-2.5312,-2.5312,-2.5312,-2.5312,-2.5312,-2.5312,-2.5312,0.0,0.0,0.0,0.0,0.0,0.0,-2.5418,-2.5535,0.0,0.0,0.0,0.0,0.0,0.0,-2.7351,-2.6679,0.0,-2.8117,-2.8117,-2.8344,-2.8807,-2.9777,-3.0357,-3.0598,-3.0598,-3.0598,-3.0598,-3.0598,-3.0598,-3.0598,-3.0598,-3.0598,-3.0583,-3.0306,-3.0219,-3.019,-2.9987,-2.961,-2.9261,-2.5276,-2.5276,-2.5312,0.0,-2.5312,0.0,-2.5312,-2.5312,-2.5312,-2.5312,-2.5312,-2.5312,-2.5312,-2.5312,-2.5312,-2.5312,0.0,0.0,0.0,-2.5312,-2.5312,-2.5312,-2.5312,-2.5312,-2.5312,-2.5312,-2.5324,-2.536,-2.5901,-2.6683,-2.763,-2.763,-2.763,-2.7606,-2.7066,-2.6586,-2.6057,-2.5528,-2.5312,-2.5312,-2.5312,-2.5312,-2.5312,-2.5312,-2.5312,-2.5312,-2.5312,-2.5312,-2.5312,-2.5312,-2.5312,-2.5312,-2.5312,-2.5312,-2.5312,-2.5312,-2.5312,-2.5312,-2.5312,-2.5312,-2.5312,-2.5312,-2.5312,-2.5312,-2.5312,-2.5312,-2.5312,-2.5312,-2.5312,-2.5312,-2.5312,-2.5312,-2.5312,-2.5312,-2.5312,-2.5312,-2.5312,0.0,0.0,0.0,0.0,0.0,0.0,-2.5312,-2.5312,0.0,0.0,0.0,0.0,0.0,-2.6692,-2.7129,-2.6679,-2.6782,-2.7484,-2.7537,-2.7604,-2.7736,-2.903,-3.0007,-3.0598,-3.0598,-3.0598,-3.0598,-3.0598,-3.0583,-3.0539,-3.0539,-3.0539,-3.0467,-2.9813,-2.9552,-2.9523,-2.8913,-2.868,-2.8636,0.0,0.0,-2.5312,-2.5312,-2.5312,-2.5312,-2.5312,-2.5312,-2.5312,-2.5312,-2.5312,-2.5312,-2.5312,-2.5312,-2.5312,-2.5312,-2.5312,-2.5312,-2.5312,-2.5312,-2.5312,-2.5312,-2.5312,-2.5312,-2.5312,-2.5312,-2.5504,-2.5913,-2.6466,-2.6825,-2.709,-2.709,-2.709,-2.7066,-2.6538,-2.6226,-2.6057,-2.5528,-2.5312,-2.5312,-2.5312,-2.5312,-2.5312,-2.5312,-2.5312,-2.5312,-2.5312,-2.5312,-2.5312,-2.5312,-2.5312,-2.5312,-2.5312,-2.5312,-2.5312,-2.5312,-2.5312,-2.5312,-2.5312,-2.5312,-2.5312,-2.5312,-2.5312,-2.5312,-2.5312,-2.5312,-2.5312,-2.5312,-2.5312,-2.5312,-2.5312,-2.5312,-2.5312,-2.5312,-2.5312,-2.5312,-2.5312,-2.5312,0.0,0.0,-2.5312,-2.5312,-2.5312,-2.5312,-2.5347,0.0,0.0,0.0,0.0,-2.6119,-2.6339,-2.643,-2.6188,-2.6508,-2.7484,-2.8019,-2.8794,-2.987,-3.019,-3.0447,-3.0598,-3.0598,-3.0598,-3.0598,-3.0598,-3.0306,-2.9856,-2.9856,-2.9856,-2.9784,-2.9145,-2.9189,-2.9523,-2.8913,-2.8376,-2.7927,-2.5123,-2.5218,-2.5312,-2.5312,-2.5312,-2.5312,-2.5312,-2.5312,-2.5312,-2.5312,-2.5241,-2.5218,-2.5218,-2.5218,-2.5218,-2.5218,-2.5276,-2.5312,-2.5312,-2.5312,-2.5312,-2.5312,-2.5312,-2.5312,-2.5312,-2.5312,-2.5564,-2.6093,-2.6406,-2.6645,-2.6898,-2.6898,-2.6898,-2.6873,-2.6346,-2.6093,-2.6057,-2.5528,-2.5312,-2.5312,-2.5312,-2.5312,-2.5312,-2.5312,-2.5312,-2.5312,-2.5312,-2.5312,-2.5312,-2.5312,-2.5312,-2.5312,-2.5312,-2.5312,-2.5312,-2.5312,-2.5312,-2.5312,-2.5312,-2.5312,-2.5312,-2.5312,-2.5312,-2.5312,-2.5312,-2.5312,-2.5312,-2.5312,-2.5312,-2.5312,-2.5312,-2.5312,-2.5312,-2.5312,-2.5312,-2.5312,-2.5312,-2.5312,0.0,-2.5312,-2.5312,-2.5312,-2.5312,-2.5312,-2.5347,-2.5453,-2.5453,0.0,-2.5758,-2.5875,-2.6154,-2.6658,-2.6349,-2.6598,-2.7484,-2.7571,-2.8117,-2.9188,-2.9188,-2.9345,-2.9656,-2.9993,-2.9972,-2.97,-3.0013,-2.9784,-2.9189,-2.9189,-2.9189,-2.9131,-2.8492,-2.8448,-2.8652,-2.8042,-2.7592,-2.7248,-2.5016,-2.5111,-2.5206,-2.5206,-2.5206,-2.5241,-2.5276,-2.5241,-2.5241,-2.5276,-2.5147,-2.5052,-2.5052,-2.5052,-2.5052,-2.5052,-2.5147,-2.5241,-2.5312,-2.5312,-2.5312,-2.5312,-2.5312,-2.5312,-2.5312,-2.5312,-2.5528,-2.5973,-2.5973,-2.6226,-2.6645,-2.6645,-2.6645,-2.6633,-2.619,-2.5973,-2.5949,-2.5492,-2.5312,-2.5312,-2.5312,-2.5312,-2.5312,-2.5312,-2.5312,-2.5312,-2.5312,-2.5312,-2.5312,-2.5312,-2.5312,-2.5312,-2.5312,-2.5312,-2.5312,-2.5312,-2.5312,-2.5312,-2.5312,-2.5312,-2.5312,-2.5312,-2.5312,-2.5312,-2.5312,-2.5312,-2.5312,-2.5312,-2.5312,-2.5312,-2.5312,-2.5312,-2.5312,-2.5312,-2.5312,-2.5312,-2.5312,0.0,-2.5312,-2.5312,-2.5312,-2.5312,-2.5312,-2.5312,-2.5312,-2.5312,-2.5312,-2.5382,-2.5641,-2.5653,-2.6082,-2.7061,-2.6692,-2.6782,-2.7484,-2.704,-2.7095,-2.7637,-2.7644,-2.8004,-2.8684,-2.9226,-2.9193,-2.8783,-2.9246,-2.9131,-2.8536,-2.8536,-2.8507,-2.8351,-2.7687,-2.7417,-2.7363,-2.6757,-2.6527,-2.6474,-2.4598,-2.4742,-2.4897,-2.4897,-2.4897,-2.4921,-2.5111,-2.4992,-2.4957,-2.5111,-2.4957,-2.4861,-2.4861,-2.4861,-2.4861,-2.4861,-2.4861,-2.4981,-2.5276,-2.5312,-2.5312,-2.5312,-2.5312,-2.5312,-2.5312,-2.5312,-2.5348,-2.5432,-2.5432,-2.548,-2.5564,-2.5564,-2.5564,-2.5552,-2.5468,-2.5432,-2.5432,-2.5348,-2.5312,-2.5312,-2.5312,-2.5312,-2.5312,-2.5312,-2.5312,-2.5312,-2.5312,-2.5312,-2.5312,-2.5312,-2.5312,-2.5312,-2.5312,-2.5312,-2.5312,-2.5312,-2.5312,-2.5312,-2.5312,-2.5312,-2.5312,-2.5312,-2.5312,-2.5312,-2.5312,-2.5312,-2.5312,-2.5312,-2.5312,-2.5312,-2.5312,-2.5312,-2.5312,-2.5312,-2.5312,-2.5312,-2.5312,0.0,-2.5312,-2.5312,-2.5312,-2.5312,-2.5312,-2.5312,-2.5312,-2.5312,-2.5312,-2.5453,-2.5828,-2.5828,-2.6072,-2.6589,-2.6361,-2.6658,-2.7484,-2.7953,-2.8247,-2.8363,-2.8381,-2.8764,-2.9425,-2.9027,-2.9059,-2.9406,-2.9029,-2.8463,-2.7855,-2.7855,-2.7536,-2.7018,-2.6411,-2.6162,-2.6125,-2.5492,-2.5273,-2.5273,-2.4538,-2.4742,-2.4921,-2.4825,-2.479,-2.4825,-2.4921,-2.4861,-2.4825,-2.4921,-2.4754,-2.4646,-2.4646,-2.4646,-2.4646,-2.4646,-2.4754,-2.4921,-2.5182,-2.5182,-2.5182,-2.5182,-2.5276,-2.5312,-2.5312,-2.5312,-2.5312,-2.5312,-2.5312,-2.5312,-2.5312,-2.5312,-2.5312,-2.5312,-2.5312,-2.5312,-2.5312,-2.5312,-2.5312,-2.5312,-2.5312,-2.5312,-2.5312,-2.5312,-2.5312,-2.5312,-2.5312,-2.5312,-2.5312,-2.5312,-2.5312,-2.5312,-2.5312,-2.5312,-2.5312,-2.5312,-2.5312,-2.5312,-2.5312,-2.5312,-2.5312,-2.5312,-2.5312,-2.5312,-2.5312,-2.5312,-2.5312,-2.5312,-2.5312,-2.5312,-2.5312,-2.5312,-2.5312,-2.5312,-2.5312,0.0,0.0,-2.5312,-2.5312,-2.5312,-2.5312,-2.5312,-2.5312,-2.5382,-2.5453,-2.5453,-2.5571,-2.5758,-2.6062,-2.6062,-2.6052,-2.6,-2.6233,-2.6555,-2.6973,-2.7263,-2.7261,-2.6935,-2.6952,-2.698,-2.7022,-2.7091,-2.7104,-2.7079,-2.7153,-2.682,-2.6259,-2.6259,-2.6078,-2.5784,-2.5522,-2.5423,-2.5388,-2.5116,-2.5007,-2.4951,-2.4454,-2.4658,-2.4838,-2.4682,-2.4646,-2.4682,-2.4718,-2.4682,-2.4682,-2.4718,-2.4574,-2.4418,-2.4418,-2.4418,-2.4418,-2.4418,-2.461,-2.479,-2.4945,-2.5052,-2.5111,-2.5147,-2.5241,-2.5312,-2.5312,-2.5312,-2.5312,-2.5312,-2.5312,-2.5312,-2.5312,-2.5312,-2.5312,-2.5312,-2.5312,-2.5312,-2.5312,-2.5312,-2.5312,-2.5312,-2.5312,-2.5312,-2.5312,-2.5312,-2.5312,-2.5312,-2.5312,-2.5312,-2.5312,-2.5312,-2.5312,-2.5312,-2.5312,-2.5312,-2.5312,-2.5312,-2.5312,-2.5312,-2.5312,-2.5312,-2.5312,-2.5312,-2.5312,-2.5312,-2.5312,-2.5312,-2.5312,-2.5312,-2.5312,-2.5312,-2.5312,-2.5312,-2.5312,-2.5312,0.0,0.0,0.0,-2.5312,-2.5312,-2.5312,-2.5312,-2.5312,-2.5312,-2.55,-2.5606,-2.5606,-2.5793,-2.598,-2.6179,-2.6213,-2.6009,-2.5611,-2.6059,-2.6235,-2.6122,-2.6235,-2.5975,-2.539,-2.537,-2.5221,-2.4988,-2.5374,-2.538,-2.5137,-2.5522,-2.5442,-2.5007,-2.5007,-2.4922,-2.4794,-2.4794,-2.4696,-2.4553,-2.4553,-2.4553,-2.4496,-2.4236,-2.4236,-2.4261,-2.4236,-2.4236,-2.4309,-2.449,-2.4345,-2.4309,-2.449,-2.4345,-2.4236,-2.4236,-2.4236,-2.4236,-2.4236,-2.4418,-2.4538,-2.4526,-2.4873,-2.5147,-2.5276,-2.5276,-2.5312,-2.5312,-2.5312,-2.5312,-2.5312,-2.5312,-2.5312,-2.5312,-2.5312,-2.5312,-2.5312,-2.5312,-2.5312,-2.5312,-2.5312,-2.5312,-2.5312,-2.5312,-2.5312,-2.5312,-2.5312,-2.5312,-2.5312,-2.5312,-2.5312,-2.5312,-2.5312,-2.5312,-2.5312,-2.5312,-2.5312,-2.5312,-2.5312,-2.5312,-2.5312,-2.5312,-2.5312,-2.5312,-2.5312,-2.5312,-2.5312,-2.5312,-2.5312,-2.5312,-2.5312,-2.5312,-2.5312,-2.5312,-2.5312,-2.5312,-2.5312,0.0,0.0,-2.5312,-2.5312,-2.5312,-2.5312,-2.5312,-2.5312,-2.5312,-2.55,-2.5606,-2.5606,-2.5793,-2.598,-2.6179,-2.6213,-2.6009,-2.5611,-2.5636,-2.5435,-2.4913,-2.5423,-2.5331,-2.4656,-2.4682,-2.4981,-2.5527,-2.502,-2.5158,-2.5805,-2.5291,-2.5048,-2.5007,-2.5007,-2.4681,-2.4176,-2.4176,-2.378,-2.3245,-2.3245,-2.3245,-2.3245,-2.4225,-2.4309,-2.4345,-2.4236,-2.42,-2.4236,-2.4309,-2.4236,-2.4236,-2.4309,-2.4236,-2.4236,-2.4381,-2.4381,-2.4454,-2.4574,-2.4646,-2.4742,-2.4873,-2.5016,-2.5147,-2.5276,-2.5312,-2.5312,-2.5312,-2.5312,-2.5312,-2.5312,-2.5312,-2.5312,-2.5312,-2.5312,-2.5312,-2.5312,-2.5312,-2.5312,-2.5312,-2.5312,-2.5312,-2.5312,-2.5312,-2.5312,-2.5312,-2.5312,-2.5312,-2.5312,-2.5312,-2.5312,-2.5312,-2.5312,-2.5312,-2.5312,-2.5312,-2.5312,-2.5312,-2.5312,-2.5312,-2.5312,-2.5312,-2.5312,-2.5312,-2.5312,-2.5312,-2.5312,-2.5312,-2.5312,-2.5312,-2.5312,-2.5312,-2.5312,-2.5312,-2.5312,-2.5312,-2.5312,0.0,-2.5312,-2.5312,-2.5312,-2.5312,-2.5312,-2.5312,-2.5312,-2.5312,-2.5606,-2.5793,-2.5793,-2.5647,-2.5667,-2.5836,-2.5099,-2.4541,-2.4318,-2.4318,-2.4412,-2.4671,-2.4747,-2.4488,-2.3936,-2.4004,-2.4002,-2.3925,-2.3782,-2.387,-2.4153,-2.3916,-2.3813,-2.3813,-2.3813,-2.3679,-2.3484,-2.3484,-2.3305,-2.3108,-2.3108,-2.3108,-2.3108,-2.4236,-2.4309,-2.4345,-2.4225,-2.42,-2.42,-2.42,-2.42,-2.42,-2.42,-2.42,-2.4273,-2.449,-2.449,-2.4574,-2.479,-2.4861,-2.4957,-2.5087,-2.5147,-2.5218,-2.5312,-2.5312,-2.5312,-2.5312,-2.5312,-2.5312,-2.5312,-2.5312,-2.5312,-2.5312,-2.5312,-2.5312,-2.5312,-2.5312,-2.5312,-2.5312,-2.5312,-2.5312,-2.5312,-2.5312,-2.5312,-2.5312,-2.5312,-2.5312,-2.5312,-2.5312,-2.5312,-2.5312,-2.5312,-2.5312,-2.5312,-2.5312,-2.5312,-2.5312,-2.5312,-2.5312,-2.5312,-2.5312,-2.5312,-2.5312,-2.5312,-2.5312,-2.5312,-2.5312,-2.5312,-2.5312,-2.5312,-2.5312,-2.5312,-2.5312,-2.5312,-2.5312,-2.5312,-2.5312,-2.5312,-2.5312,-2.5168,-2.5059,-2.5059,-2.495,-2.4888,-2.4819,-2.5188,-2.536,-2.5326,-2.5139,-2.5095,-2.5182,-2.4194,-2.3603,-2.3489,-2.3298,-2.3415,-2.3988,-2.402,-2.3772,-2.3231,-2.3356,-2.322,-2.2909,-2.2987,-2.3047,-2.3108,-2.3108,-2.3108,-2.3108,-2.3047,-2.3047,-2.3108,-2.3047,-2.3047,-2.3108,-2.3108,-2.3108,-2.3108,-2.42,-2.42,-2.42,-2.42,-2.42,-2.42,-2.42,-2.42,-2.42,-2.42,-2.42,-2.4273,-2.449,-2.449,-2.4562,-2.4801,-2.4992,-2.5123,-2.5123,-2.5241,-2.5312,-2.5312,-2.5312,-2.5312,-2.5312,-2.5312,-2.5312,-2.5312,-2.5312,-2.5312,-2.5312,-2.5312,-2.5312,-2.5312,-2.5312,-2.5312,-2.5312,-2.5312,-2.5312,-2.5312,-2.5312,-2.5312,-2.5312,-2.5312,-2.5312,-2.5312,-2.5312,-2.5312,-2.5312,-2.5312,-2.5312,-2.5312,-2.5312,-2.5312,-2.5312,-2.5312,-2.5312,-2.5312,-2.5312,-2.5312,-2.5312,-2.5312,-2.5312,-2.5312,-2.5312,-2.5312,-2.5312,-2.5312,-2.5312,-2.5312,-2.5312,-2.5312,-2.5312,-2.5312,-2.5312,-2.5312,-2.53,-2.4855,-2.4484,-2.4472,-2.4195,-2.3947,-2.3806,-2.4103,-2.4222,-2.4025,-2.4189,-2.43,-2.4288,-2.3772,-2.3477,-2.3489,-2.2762,-2.2494,-2.272,-2.3218,-2.3218,-2.272,-2.272,-2.2769,-2.2909,-2.2909,-2.2969,-2.3108,-2.3108,-2.3108,-2.3078,-2.2969,-2.3,-2.3078,-2.2939,-2.3,-2.3108,-2.3108,-2.3108,-2.3108,-2.4636,-2.443,-2.42,-2.42,-2.42,-2.42,-2.42,-2.42,-2.42,-2.42,-2.42,-2.4345,-2.4682,-2.4718,-2.4814,-2.5111,-2.5218,-2.5241,-2.5241,-2.5276,-2.5312,-2.5312,-2.5312,-2.5312,-2.5312,-2.5312,-2.5312,-2.5312,-2.5312,-2.5312,-2.5312,-2.5312,-2.5312,-2.5312,-2.5312,-2.5312,-2.5312,-2.5312,-2.5312,-2.5312,-2.5312,-2.5312,-2.5312,-2.5312,-2.5312,-2.5312,-2.5312,-2.5312,-2.5312,-2.5312,-2.5312,-2.5312,-2.5312,-2.5312,-2.5312,-2.5312,-2.5312,-2.5312,-2.5312,-2.5312,-2.5312,-2.5312,-2.5312,-2.5312,-2.5312,-2.5312,-2.5312,-2.5312,-2.5312,-2.5312,-2.5312,-2.5312,-2.5312,-2.5312,-2.5312,-2.518,-2.4807,-2.4592,-2.4398,-2.4037,-2.3923,-2.3827,-2.3806,-2.4332,-2.4652,-2.4572,-2.4398,-2.403,-2.3426,-2.2955,-2.2694,-2.2582,-2.2474,-2.242,-2.2482,-2.264,-2.2714,-2.272,-2.28,-2.2848,-2.2909,-2.2987,-2.3047,-2.3078,-2.2987,-2.3017,-2.3078,-2.2969,-2.3,-2.3108,-2.3047,-2.3047,-2.3108,-2.3108,-2.3108,-2.3108,-2.49,-2.4682,-2.4418,-2.4235,-2.42,-2.42,-2.42,-2.42,-2.42,-2.42,-2.42,-2.4345,-2.4754,-2.479,-2.4921,-2.5276,-2.5312,-2.5312,-2.5312,-2.5312,-2.5312,-2.5312,-2.5312,-2.5312,-2.5312,-2.5312,-2.5312,-2.5312,-2.5312,-2.5312,-2.5312,-2.5312,-2.5312,-2.5312,-2.5312,-2.5312,-2.5312,-2.5312,-2.5312,-2.5312,-2.5312,-2.5312,-2.5312,-2.5312,-2.5312,-2.5312,-2.5312,-2.5312,-2.5312,-2.5312,-2.5312,-2.5312,-2.5312,-2.5312,-2.5312,-2.5312,-2.5312,-2.5312,-2.5312,-2.5312,-2.5312,-2.5312,-2.5312,-2.5312,-2.5312,-2.5312,-2.5312,-2.5312,-2.5312,-2.5312,-2.5312,-2.5312,-2.5312,-2.5312,-2.5312,-2.5204,-2.4879,-2.4482,-2.4109,-2.3842,-2.3453,-2.3232,-2.318,-2.3769,-2.415,-2.4084,-2.3762,-2.3323,-2.2805,-2.2603,-2.2494,-2.2414,-2.2494,-2.2543,-2.2604,-2.2543,-2.2616,-2.2769,-2.28,-2.2848,-2.2909,-2.2939,-2.2969,-2.3017,-2.2939,-2.3,-2.3078,-2.2969,-2.3,-2.3078,-2.3047,-2.3047,-2.3108,-2.3108,-2.3108,-2.3108,-2.5084,-2.4946,-2.4763,-2.4281,-2.42,-2.42,-2.4225,-2.4236,-2.4236,-2.4236,-2.4236,-2.4381,-2.4754,-2.479,-2.4921,-2.5276,-2.5312,-2.5312,-2.5312,-2.5312,-2.5312,-2.5312,-2.5312,-2.5312,-2.5312,-2.5312,-2.5312,-2.5312,-2.5312,-2.5312,-2.5312,-2.5312,-2.5312,-2.5312,-2.5312,-2.5312,-2.5312,-2.5312,-2.5312,-2.5312,-2.5312,-2.5312,-2.5312,-2.5312,-2.5312,-2.5312,-2.5312,-2.5312,-2.5312,-2.5312,-2.5312,-2.5312,-2.5312,-2.5312,-2.5312,-2.5312,-2.5312,-2.5312,-2.5312,-2.5312,-2.5312,-2.5312,-2.5312,-2.5312,-2.5312,-2.5312,-2.5312,-2.5312,-2.5312,-2.5312,-2.5312,-2.5312,-2.5312,-2.5312,-2.5264,-2.5216,-2.518,-2.4326,-2.371,-2.3661,-2.2902,-2.2328,-2.2228,-2.2793,-2.3151,-2.3071,-2.2703,-2.2493,-2.2493,-2.2641,-2.272,-2.272,-2.272,-2.2769,-2.2878,-2.2769,-2.2769,-2.2909,-2.2769,-2.2769,-2.2878,-2.2769,-2.2769,-2.2909,-2.2909,-2.3,-2.3078,-2.2969,-2.3,-2.3078,-2.2969,-2.2987,-2.3108,-2.3108,-2.3108,-2.3108,-2.5566,-2.5199,-2.4763,-2.4281,-2.42,-2.4261,-2.4418,-2.4418,-2.4418,-2.4418,-2.4418,-2.4538,-2.4754,-2.479,-2.4921,-2.5276,-2.5312,-2.5312,-2.5312,-2.5312,-2.5312,-2.5312,-2.5312,-2.5312,-2.5312,-2.5312,-2.5312,-2.5312,-2.5312,-2.5312,-2.5312,-2.5312,-2.5312,-2.5312,-2.5312,-2.5312,-2.5312,-2.5312,-2.5312,-2.5312,-2.5312,-2.5312,-2.5312,-2.5312,-2.5312,-2.5312,-2.5312,-2.5312,-2.5312,-2.5312,-2.5312,-2.5312,-2.5312,-2.5312,-2.5312,-2.5312,-2.5312,-2.5312,-2.5312,-2.5312,-2.5312,-2.5312,-2.5312,-2.5312,-2.5312,-2.5312,-2.5312,-2.5312,-2.5312,-2.5312,-2.5312,-2.5312,-2.5312,-2.5312,-2.4963,-2.4554,-2.4191,-2.3589,-2.3035,-2.2582,-2.2361,-2.2216,-2.2197,-2.2698,-2.3244,-2.3753,-2.3312,-2.3116,-2.3242,-2.2911,-2.272,-2.272,-2.272,-2.2708,-2.2739,-2.2708,-2.2769,-2.2909,-2.2769,-2.2708,-2.2739,-2.283,-2.2878,-2.2909,-2.2909,-2.3,-2.3078,-2.2969,-2.3,-2.3108,-2.3078,-2.3078,-2.3108,-2.3108,-2.3108,-2.3108,-2.6071,-2.5919,-2.5531,-2.4671,-2.474,-2.4744,-2.4416,-2.4454,-2.4454,-2.4381,-2.4345,-2.4418,-2.4646,-2.4646,-2.4814,-2.517,-2.5276,-2.5312,-2.5312,-2.5312,-2.5312,-2.5312,-2.5312,-2.5312,-2.5312,-2.5312,-2.5312,-2.5312,-2.5312,-2.5312,-2.5312,-2.5312,-2.5312,-2.5312,-2.5312,-2.5312,-2.5312,-2.5312,-2.5312,-2.5312,-2.5312,-2.5312,-2.5312,-2.5312,-2.5312,-2.5312,-2.5312,-2.5312,-2.5312,-2.5312,-2.5312,-2.5312,-2.5312,-2.5312,-2.5312,-2.5312,-2.5312,-2.5312,-2.5312,-2.5312,-2.5312,-2.5312,-2.5312,-2.5312,-2.5312,-2.5312,-2.5312,-2.5312,-2.5312,-2.5312,-2.5312,-2.5107,-2.4927,-2.4927,-2.4506,-2.4073,-2.3842,-2.3348,-2.2915,-2.2606,-2.2342,-2.2325,-2.266,-2.2708,-2.297,-2.3567,-2.3201,-2.2971,-2.2971,-2.2807,-2.272,-2.272,-2.272,-2.272,-2.272,-2.2616,-2.2574,-2.2665,-2.2574,-2.2555,-2.2555,-2.2635,-2.2696,-2.28,-2.2878,-2.3,-2.3078,-2.3017,-2.3047,-2.3108,-2.3108,-2.3108,-2.3108,-2.3108,-2.3108,-2.3108,-2.6524,-2.662,-2.6336,-2.5133,-2.5233,-2.5193,-2.439,-2.4381,-2.4454,-2.4273,-2.4236,-2.4309,-2.449,-2.4562,-2.473,-2.5111,-2.5241,-2.5312,-2.5312,-2.5312,-2.5312,-2.5312,-2.5312,-2.5312,-2.5312,-2.5312,-2.5312,-2.5312,-2.5312,-2.5312,-2.5312,-2.5312,-2.5312,-2.5312,-2.5312,-2.5312,-2.5312,-2.5312,-2.5312,-2.5312,-2.5312,-2.5312,-2.5312,-2.5312,-2.5312,-2.5312,-2.5312,-2.5312,-2.5312,-2.5312,-2.5312,-2.5312,-2.5312,-2.5312,-2.5312,-2.5312,-2.5312,-2.5312,-2.5312,-2.5312,-2.5312,-2.5312,-2.5312,-2.5312,-2.5312,-2.524,-2.5204,-2.5288,-2.524,-2.5204,-2.5288,-2.4879,-2.4484,-2.4484,-2.4025,-2.3661,-2.3661,-2.3216,-2.2847,-2.2847,-2.2534,-2.2525,-2.2989,-2.2698,-2.2669,-2.3021,-2.28,-2.2586,-2.2451,-2.2616,-2.272,-2.272,-2.2678,-2.2678,-2.272,-2.2482,-2.242,-2.2451,-2.2451,-2.242,-2.2389,-2.242,-2.2543,-2.2739,-2.2878,-2.3,-2.3078,-2.3078,-2.3078,-2.3078,-2.3078,-2.3108,-2.3108,-2.3108,-2.3108,-2.3108,-2.6593,-2.6501,-2.6168,-2.5096,-2.4949,-2.4863,-2.4499,-2.449,-2.4502,-2.4454,-2.4454,-2.4454,-2.449,-2.4802,-2.5076,-2.5276,-2.5276,-2.5312,-2.5312,-2.5312,-2.5312,-2.5312,-2.5312,-2.5312,-2.5312,-2.5312,-2.5312,-2.5312,-2.5312,-2.5312,-2.5312,-2.5312,-2.5312,-2.5312,-2.5312,-2.5312,-2.5312,-2.5312,-2.5312,-2.5312,-2.5312,-2.5312,-2.5312,-2.5312,-2.5312,-2.5312,-2.5312,-2.5312,-2.5312,-2.5312,-2.5312,-2.5312,-2.5312,-2.5312,-2.5312,-2.5312,-2.5312,-2.5312,-2.5312,-2.5312,-2.5312,-2.5312,-2.5312,-2.5312,-2.5312,-2.4951,-2.4759,-2.5216,-2.4939,-2.4771,-2.5216,-2.4879,-2.4484,-2.4484,-2.3713,-2.3119,-2.3119,-2.263,-2.2306,-2.2306,-2.2642,-2.2758,-2.2361,-2.2674,-2.2797,-2.2523,-2.2457,-2.2482,-2.2647,-2.269,-2.272,-2.272,-2.2512,-2.2525,-2.272,-2.2482,-2.2482,-2.2647,-2.2647,-2.2586,-2.242,-2.2586,-2.2739,-2.2878,-2.3017,-2.3017,-2.2939,-2.3047,-2.3017,-2.2939,-2.3047,-2.3108,-2.3108,-2.3108,-2.3108,-2.3108,-2.6887,-2.6996,-2.6713,-2.5532,-2.5538,-2.5384,-2.4461,-2.4418,-2.4454,-2.4345,-2.4418,-2.449,-2.449,-2.4873,-2.5087,-2.5016,-2.5182,-2.5276,-2.5182,-2.5182,-2.5182,-2.5182,-2.5182,-2.5206,-2.5312,-2.5312,-2.5312,-2.5312,-2.5312,-2.5312,-2.5312,-2.5312,-2.5312,-2.5312,-2.5312,-2.5312,-2.5312,-2.5312,-2.5312,-2.5312,-2.5312,-2.5312,-2.5312,-2.5312,-2.5312,-2.5312,-2.5312,-2.5312,-2.5312,-2.5312,-2.5312,-2.5312,-2.5312,-2.5312,-2.5312,-2.5312,-2.5312,-2.5194,-2.4755,-2.4969,-2.5194,-2.4743,-2.4636,-2.4755,-2.5194,-2.4317,-2.379,-2.5026,-2.5119,-2.4939,-2.4844,-2.4446,-2.4001,-2.3701,-2.3027,-2.2534,-2.2534,-2.2342,-2.2306,-2.2594,-2.3132,-2.3393,-2.3216,-2.343,-2.3466,-2.33,-2.3276,-2.3308,-2.33,-2.3103,-2.2964,-2.2964,-2.2995,-2.307,-2.3132,-2.307,-2.307,-2.3132,-2.272,-2.2543,-2.2586,-2.2647,-2.2739,-2.28,-2.2939,-2.2939,-2.2909,-2.3047,-2.3078,-2.3017,-2.3078,-2.3108,-2.3108,-2.3108,-2.3108,-2.3108]}]]